<?xml version="1.0" encoding="UTF-8" standalone="no" ?>
<gpx xmlns="http://www.topografix.com/GPX/1/1" xmlns:xsi="http://www.w3.org/2001/XMLSchema-instance" xsi:schemaLocation="http://www.topografix.com/GPX/1/1 http://www.topografix.com/GPX/1/1/gpx.xsd" version="1.1" creator="VisuGPX - https://www.visugpx.com">
  <metadata>
    <name>entrainement sur Orvault</name>
    <desc><![CDATA[marche nordique sur Orvault]]></desc>
  </metadata>
  <trk>
    <name><![CDATA[2012-01-12-01]]></name>
    <trkseg>
      <trkpt lat="47.26789" lon="-1.62361">
        <ele>14</ele>
        <time>2012-01-12T08:54:46Z</time>
      </trkpt>
      <trkpt lat="47.26789" lon="-1.62361">
        <ele>13.9</ele>
        <time>2012-01-12T08:54:47Z</time>
      </trkpt>
      <trkpt lat="47.26789" lon="-1.62357">
        <ele>13.3</ele>
        <time>2012-01-12T08:55:21Z</time>
      </trkpt>
      <trkpt lat="47.26787" lon="-1.62355">
        <ele>13.3</ele>
        <time>2012-01-12T08:55:23Z</time>
      </trkpt>
      <trkpt lat="47.26784" lon="-1.62354">
        <ele>13.5</ele>
        <time>2012-01-12T08:55:24Z</time>
      </trkpt>
      <trkpt lat="47.26782" lon="-1.62352">
        <ele>13.6</ele>
        <time>2012-01-12T08:55:25Z</time>
      </trkpt>
      <trkpt lat="47.2678" lon="-1.6235">
        <ele>13.1</ele>
        <time>2012-01-12T08:55:26Z</time>
      </trkpt>
      <trkpt lat="47.26778" lon="-1.62348">
        <ele>12.8</ele>
        <time>2012-01-12T08:55:27Z</time>
      </trkpt>
      <trkpt lat="47.26775" lon="-1.62345">
        <ele>12.6</ele>
        <time>2012-01-12T08:55:29Z</time>
      </trkpt>
      <trkpt lat="47.26772" lon="-1.62341">
        <ele>12.3</ele>
        <time>2012-01-12T08:55:32Z</time>
      </trkpt>
      <trkpt lat="47.26771" lon="-1.62336">
        <ele>11.1</ele>
        <time>2012-01-12T08:55:37Z</time>
      </trkpt>
      <trkpt lat="47.2677" lon="-1.6233">
        <ele>11.1</ele>
        <time>2012-01-12T08:55:42Z</time>
      </trkpt>
      <trkpt lat="47.26768" lon="-1.62324">
        <ele>10.8</ele>
        <time>2012-01-12T08:55:47Z</time>
      </trkpt>
      <trkpt lat="47.26767" lon="-1.62324">
        <ele>11</ele>
        <time>2012-01-12T08:55:48Z</time>
      </trkpt>
      <trkpt lat="47.26761" lon="-1.62318">
        <ele>10.1</ele>
        <time>2012-01-12T08:55:57Z</time>
      </trkpt>
      <trkpt lat="47.26761" lon="-1.62312">
        <ele>10.8</ele>
        <time>2012-01-12T08:56:02Z</time>
      </trkpt>
      <trkpt lat="47.2676" lon="-1.62306">
        <ele>10.3</ele>
        <time>2012-01-12T08:56:06Z</time>
      </trkpt>
      <trkpt lat="47.2676" lon="-1.62301">
        <ele>10.1</ele>
        <time>2012-01-12T08:56:10Z</time>
      </trkpt>
      <trkpt lat="47.2676" lon="-1.62295">
        <ele>10.3</ele>
        <time>2012-01-12T08:56:13Z</time>
      </trkpt>
      <trkpt lat="47.26763" lon="-1.62291">
        <ele>10.5</ele>
        <time>2012-01-12T08:56:16Z</time>
      </trkpt>
      <trkpt lat="47.26765" lon="-1.62286">
        <ele>10.3</ele>
        <time>2012-01-12T08:56:19Z</time>
      </trkpt>
      <trkpt lat="47.26767" lon="-1.6228">
        <ele>10.5</ele>
        <time>2012-01-12T08:56:22Z</time>
      </trkpt>
      <trkpt lat="47.26768" lon="-1.62274">
        <ele>11.1</ele>
        <time>2012-01-12T08:56:25Z</time>
      </trkpt>
      <trkpt lat="47.26769" lon="-1.6227">
        <ele>11</ele>
        <time>2012-01-12T08:56:28Z</time>
      </trkpt>
      <trkpt lat="47.26769" lon="-1.62263">
        <ele>11</ele>
        <time>2012-01-12T08:56:33Z</time>
      </trkpt>
      <trkpt lat="47.26766" lon="-1.62259">
        <ele>11.6</ele>
        <time>2012-01-12T08:56:38Z</time>
      </trkpt>
      <trkpt lat="47.26763" lon="-1.62256">
        <ele>11.6</ele>
        <time>2012-01-12T08:56:41Z</time>
      </trkpt>
      <trkpt lat="47.26761" lon="-1.62251">
        <ele>11.3</ele>
        <time>2012-01-12T08:56:44Z</time>
      </trkpt>
      <trkpt lat="47.2676" lon="-1.62246">
        <ele>11.1</ele>
        <time>2012-01-12T08:56:47Z</time>
      </trkpt>
      <trkpt lat="47.26759" lon="-1.6224">
        <ele>10.6</ele>
        <time>2012-01-12T08:56:50Z</time>
      </trkpt>
      <trkpt lat="47.26758" lon="-1.62239">
        <ele>10.6</ele>
        <time>2012-01-12T08:56:51Z</time>
      </trkpt>
      <trkpt lat="47.26757" lon="-1.6223">
        <ele>11.1</ele>
        <time>2012-01-12T08:56:56Z</time>
      </trkpt>
      <trkpt lat="47.26756" lon="-1.62225">
        <ele>11.1</ele>
        <time>2012-01-12T08:56:59Z</time>
      </trkpt>
      <trkpt lat="47.26755" lon="-1.6222">
        <ele>11.1</ele>
        <time>2012-01-12T08:57:02Z</time>
      </trkpt>
      <trkpt lat="47.26755" lon="-1.62214">
        <ele>10.8</ele>
        <time>2012-01-12T08:57:06Z</time>
      </trkpt>
      <trkpt lat="47.26755" lon="-1.62208">
        <ele>11</ele>
        <time>2012-01-12T08:57:09Z</time>
      </trkpt>
      <trkpt lat="47.26755" lon="-1.62203">
        <ele>11.1</ele>
        <time>2012-01-12T08:57:12Z</time>
      </trkpt>
      <trkpt lat="47.26756" lon="-1.62198">
        <ele>11</ele>
        <time>2012-01-12T08:57:15Z</time>
      </trkpt>
      <trkpt lat="47.26756" lon="-1.62193">
        <ele>10.8</ele>
        <time>2012-01-12T08:57:18Z</time>
      </trkpt>
      <trkpt lat="47.26757" lon="-1.62187">
        <ele>10.8</ele>
        <time>2012-01-12T08:57:21Z</time>
      </trkpt>
      <trkpt lat="47.26757" lon="-1.62181">
        <ele>10.8</ele>
        <time>2012-01-12T08:57:24Z</time>
      </trkpt>
      <trkpt lat="47.26756" lon="-1.62175">
        <ele>10.8</ele>
        <time>2012-01-12T08:57:27Z</time>
      </trkpt>
      <trkpt lat="47.26756" lon="-1.62168">
        <ele>11.1</ele>
        <time>2012-01-12T08:57:30Z</time>
      </trkpt>
      <trkpt lat="47.26756" lon="-1.62164">
        <ele>11.5</ele>
        <time>2012-01-12T08:57:32Z</time>
      </trkpt>
      <trkpt lat="47.26756" lon="-1.62158">
        <ele>11.1</ele>
        <time>2012-01-12T08:57:35Z</time>
      </trkpt>
      <trkpt lat="47.26755" lon="-1.62151">
        <ele>10.6</ele>
        <time>2012-01-12T08:57:38Z</time>
      </trkpt>
      <trkpt lat="47.26755" lon="-1.62146">
        <ele>10.6</ele>
        <time>2012-01-12T08:57:40Z</time>
      </trkpt>
      <trkpt lat="47.26754" lon="-1.62142">
        <ele>10.8</ele>
        <time>2012-01-12T08:57:42Z</time>
      </trkpt>
      <trkpt lat="47.26753" lon="-1.62137">
        <ele>10.8</ele>
        <time>2012-01-12T08:57:44Z</time>
      </trkpt>
      <trkpt lat="47.26753" lon="-1.62132">
        <ele>10.6</ele>
        <time>2012-01-12T08:57:46Z</time>
      </trkpt>
      <trkpt lat="47.26752" lon="-1.62126">
        <ele>10.1</ele>
        <time>2012-01-12T08:57:49Z</time>
      </trkpt>
      <trkpt lat="47.26751" lon="-1.6212">
        <ele>10.3</ele>
        <time>2012-01-12T08:57:52Z</time>
      </trkpt>
      <trkpt lat="47.26751" lon="-1.62117">
        <ele>10.5</ele>
        <time>2012-01-12T08:57:53Z</time>
      </trkpt>
      <trkpt lat="47.26751" lon="-1.62111">
        <ele>10.6</ele>
        <time>2012-01-12T08:57:56Z</time>
      </trkpt>
      <trkpt lat="47.26751" lon="-1.62106">
        <ele>10.6</ele>
        <time>2012-01-12T08:57:58Z</time>
      </trkpt>
      <trkpt lat="47.2675" lon="-1.62102">
        <ele>10.6</ele>
        <time>2012-01-12T08:58:00Z</time>
      </trkpt>
      <trkpt lat="47.2675" lon="-1.62097">
        <ele>10.5</ele>
        <time>2012-01-12T08:58:02Z</time>
      </trkpt>
      <trkpt lat="47.2675" lon="-1.62091">
        <ele>10.3</ele>
        <time>2012-01-12T08:58:04Z</time>
      </trkpt>
      <trkpt lat="47.2675" lon="-1.62087">
        <ele>10.5</ele>
        <time>2012-01-12T08:58:06Z</time>
      </trkpt>
      <trkpt lat="47.26749" lon="-1.62082">
        <ele>10.6</ele>
        <time>2012-01-12T08:58:08Z</time>
      </trkpt>
      <trkpt lat="47.26748" lon="-1.62077">
        <ele>10.8</ele>
        <time>2012-01-12T08:58:10Z</time>
      </trkpt>
      <trkpt lat="47.26746" lon="-1.62073">
        <ele>10.8</ele>
        <time>2012-01-12T08:58:12Z</time>
      </trkpt>
      <trkpt lat="47.26745" lon="-1.62068">
        <ele>10.5</ele>
        <time>2012-01-12T08:58:14Z</time>
      </trkpt>
      <trkpt lat="47.26744" lon="-1.62064">
        <ele>10.6</ele>
        <time>2012-01-12T08:58:16Z</time>
      </trkpt>
      <trkpt lat="47.26743" lon="-1.62059">
        <ele>10.8</ele>
        <time>2012-01-12T08:58:18Z</time>
      </trkpt>
      <trkpt lat="47.26742" lon="-1.62054">
        <ele>11.1</ele>
        <time>2012-01-12T08:58:20Z</time>
      </trkpt>
      <trkpt lat="47.26742" lon="-1.6205">
        <ele>11</ele>
        <time>2012-01-12T08:58:22Z</time>
      </trkpt>
      <trkpt lat="47.26742" lon="-1.62044">
        <ele>10.8</ele>
        <time>2012-01-12T08:58:24Z</time>
      </trkpt>
      <trkpt lat="47.26742" lon="-1.6204">
        <ele>11.1</ele>
        <time>2012-01-12T08:58:26Z</time>
      </trkpt>
      <trkpt lat="47.26742" lon="-1.62035">
        <ele>11.1</ele>
        <time>2012-01-12T08:58:28Z</time>
      </trkpt>
      <trkpt lat="47.26743" lon="-1.6203">
        <ele>11</ele>
        <time>2012-01-12T08:58:30Z</time>
      </trkpt>
      <trkpt lat="47.26743" lon="-1.62024">
        <ele>10.5</ele>
        <time>2012-01-12T08:58:33Z</time>
      </trkpt>
      <trkpt lat="47.26742" lon="-1.6202">
        <ele>10.5</ele>
        <time>2012-01-12T08:58:35Z</time>
      </trkpt>
      <trkpt lat="47.26743" lon="-1.62014">
        <ele>10.6</ele>
        <time>2012-01-12T08:58:38Z</time>
      </trkpt>
      <trkpt lat="47.26743" lon="-1.62009">
        <ele>10.6</ele>
        <time>2012-01-12T08:58:40Z</time>
      </trkpt>
      <trkpt lat="47.26743" lon="-1.62005">
        <ele>10.1</ele>
        <time>2012-01-12T08:58:42Z</time>
      </trkpt>
      <trkpt lat="47.26742" lon="-1.62">
        <ele>10.1</ele>
        <time>2012-01-12T08:58:44Z</time>
      </trkpt>
      <trkpt lat="47.26743" lon="-1.61996">
        <ele>10.5</ele>
        <time>2012-01-12T08:58:46Z</time>
      </trkpt>
      <trkpt lat="47.26743" lon="-1.61991">
        <ele>10.6</ele>
        <time>2012-01-12T08:58:48Z</time>
      </trkpt>
      <trkpt lat="47.26742" lon="-1.61986">
        <ele>10.6</ele>
        <time>2012-01-12T08:58:50Z</time>
      </trkpt>
      <trkpt lat="47.26742" lon="-1.61979">
        <ele>10.8</ele>
        <time>2012-01-12T08:58:53Z</time>
      </trkpt>
      <trkpt lat="47.26742" lon="-1.61977">
        <ele>10.8</ele>
        <time>2012-01-12T08:58:54Z</time>
      </trkpt>
      <trkpt lat="47.26743" lon="-1.61968">
        <ele>11</ele>
        <time>2012-01-12T08:58:58Z</time>
      </trkpt>
      <trkpt lat="47.26742" lon="-1.61963">
        <ele>10.5</ele>
        <time>2012-01-12T08:59:01Z</time>
      </trkpt>
      <trkpt lat="47.26742" lon="-1.61957">
        <ele>10.8</ele>
        <time>2012-01-12T08:59:04Z</time>
      </trkpt>
      <trkpt lat="47.26743" lon="-1.6195">
        <ele>10.6</ele>
        <time>2012-01-12T08:59:07Z</time>
      </trkpt>
      <trkpt lat="47.26743" lon="-1.61944">
        <ele>10.3</ele>
        <time>2012-01-12T08:59:10Z</time>
      </trkpt>
      <trkpt lat="47.26744" lon="-1.6194">
        <ele>10.1</ele>
        <time>2012-01-12T08:59:12Z</time>
      </trkpt>
      <trkpt lat="47.26744" lon="-1.61933">
        <ele>10.1</ele>
        <time>2012-01-12T08:59:15Z</time>
      </trkpt>
      <trkpt lat="47.26744" lon="-1.61928">
        <ele>10.1</ele>
        <time>2012-01-12T08:59:17Z</time>
      </trkpt>
      <trkpt lat="47.26744" lon="-1.61924">
        <ele>10</ele>
        <time>2012-01-12T08:59:19Z</time>
      </trkpt>
      <trkpt lat="47.26744" lon="-1.61919">
        <ele>9.6</ele>
        <time>2012-01-12T08:59:21Z</time>
      </trkpt>
      <trkpt lat="47.26744" lon="-1.61914">
        <ele>10.1</ele>
        <time>2012-01-12T08:59:23Z</time>
      </trkpt>
      <trkpt lat="47.26744" lon="-1.61908">
        <ele>10.1</ele>
        <time>2012-01-12T08:59:26Z</time>
      </trkpt>
      <trkpt lat="47.26745" lon="-1.61902">
        <ele>10.1</ele>
        <time>2012-01-12T08:59:29Z</time>
      </trkpt>
      <trkpt lat="47.26746" lon="-1.61896">
        <ele>10.1</ele>
        <time>2012-01-12T08:59:32Z</time>
      </trkpt>
      <trkpt lat="47.26748" lon="-1.61892">
        <ele>10.1</ele>
        <time>2012-01-12T08:59:34Z</time>
      </trkpt>
      <trkpt lat="47.26749" lon="-1.61887">
        <ele>10.1</ele>
        <time>2012-01-12T08:59:36Z</time>
      </trkpt>
      <trkpt lat="47.26752" lon="-1.61883">
        <ele>10</ele>
        <time>2012-01-12T08:59:39Z</time>
      </trkpt>
      <trkpt lat="47.26755" lon="-1.61878">
        <ele>9.8</ele>
        <time>2012-01-12T08:59:42Z</time>
      </trkpt>
      <trkpt lat="47.26757" lon="-1.61874">
        <ele>9.8</ele>
        <time>2012-01-12T08:59:45Z</time>
      </trkpt>
      <trkpt lat="47.26757" lon="-1.61869">
        <ele>9.8</ele>
        <time>2012-01-12T08:59:47Z</time>
      </trkpt>
      <trkpt lat="47.26756" lon="-1.61862">
        <ele>9.6</ele>
        <time>2012-01-12T08:59:50Z</time>
      </trkpt>
      <trkpt lat="47.26755" lon="-1.61858">
        <ele>9.5</ele>
        <time>2012-01-12T08:59:52Z</time>
      </trkpt>
      <trkpt lat="47.26754" lon="-1.61853">
        <ele>9.6</ele>
        <time>2012-01-12T08:59:54Z</time>
      </trkpt>
      <trkpt lat="47.26753" lon="-1.61851">
        <ele>9.6</ele>
        <time>2012-01-12T08:59:55Z</time>
      </trkpt>
      <trkpt lat="47.2675" lon="-1.61845">
        <ele>10</ele>
        <time>2012-01-12T08:59:58Z</time>
      </trkpt>
      <trkpt lat="47.26747" lon="-1.61842">
        <ele>9.8</ele>
        <time>2012-01-12T09:00:00Z</time>
      </trkpt>
      <trkpt lat="47.26745" lon="-1.61839">
        <ele>9.8</ele>
        <time>2012-01-12T09:00:02Z</time>
      </trkpt>
      <trkpt lat="47.26742" lon="-1.61836">
        <ele>9.8</ele>
        <time>2012-01-12T09:00:04Z</time>
      </trkpt>
      <trkpt lat="47.26738" lon="-1.61833">
        <ele>9.8</ele>
        <time>2012-01-12T09:00:07Z</time>
      </trkpt>
      <trkpt lat="47.26736" lon="-1.61829">
        <ele>9.6</ele>
        <time>2012-01-12T09:00:09Z</time>
      </trkpt>
      <trkpt lat="47.26732" lon="-1.61826">
        <ele>10.1</ele>
        <time>2012-01-12T09:00:12Z</time>
      </trkpt>
      <trkpt lat="47.26729" lon="-1.61823">
        <ele>10.1</ele>
        <time>2012-01-12T09:00:14Z</time>
      </trkpt>
      <trkpt lat="47.26727" lon="-1.61821">
        <ele>10</ele>
        <time>2012-01-12T09:00:16Z</time>
      </trkpt>
      <trkpt lat="47.26723" lon="-1.61817">
        <ele>9.5</ele>
        <time>2012-01-12T09:00:19Z</time>
      </trkpt>
      <trkpt lat="47.2672" lon="-1.61815">
        <ele>9.3</ele>
        <time>2012-01-12T09:00:21Z</time>
      </trkpt>
      <trkpt lat="47.26717" lon="-1.61812">
        <ele>9.6</ele>
        <time>2012-01-12T09:00:24Z</time>
      </trkpt>
      <trkpt lat="47.26714" lon="-1.61808">
        <ele>10</ele>
        <time>2012-01-12T09:00:27Z</time>
      </trkpt>
      <trkpt lat="47.2671" lon="-1.61805">
        <ele>9.8</ele>
        <time>2012-01-12T09:00:30Z</time>
      </trkpt>
      <trkpt lat="47.26706" lon="-1.61802">
        <ele>9.3</ele>
        <time>2012-01-12T09:00:33Z</time>
      </trkpt>
      <trkpt lat="47.26702" lon="-1.61799">
        <ele>9.1</ele>
        <time>2012-01-12T09:00:36Z</time>
      </trkpt>
      <trkpt lat="47.26698" lon="-1.61797">
        <ele>9.5</ele>
        <time>2012-01-12T09:00:39Z</time>
      </trkpt>
      <trkpt lat="47.26695" lon="-1.61795">
        <ele>9.6</ele>
        <time>2012-01-12T09:00:42Z</time>
      </trkpt>
      <trkpt lat="47.26692" lon="-1.61793">
        <ele>9.3</ele>
        <time>2012-01-12T09:00:45Z</time>
      </trkpt>
      <trkpt lat="47.26687" lon="-1.61791">
        <ele>8.8</ele>
        <time>2012-01-12T09:00:48Z</time>
      </trkpt>
      <trkpt lat="47.26684" lon="-1.6179">
        <ele>9.1</ele>
        <time>2012-01-12T09:00:51Z</time>
      </trkpt>
      <trkpt lat="47.26681" lon="-1.61789">
        <ele>9.3</ele>
        <time>2012-01-12T09:00:53Z</time>
      </trkpt>
      <trkpt lat="47.26678" lon="-1.61789">
        <ele>9.3</ele>
        <time>2012-01-12T09:00:55Z</time>
      </trkpt>
      <trkpt lat="47.26676" lon="-1.61789">
        <ele>9.3</ele>
        <time>2012-01-12T09:00:56Z</time>
      </trkpt>
      <trkpt lat="47.26671" lon="-1.61787">
        <ele>9.1</ele>
        <time>2012-01-12T09:00:59Z</time>
      </trkpt>
      <trkpt lat="47.26668" lon="-1.61786">
        <ele>9.3</ele>
        <time>2012-01-12T09:01:01Z</time>
      </trkpt>
      <trkpt lat="47.26665" lon="-1.61784">
        <ele>9.6</ele>
        <time>2012-01-12T09:01:03Z</time>
      </trkpt>
      <trkpt lat="47.26661" lon="-1.61782">
        <ele>9</ele>
        <time>2012-01-12T09:01:05Z</time>
      </trkpt>
      <trkpt lat="47.26658" lon="-1.61781">
        <ele>9.1</ele>
        <time>2012-01-12T09:01:07Z</time>
      </trkpt>
      <trkpt lat="47.26655" lon="-1.6178">
        <ele>9.6</ele>
        <time>2012-01-12T09:01:09Z</time>
      </trkpt>
      <trkpt lat="47.26651" lon="-1.61779">
        <ele>9.6</ele>
        <time>2012-01-12T09:01:11Z</time>
      </trkpt>
      <trkpt lat="47.26648" lon="-1.61778">
        <ele>9.6</ele>
        <time>2012-01-12T09:01:13Z</time>
      </trkpt>
      <trkpt lat="47.26645" lon="-1.61776">
        <ele>9.8</ele>
        <time>2012-01-12T09:01:15Z</time>
      </trkpt>
      <trkpt lat="47.26641" lon="-1.61774">
        <ele>9.8</ele>
        <time>2012-01-12T09:01:18Z</time>
      </trkpt>
      <trkpt lat="47.26638" lon="-1.61772">
        <ele>9.8</ele>
        <time>2012-01-12T09:01:20Z</time>
      </trkpt>
      <trkpt lat="47.26634" lon="-1.6177">
        <ele>9.6</ele>
        <time>2012-01-12T09:01:22Z</time>
      </trkpt>
      <trkpt lat="47.26631" lon="-1.61768">
        <ele>9.6</ele>
        <time>2012-01-12T09:01:24Z</time>
      </trkpt>
      <trkpt lat="47.26628" lon="-1.61766">
        <ele>9.6</ele>
        <time>2012-01-12T09:01:26Z</time>
      </trkpt>
      <trkpt lat="47.26624" lon="-1.61765">
        <ele>10.1</ele>
        <time>2012-01-12T09:01:29Z</time>
      </trkpt>
      <trkpt lat="47.2662" lon="-1.61762">
        <ele>10</ele>
        <time>2012-01-12T09:01:32Z</time>
      </trkpt>
      <trkpt lat="47.26616" lon="-1.61759">
        <ele>9.8</ele>
        <time>2012-01-12T09:01:35Z</time>
      </trkpt>
      <trkpt lat="47.26612" lon="-1.61757">
        <ele>9.6</ele>
        <time>2012-01-12T09:01:39Z</time>
      </trkpt>
      <trkpt lat="47.26608" lon="-1.61755">
        <ele>9.8</ele>
        <time>2012-01-12T09:01:42Z</time>
      </trkpt>
      <trkpt lat="47.26605" lon="-1.61753">
        <ele>9.1</ele>
        <time>2012-01-12T09:01:46Z</time>
      </trkpt>
      <trkpt lat="47.26602" lon="-1.6175">
        <ele>9.3</ele>
        <time>2012-01-12T09:01:49Z</time>
      </trkpt>
      <trkpt lat="47.26598" lon="-1.61748">
        <ele>9.3</ele>
        <time>2012-01-12T09:01:52Z</time>
      </trkpt>
      <trkpt lat="47.26595" lon="-1.61745">
        <ele>9.1</ele>
        <time>2012-01-12T09:01:55Z</time>
      </trkpt>
      <trkpt lat="47.26592" lon="-1.61742">
        <ele>8.6</ele>
        <time>2012-01-12T09:01:58Z</time>
      </trkpt>
      <trkpt lat="47.26591" lon="-1.61741">
        <ele>8.8</ele>
        <time>2012-01-12T09:01:59Z</time>
      </trkpt>
      <trkpt lat="47.26586" lon="-1.61733">
        <ele>9.1</ele>
        <time>2012-01-12T09:02:04Z</time>
      </trkpt>
      <trkpt lat="47.26584" lon="-1.61729">
        <ele>9.5</ele>
        <time>2012-01-12T09:02:07Z</time>
      </trkpt>
      <trkpt lat="47.26582" lon="-1.61725">
        <ele>9.1</ele>
        <time>2012-01-12T09:02:09Z</time>
      </trkpt>
      <trkpt lat="47.2658" lon="-1.6172">
        <ele>9.1</ele>
        <time>2012-01-12T09:02:12Z</time>
      </trkpt>
      <trkpt lat="47.26578" lon="-1.61716">
        <ele>9.3</ele>
        <time>2012-01-12T09:02:15Z</time>
      </trkpt>
      <trkpt lat="47.26577" lon="-1.61709">
        <ele>9.6</ele>
        <time>2012-01-12T09:02:19Z</time>
      </trkpt>
      <trkpt lat="47.26576" lon="-1.61705">
        <ele>9.3</ele>
        <time>2012-01-12T09:02:23Z</time>
      </trkpt>
      <trkpt lat="47.26574" lon="-1.617">
        <ele>9.3</ele>
        <time>2012-01-12T09:02:26Z</time>
      </trkpt>
      <trkpt lat="47.26572" lon="-1.61694">
        <ele>9.3</ele>
        <time>2012-01-12T09:02:29Z</time>
      </trkpt>
      <trkpt lat="47.26569" lon="-1.61691">
        <ele>9.1</ele>
        <time>2012-01-12T09:02:31Z</time>
      </trkpt>
      <trkpt lat="47.26567" lon="-1.61687">
        <ele>9.1</ele>
        <time>2012-01-12T09:02:33Z</time>
      </trkpt>
      <trkpt lat="47.26564" lon="-1.61683">
        <ele>9.3</ele>
        <time>2012-01-12T09:02:35Z</time>
      </trkpt>
      <trkpt lat="47.26562" lon="-1.6168">
        <ele>9.5</ele>
        <time>2012-01-12T09:02:37Z</time>
      </trkpt>
      <trkpt lat="47.26559" lon="-1.61675">
        <ele>9.3</ele>
        <time>2012-01-12T09:02:40Z</time>
      </trkpt>
      <trkpt lat="47.26557" lon="-1.6167">
        <ele>9.3</ele>
        <time>2012-01-12T09:02:42Z</time>
      </trkpt>
      <trkpt lat="47.26555" lon="-1.61666">
        <ele>9.1</ele>
        <time>2012-01-12T09:02:44Z</time>
      </trkpt>
      <trkpt lat="47.26552" lon="-1.61662">
        <ele>9.1</ele>
        <time>2012-01-12T09:02:46Z</time>
      </trkpt>
      <trkpt lat="47.2655" lon="-1.61659">
        <ele>9.3</ele>
        <time>2012-01-12T09:02:48Z</time>
      </trkpt>
      <trkpt lat="47.26548" lon="-1.61655">
        <ele>9.3</ele>
        <time>2012-01-12T09:02:50Z</time>
      </trkpt>
      <trkpt lat="47.26546" lon="-1.61651">
        <ele>9.3</ele>
        <time>2012-01-12T09:02:52Z</time>
      </trkpt>
      <trkpt lat="47.26544" lon="-1.61647">
        <ele>9.3</ele>
        <time>2012-01-12T09:02:54Z</time>
      </trkpt>
      <trkpt lat="47.26542" lon="-1.61642">
        <ele>9.5</ele>
        <time>2012-01-12T09:02:57Z</time>
      </trkpt>
      <trkpt lat="47.2654" lon="-1.61636">
        <ele>9.6</ele>
        <time>2012-01-12T09:03:00Z</time>
      </trkpt>
      <trkpt lat="47.2654" lon="-1.61635">
        <ele>9.6</ele>
        <time>2012-01-12T09:03:01Z</time>
      </trkpt>
      <trkpt lat="47.26537" lon="-1.61627">
        <ele>9.1</ele>
        <time>2012-01-12T09:03:06Z</time>
      </trkpt>
      <trkpt lat="47.26534" lon="-1.61621">
        <ele>9.1</ele>
        <time>2012-01-12T09:03:09Z</time>
      </trkpt>
      <trkpt lat="47.26533" lon="-1.61616">
        <ele>9.3</ele>
        <time>2012-01-12T09:03:11Z</time>
      </trkpt>
      <trkpt lat="47.26531" lon="-1.61612">
        <ele>9.3</ele>
        <time>2012-01-12T09:03:13Z</time>
      </trkpt>
      <trkpt lat="47.26527" lon="-1.61608">
        <ele>9.5</ele>
        <time>2012-01-12T09:03:16Z</time>
      </trkpt>
      <trkpt lat="47.26524" lon="-1.61605">
        <ele>9.3</ele>
        <time>2012-01-12T09:03:19Z</time>
      </trkpt>
      <trkpt lat="47.26521" lon="-1.61604">
        <ele>9.3</ele>
        <time>2012-01-12T09:03:22Z</time>
      </trkpt>
      <trkpt lat="47.26517" lon="-1.61601">
        <ele>9.1</ele>
        <time>2012-01-12T09:03:25Z</time>
      </trkpt>
      <trkpt lat="47.26513" lon="-1.61599">
        <ele>8.8</ele>
        <time>2012-01-12T09:03:28Z</time>
      </trkpt>
      <trkpt lat="47.26509" lon="-1.61597">
        <ele>9</ele>
        <time>2012-01-12T09:03:31Z</time>
      </trkpt>
      <trkpt lat="47.26505" lon="-1.61595">
        <ele>9.1</ele>
        <time>2012-01-12T09:03:34Z</time>
      </trkpt>
      <trkpt lat="47.26502" lon="-1.61593">
        <ele>9.1</ele>
        <time>2012-01-12T09:03:36Z</time>
      </trkpt>
      <trkpt lat="47.26499" lon="-1.61591">
        <ele>9.3</ele>
        <time>2012-01-12T09:03:38Z</time>
      </trkpt>
      <trkpt lat="47.26496" lon="-1.6159">
        <ele>9.6</ele>
        <time>2012-01-12T09:03:40Z</time>
      </trkpt>
      <trkpt lat="47.26492" lon="-1.61588">
        <ele>9.6</ele>
        <time>2012-01-12T09:03:43Z</time>
      </trkpt>
      <trkpt lat="47.26489" lon="-1.61586">
        <ele>8.8</ele>
        <time>2012-01-12T09:03:46Z</time>
      </trkpt>
      <trkpt lat="47.26486" lon="-1.61584">
        <ele>9.1</ele>
        <time>2012-01-12T09:03:48Z</time>
      </trkpt>
      <trkpt lat="47.26483" lon="-1.61584">
        <ele>9.1</ele>
        <time>2012-01-12T09:03:50Z</time>
      </trkpt>
      <trkpt lat="47.26479" lon="-1.61583">
        <ele>8.8</ele>
        <time>2012-01-12T09:03:52Z</time>
      </trkpt>
      <trkpt lat="47.26476" lon="-1.61582">
        <ele>8.8</ele>
        <time>2012-01-12T09:03:54Z</time>
      </trkpt>
      <trkpt lat="47.26473" lon="-1.61581">
        <ele>8.6</ele>
        <time>2012-01-12T09:03:56Z</time>
      </trkpt>
      <trkpt lat="47.26469" lon="-1.61579">
        <ele>9.1</ele>
        <time>2012-01-12T09:03:59Z</time>
      </trkpt>
      <trkpt lat="47.26464" lon="-1.61577">
        <ele>9.1</ele>
        <time>2012-01-12T09:04:02Z</time>
      </trkpt>
      <trkpt lat="47.26463" lon="-1.61576">
        <ele>9.1</ele>
        <time>2012-01-12T09:04:03Z</time>
      </trkpt>
      <trkpt lat="47.26457" lon="-1.61571">
        <ele>9.1</ele>
        <time>2012-01-12T09:04:08Z</time>
      </trkpt>
      <trkpt lat="47.26455" lon="-1.61569">
        <ele>9.5</ele>
        <time>2012-01-12T09:04:10Z</time>
      </trkpt>
      <trkpt lat="47.26451" lon="-1.61567">
        <ele>9.6</ele>
        <time>2012-01-12T09:04:12Z</time>
      </trkpt>
      <trkpt lat="47.26448" lon="-1.61564">
        <ele>9.6</ele>
        <time>2012-01-12T09:04:14Z</time>
      </trkpt>
      <trkpt lat="47.26446" lon="-1.61561">
        <ele>9.8</ele>
        <time>2012-01-12T09:04:16Z</time>
      </trkpt>
      <trkpt lat="47.26443" lon="-1.61558">
        <ele>9.8</ele>
        <time>2012-01-12T09:04:18Z</time>
      </trkpt>
      <trkpt lat="47.2644" lon="-1.61554">
        <ele>10.1</ele>
        <time>2012-01-12T09:04:21Z</time>
      </trkpt>
      <trkpt lat="47.26437" lon="-1.6155">
        <ele>9.8</ele>
        <time>2012-01-12T09:04:24Z</time>
      </trkpt>
      <trkpt lat="47.26434" lon="-1.61546">
        <ele>9.8</ele>
        <time>2012-01-12T09:04:26Z</time>
      </trkpt>
      <trkpt lat="47.26432" lon="-1.61543">
        <ele>9.6</ele>
        <time>2012-01-12T09:04:28Z</time>
      </trkpt>
      <trkpt lat="47.26429" lon="-1.61539">
        <ele>9.6</ele>
        <time>2012-01-12T09:04:30Z</time>
      </trkpt>
      <trkpt lat="47.26427" lon="-1.61535">
        <ele>9.6</ele>
        <time>2012-01-12T09:04:32Z</time>
      </trkpt>
      <trkpt lat="47.26425" lon="-1.61532">
        <ele>9.6</ele>
        <time>2012-01-12T09:04:34Z</time>
      </trkpt>
      <trkpt lat="47.26422" lon="-1.61529">
        <ele>9.8</ele>
        <time>2012-01-12T09:04:36Z</time>
      </trkpt>
      <trkpt lat="47.26419" lon="-1.61526">
        <ele>9.3</ele>
        <time>2012-01-12T09:04:39Z</time>
      </trkpt>
      <trkpt lat="47.26415" lon="-1.61523">
        <ele>9.5</ele>
        <time>2012-01-12T09:04:42Z</time>
      </trkpt>
      <trkpt lat="47.26412" lon="-1.6152">
        <ele>9.3</ele>
        <time>2012-01-12T09:04:45Z</time>
      </trkpt>
      <trkpt lat="47.26409" lon="-1.61517">
        <ele>9</ele>
        <time>2012-01-12T09:04:48Z</time>
      </trkpt>
      <trkpt lat="47.26406" lon="-1.61514">
        <ele>8.8</ele>
        <time>2012-01-12T09:04:51Z</time>
      </trkpt>
      <trkpt lat="47.26403" lon="-1.6151">
        <ele>9.1</ele>
        <time>2012-01-12T09:04:55Z</time>
      </trkpt>
      <trkpt lat="47.264" lon="-1.61508">
        <ele>8.6</ele>
        <time>2012-01-12T09:04:58Z</time>
      </trkpt>
      <trkpt lat="47.26396" lon="-1.61504">
        <ele>8.8</ele>
        <time>2012-01-12T09:05:01Z</time>
      </trkpt>
      <trkpt lat="47.26393" lon="-1.615">
        <ele>9.1</ele>
        <time>2012-01-12T09:05:04Z</time>
      </trkpt>
      <trkpt lat="47.26392" lon="-1.61498">
        <ele>9.1</ele>
        <time>2012-01-12T09:05:05Z</time>
      </trkpt>
      <trkpt lat="47.26388" lon="-1.61491">
        <ele>8.8</ele>
        <time>2012-01-12T09:05:09Z</time>
      </trkpt>
      <trkpt lat="47.26386" lon="-1.61487">
        <ele>9.3</ele>
        <time>2012-01-12T09:05:12Z</time>
      </trkpt>
      <trkpt lat="47.26383" lon="-1.61483">
        <ele>8.5</ele>
        <time>2012-01-12T09:05:14Z</time>
      </trkpt>
      <trkpt lat="47.26381" lon="-1.61478">
        <ele>8.5</ele>
        <time>2012-01-12T09:05:16Z</time>
      </trkpt>
      <trkpt lat="47.26378" lon="-1.61473">
        <ele>8.6</ele>
        <time>2012-01-12T09:05:18Z</time>
      </trkpt>
      <trkpt lat="47.26376" lon="-1.61469">
        <ele>8.8</ele>
        <time>2012-01-12T09:05:20Z</time>
      </trkpt>
      <trkpt lat="47.26374" lon="-1.61465">
        <ele>8.8</ele>
        <time>2012-01-12T09:05:22Z</time>
      </trkpt>
      <trkpt lat="47.26372" lon="-1.61461">
        <ele>9.3</ele>
        <time>2012-01-12T09:05:24Z</time>
      </trkpt>
      <trkpt lat="47.2637" lon="-1.61455">
        <ele>9.5</ele>
        <time>2012-01-12T09:05:27Z</time>
      </trkpt>
      <trkpt lat="47.26368" lon="-1.6145">
        <ele>9.3</ele>
        <time>2012-01-12T09:05:30Z</time>
      </trkpt>
      <trkpt lat="47.26365" lon="-1.61446">
        <ele>9.3</ele>
        <time>2012-01-12T09:05:32Z</time>
      </trkpt>
      <trkpt lat="47.26363" lon="-1.61441">
        <ele>9.3</ele>
        <time>2012-01-12T09:05:35Z</time>
      </trkpt>
      <trkpt lat="47.26362" lon="-1.61435">
        <ele>9.6</ele>
        <time>2012-01-12T09:05:38Z</time>
      </trkpt>
      <trkpt lat="47.26361" lon="-1.61431">
        <ele>10</ele>
        <time>2012-01-12T09:05:40Z</time>
      </trkpt>
      <trkpt lat="47.2636" lon="-1.61424">
        <ele>9.8</ele>
        <time>2012-01-12T09:05:43Z</time>
      </trkpt>
      <trkpt lat="47.26361" lon="-1.61418">
        <ele>9.3</ele>
        <time>2012-01-12T09:05:46Z</time>
      </trkpt>
      <trkpt lat="47.26361" lon="-1.61413">
        <ele>9.1</ele>
        <time>2012-01-12T09:05:48Z</time>
      </trkpt>
      <trkpt lat="47.26362" lon="-1.61406">
        <ele>9</ele>
        <time>2012-01-12T09:05:51Z</time>
      </trkpt>
      <trkpt lat="47.26363" lon="-1.61402">
        <ele>8.8</ele>
        <time>2012-01-12T09:05:53Z</time>
      </trkpt>
      <trkpt lat="47.26363" lon="-1.61395">
        <ele>8.8</ele>
        <time>2012-01-12T09:05:56Z</time>
      </trkpt>
      <trkpt lat="47.26363" lon="-1.61389">
        <ele>8.8</ele>
        <time>2012-01-12T09:05:59Z</time>
      </trkpt>
      <trkpt lat="47.26364" lon="-1.61383">
        <ele>8.8</ele>
        <time>2012-01-12T09:06:02Z</time>
      </trkpt>
      <trkpt lat="47.26365" lon="-1.61377">
        <ele>9.1</ele>
        <time>2012-01-12T09:06:05Z</time>
      </trkpt>
      <trkpt lat="47.26366" lon="-1.61375">
        <ele>9.1</ele>
        <time>2012-01-12T09:06:06Z</time>
      </trkpt>
      <trkpt lat="47.26368" lon="-1.61368">
        <ele>8.6</ele>
        <time>2012-01-12T09:06:09Z</time>
      </trkpt>
      <trkpt lat="47.26369" lon="-1.61364">
        <ele>8.6</ele>
        <time>2012-01-12T09:06:11Z</time>
      </trkpt>
      <trkpt lat="47.2637" lon="-1.61359">
        <ele>8.5</ele>
        <time>2012-01-12T09:06:13Z</time>
      </trkpt>
      <trkpt lat="47.2637" lon="-1.61355">
        <ele>9.3</ele>
        <time>2012-01-12T09:06:15Z</time>
      </trkpt>
      <trkpt lat="47.2637" lon="-1.6135">
        <ele>9.5</ele>
        <time>2012-01-12T09:06:17Z</time>
      </trkpt>
      <trkpt lat="47.26371" lon="-1.61345">
        <ele>9.1</ele>
        <time>2012-01-12T09:06:19Z</time>
      </trkpt>
      <trkpt lat="47.26372" lon="-1.61341">
        <ele>9.1</ele>
        <time>2012-01-12T09:06:21Z</time>
      </trkpt>
      <trkpt lat="47.26373" lon="-1.61336">
        <ele>9.1</ele>
        <time>2012-01-12T09:06:23Z</time>
      </trkpt>
      <trkpt lat="47.26374" lon="-1.61332">
        <ele>9.1</ele>
        <time>2012-01-12T09:06:25Z</time>
      </trkpt>
      <trkpt lat="47.26375" lon="-1.61328">
        <ele>9</ele>
        <time>2012-01-12T09:06:27Z</time>
      </trkpt>
      <trkpt lat="47.26375" lon="-1.61323">
        <ele>9</ele>
        <time>2012-01-12T09:06:29Z</time>
      </trkpt>
      <trkpt lat="47.26376" lon="-1.61319">
        <ele>9.3</ele>
        <time>2012-01-12T09:06:31Z</time>
      </trkpt>
      <trkpt lat="47.26377" lon="-1.61314">
        <ele>9.6</ele>
        <time>2012-01-12T09:06:33Z</time>
      </trkpt>
      <trkpt lat="47.26378" lon="-1.61309">
        <ele>9.8</ele>
        <time>2012-01-12T09:06:35Z</time>
      </trkpt>
      <trkpt lat="47.26379" lon="-1.61303">
        <ele>8.8</ele>
        <time>2012-01-12T09:06:38Z</time>
      </trkpt>
      <trkpt lat="47.2638" lon="-1.61299">
        <ele>9.3</ele>
        <time>2012-01-12T09:06:40Z</time>
      </trkpt>
      <trkpt lat="47.26381" lon="-1.61293">
        <ele>10.1</ele>
        <time>2012-01-12T09:06:43Z</time>
      </trkpt>
      <trkpt lat="47.26382" lon="-1.61288">
        <ele>10.3</ele>
        <time>2012-01-12T09:06:45Z</time>
      </trkpt>
      <trkpt lat="47.26383" lon="-1.61282">
        <ele>10.3</ele>
        <time>2012-01-12T09:06:48Z</time>
      </trkpt>
      <trkpt lat="47.26385" lon="-1.61277">
        <ele>10.3</ele>
        <time>2012-01-12T09:06:51Z</time>
      </trkpt>
      <trkpt lat="47.26387" lon="-1.61272">
        <ele>10.3</ele>
        <time>2012-01-12T09:06:54Z</time>
      </trkpt>
      <trkpt lat="47.26389" lon="-1.61267">
        <ele>10.3</ele>
        <time>2012-01-12T09:06:57Z</time>
      </trkpt>
      <trkpt lat="47.2639" lon="-1.61262">
        <ele>9.8</ele>
        <time>2012-01-12T09:07:00Z</time>
      </trkpt>
      <trkpt lat="47.26393" lon="-1.61258">
        <ele>9.3</ele>
        <time>2012-01-12T09:07:03Z</time>
      </trkpt>
      <trkpt lat="47.26396" lon="-1.61255">
        <ele>9.3</ele>
        <time>2012-01-12T09:07:06Z</time>
      </trkpt>
      <trkpt lat="47.26397" lon="-1.61254">
        <ele>9.3</ele>
        <time>2012-01-12T09:07:07Z</time>
      </trkpt>
      <trkpt lat="47.26403" lon="-1.61247">
        <ele>9</ele>
        <time>2012-01-12T09:07:12Z</time>
      </trkpt>
      <trkpt lat="47.26405" lon="-1.61244">
        <ele>8.6</ele>
        <time>2012-01-12T09:07:14Z</time>
      </trkpt>
      <trkpt lat="47.26408" lon="-1.6124">
        <ele>8</ele>
        <time>2012-01-12T09:07:17Z</time>
      </trkpt>
      <trkpt lat="47.26412" lon="-1.61236">
        <ele>8.3</ele>
        <time>2012-01-12T09:07:20Z</time>
      </trkpt>
      <trkpt lat="47.26414" lon="-1.61233">
        <ele>8.5</ele>
        <time>2012-01-12T09:07:22Z</time>
      </trkpt>
      <trkpt lat="47.26416" lon="-1.6123">
        <ele>8.6</ele>
        <time>2012-01-12T09:07:24Z</time>
      </trkpt>
      <trkpt lat="47.26419" lon="-1.61226">
        <ele>8.5</ele>
        <time>2012-01-12T09:07:27Z</time>
      </trkpt>
      <trkpt lat="47.26422" lon="-1.61222">
        <ele>8.6</ele>
        <time>2012-01-12T09:07:30Z</time>
      </trkpt>
      <trkpt lat="47.26425" lon="-1.61218">
        <ele>9.1</ele>
        <time>2012-01-12T09:07:33Z</time>
      </trkpt>
      <trkpt lat="47.26427" lon="-1.61214">
        <ele>8.1</ele>
        <time>2012-01-12T09:07:36Z</time>
      </trkpt>
      <trkpt lat="47.2643" lon="-1.6121">
        <ele>8.1</ele>
        <time>2012-01-12T09:07:39Z</time>
      </trkpt>
      <trkpt lat="47.26433" lon="-1.61206">
        <ele>8.5</ele>
        <time>2012-01-12T09:07:42Z</time>
      </trkpt>
      <trkpt lat="47.26436" lon="-1.61202">
        <ele>9</ele>
        <time>2012-01-12T09:07:45Z</time>
      </trkpt>
      <trkpt lat="47.26439" lon="-1.61197">
        <ele>9.1</ele>
        <time>2012-01-12T09:07:48Z</time>
      </trkpt>
      <trkpt lat="47.26441" lon="-1.61193">
        <ele>8.8</ele>
        <time>2012-01-12T09:07:50Z</time>
      </trkpt>
      <trkpt lat="47.26443" lon="-1.61189">
        <ele>8.6</ele>
        <time>2012-01-12T09:07:52Z</time>
      </trkpt>
      <trkpt lat="47.26445" lon="-1.61184">
        <ele>8.3</ele>
        <time>2012-01-12T09:07:54Z</time>
      </trkpt>
      <trkpt lat="47.26447" lon="-1.6118">
        <ele>8.3</ele>
        <time>2012-01-12T09:07:56Z</time>
      </trkpt>
      <trkpt lat="47.26449" lon="-1.61176">
        <ele>8.1</ele>
        <time>2012-01-12T09:07:58Z</time>
      </trkpt>
      <trkpt lat="47.2645" lon="-1.61171">
        <ele>8.1</ele>
        <time>2012-01-12T09:08:00Z</time>
      </trkpt>
      <trkpt lat="47.26452" lon="-1.61167">
        <ele>8.1</ele>
        <time>2012-01-12T09:08:02Z</time>
      </trkpt>
      <trkpt lat="47.26454" lon="-1.61163">
        <ele>8</ele>
        <time>2012-01-12T09:08:04Z</time>
      </trkpt>
      <trkpt lat="47.26456" lon="-1.61159">
        <ele>8.1</ele>
        <time>2012-01-12T09:08:06Z</time>
      </trkpt>
      <trkpt lat="47.26458" lon="-1.61155">
        <ele>8.1</ele>
        <time>2012-01-12T09:08:08Z</time>
      </trkpt>
      <trkpt lat="47.26458" lon="-1.61153">
        <ele>8.1</ele>
        <time>2012-01-12T09:08:09Z</time>
      </trkpt>
      <trkpt lat="47.2646" lon="-1.61146">
        <ele>8.1</ele>
        <time>2012-01-12T09:08:12Z</time>
      </trkpt>
      <trkpt lat="47.26462" lon="-1.61142">
        <ele>8</ele>
        <time>2012-01-12T09:08:14Z</time>
      </trkpt>
      <trkpt lat="47.26464" lon="-1.61138">
        <ele>8.1</ele>
        <time>2012-01-12T09:08:16Z</time>
      </trkpt>
      <trkpt lat="47.26465" lon="-1.61135">
        <ele>8.1</ele>
        <time>2012-01-12T09:08:18Z</time>
      </trkpt>
      <trkpt lat="47.26467" lon="-1.61131">
        <ele>7.9</ele>
        <time>2012-01-12T09:08:20Z</time>
      </trkpt>
      <trkpt lat="47.26468" lon="-1.61126">
        <ele>7.9</ele>
        <time>2012-01-12T09:08:22Z</time>
      </trkpt>
      <trkpt lat="47.2647" lon="-1.61122">
        <ele>7.9</ele>
        <time>2012-01-12T09:08:24Z</time>
      </trkpt>
      <trkpt lat="47.26471" lon="-1.61119">
        <ele>8</ele>
        <time>2012-01-12T09:08:26Z</time>
      </trkpt>
      <trkpt lat="47.26472" lon="-1.61114">
        <ele>8.1</ele>
        <time>2012-01-12T09:08:28Z</time>
      </trkpt>
      <trkpt lat="47.26473" lon="-1.61109">
        <ele>8.1</ele>
        <time>2012-01-12T09:08:30Z</time>
      </trkpt>
      <trkpt lat="47.26473" lon="-1.61104">
        <ele>8</ele>
        <time>2012-01-12T09:08:32Z</time>
      </trkpt>
      <trkpt lat="47.26473" lon="-1.61099">
        <ele>8.3</ele>
        <time>2012-01-12T09:08:34Z</time>
      </trkpt>
      <trkpt lat="47.26473" lon="-1.61095">
        <ele>8.6</ele>
        <time>2012-01-12T09:08:36Z</time>
      </trkpt>
      <trkpt lat="47.26474" lon="-1.6109">
        <ele>8.8</ele>
        <time>2012-01-12T09:08:38Z</time>
      </trkpt>
      <trkpt lat="47.26474" lon="-1.61085">
        <ele>9</ele>
        <time>2012-01-12T09:08:40Z</time>
      </trkpt>
      <trkpt lat="47.26474" lon="-1.6108">
        <ele>9.1</ele>
        <time>2012-01-12T09:08:42Z</time>
      </trkpt>
      <trkpt lat="47.26474" lon="-1.61076">
        <ele>9.1</ele>
        <time>2012-01-12T09:08:44Z</time>
      </trkpt>
      <trkpt lat="47.26474" lon="-1.6107">
        <ele>9.1</ele>
        <time>2012-01-12T09:08:46Z</time>
      </trkpt>
      <trkpt lat="47.26474" lon="-1.61065">
        <ele>9.1</ele>
        <time>2012-01-12T09:08:48Z</time>
      </trkpt>
      <trkpt lat="47.26474" lon="-1.6106">
        <ele>9</ele>
        <time>2012-01-12T09:08:50Z</time>
      </trkpt>
      <trkpt lat="47.26474" lon="-1.61055">
        <ele>8.6</ele>
        <time>2012-01-12T09:08:52Z</time>
      </trkpt>
      <trkpt lat="47.26474" lon="-1.6105">
        <ele>8.6</ele>
        <time>2012-01-12T09:08:54Z</time>
      </trkpt>
      <trkpt lat="47.26474" lon="-1.61045">
        <ele>8.6</ele>
        <time>2012-01-12T09:08:56Z</time>
      </trkpt>
      <trkpt lat="47.26474" lon="-1.6104">
        <ele>8.6</ele>
        <time>2012-01-12T09:08:58Z</time>
      </trkpt>
      <trkpt lat="47.26474" lon="-1.61035">
        <ele>8.3</ele>
        <time>2012-01-12T09:09:00Z</time>
      </trkpt>
      <trkpt lat="47.26474" lon="-1.61031">
        <ele>8</ele>
        <time>2012-01-12T09:09:02Z</time>
      </trkpt>
      <trkpt lat="47.26475" lon="-1.61026">
        <ele>8.1</ele>
        <time>2012-01-12T09:09:04Z</time>
      </trkpt>
      <trkpt lat="47.26474" lon="-1.61021">
        <ele>8.3</ele>
        <time>2012-01-12T09:09:06Z</time>
      </trkpt>
      <trkpt lat="47.26474" lon="-1.61014">
        <ele>8</ele>
        <time>2012-01-12T09:09:09Z</time>
      </trkpt>
      <trkpt lat="47.26474" lon="-1.61012">
        <ele>7.8</ele>
        <time>2012-01-12T09:09:10Z</time>
      </trkpt>
      <trkpt lat="47.26473" lon="-1.61004">
        <ele>7.6</ele>
        <time>2012-01-12T09:09:14Z</time>
      </trkpt>
      <trkpt lat="47.26473" lon="-1.60997">
        <ele>7.8</ele>
        <time>2012-01-12T09:09:17Z</time>
      </trkpt>
      <trkpt lat="47.26472" lon="-1.60991">
        <ele>8.1</ele>
        <time>2012-01-12T09:09:20Z</time>
      </trkpt>
      <trkpt lat="47.26471" lon="-1.60985">
        <ele>8</ele>
        <time>2012-01-12T09:09:23Z</time>
      </trkpt>
      <trkpt lat="47.2647" lon="-1.60979">
        <ele>8.1</ele>
        <time>2012-01-12T09:09:26Z</time>
      </trkpt>
      <trkpt lat="47.26468" lon="-1.60973">
        <ele>8</ele>
        <time>2012-01-12T09:09:29Z</time>
      </trkpt>
      <trkpt lat="47.26466" lon="-1.60967">
        <ele>7.6</ele>
        <time>2012-01-12T09:09:32Z</time>
      </trkpt>
      <trkpt lat="47.26463" lon="-1.60963">
        <ele>7.5</ele>
        <time>2012-01-12T09:09:35Z</time>
      </trkpt>
      <trkpt lat="47.2646" lon="-1.60958">
        <ele>7.5</ele>
        <time>2012-01-12T09:09:38Z</time>
      </trkpt>
      <trkpt lat="47.26457" lon="-1.60953">
        <ele>7.4</ele>
        <time>2012-01-12T09:09:41Z</time>
      </trkpt>
      <trkpt lat="47.26455" lon="-1.60948">
        <ele>7.4</ele>
        <time>2012-01-12T09:09:44Z</time>
      </trkpt>
      <trkpt lat="47.26453" lon="-1.60943">
        <ele>7.5</ele>
        <time>2012-01-12T09:09:47Z</time>
      </trkpt>
      <trkpt lat="47.26451" lon="-1.60939">
        <ele>7.3</ele>
        <time>2012-01-12T09:09:50Z</time>
      </trkpt>
      <trkpt lat="47.26449" lon="-1.60936">
        <ele>7</ele>
        <time>2012-01-12T09:09:52Z</time>
      </trkpt>
      <trkpt lat="47.26447" lon="-1.60932">
        <ele>7</ele>
        <time>2012-01-12T09:09:54Z</time>
      </trkpt>
      <trkpt lat="47.26444" lon="-1.60927">
        <ele>6.9</ele>
        <time>2012-01-12T09:09:57Z</time>
      </trkpt>
      <trkpt lat="47.26441" lon="-1.60923">
        <ele>7.1</ele>
        <time>2012-01-12T09:10:00Z</time>
      </trkpt>
      <trkpt lat="47.26439" lon="-1.6092">
        <ele>7.4</ele>
        <time>2012-01-12T09:10:03Z</time>
      </trkpt>
      <trkpt lat="47.26436" lon="-1.60916">
        <ele>7.1</ele>
        <time>2012-01-12T09:10:06Z</time>
      </trkpt>
      <trkpt lat="47.26433" lon="-1.60912">
        <ele>7</ele>
        <time>2012-01-12T09:10:11Z</time>
      </trkpt>
      <trkpt lat="47.26433" lon="-1.60911">
        <ele>7.1</ele>
        <time>2012-01-12T09:10:12Z</time>
      </trkpt>
      <trkpt lat="47.26427" lon="-1.60904">
        <ele>7</ele>
        <time>2012-01-12T09:10:19Z</time>
      </trkpt>
      <trkpt lat="47.26425" lon="-1.609">
        <ele>7.3</ele>
        <time>2012-01-12T09:10:22Z</time>
      </trkpt>
      <trkpt lat="47.26422" lon="-1.60896">
        <ele>7.4</ele>
        <time>2012-01-12T09:10:25Z</time>
      </trkpt>
      <trkpt lat="47.26419" lon="-1.60893">
        <ele>7</ele>
        <time>2012-01-12T09:10:27Z</time>
      </trkpt>
      <trkpt lat="47.26417" lon="-1.60888">
        <ele>6.9</ele>
        <time>2012-01-12T09:10:30Z</time>
      </trkpt>
      <trkpt lat="47.26414" lon="-1.60884">
        <ele>7.1</ele>
        <time>2012-01-12T09:10:33Z</time>
      </trkpt>
      <trkpt lat="47.26412" lon="-1.6088">
        <ele>7.5</ele>
        <time>2012-01-12T09:10:37Z</time>
      </trkpt>
      <trkpt lat="47.26409" lon="-1.60876">
        <ele>7.8</ele>
        <time>2012-01-12T09:10:41Z</time>
      </trkpt>
      <trkpt lat="47.26407" lon="-1.60872">
        <ele>7.4</ele>
        <time>2012-01-12T09:10:44Z</time>
      </trkpt>
      <trkpt lat="47.26404" lon="-1.60868">
        <ele>7.4</ele>
        <time>2012-01-12T09:10:47Z</time>
      </trkpt>
      <trkpt lat="47.26402" lon="-1.60864">
        <ele>7</ele>
        <time>2012-01-12T09:10:50Z</time>
      </trkpt>
      <trkpt lat="47.264" lon="-1.60859">
        <ele>7.5</ele>
        <time>2012-01-12T09:10:53Z</time>
      </trkpt>
      <trkpt lat="47.26398" lon="-1.60855">
        <ele>7.5</ele>
        <time>2012-01-12T09:10:56Z</time>
      </trkpt>
      <trkpt lat="47.26396" lon="-1.6085">
        <ele>7.5</ele>
        <time>2012-01-12T09:10:59Z</time>
      </trkpt>
      <trkpt lat="47.26395" lon="-1.60845">
        <ele>7.5</ele>
        <time>2012-01-12T09:11:03Z</time>
      </trkpt>
      <trkpt lat="47.26395" lon="-1.6084">
        <ele>7.8</ele>
        <time>2012-01-12T09:11:06Z</time>
      </trkpt>
      <trkpt lat="47.26393" lon="-1.60834">
        <ele>7.3</ele>
        <time>2012-01-12T09:11:09Z</time>
      </trkpt>
      <trkpt lat="47.26392" lon="-1.6083">
        <ele>7</ele>
        <time>2012-01-12T09:11:11Z</time>
      </trkpt>
      <trkpt lat="47.2639" lon="-1.60824">
        <ele>6.9</ele>
        <time>2012-01-12T09:11:14Z</time>
      </trkpt>
      <trkpt lat="47.26389" lon="-1.60822">
        <ele>6.9</ele>
        <time>2012-01-12T09:11:15Z</time>
      </trkpt>
      <trkpt lat="47.26386" lon="-1.60813">
        <ele>6.6</ele>
        <time>2012-01-12T09:11:20Z</time>
      </trkpt>
      <trkpt lat="47.26382" lon="-1.60809">
        <ele>6.9</ele>
        <time>2012-01-12T09:11:23Z</time>
      </trkpt>
      <trkpt lat="47.26378" lon="-1.60808">
        <ele>7</ele>
        <time>2012-01-12T09:11:26Z</time>
      </trkpt>
      <trkpt lat="47.26374" lon="-1.6081">
        <ele>7.6</ele>
        <time>2012-01-12T09:11:29Z</time>
      </trkpt>
      <trkpt lat="47.26371" lon="-1.60812">
        <ele>8</ele>
        <time>2012-01-12T09:11:32Z</time>
      </trkpt>
      <trkpt lat="47.26367" lon="-1.60814">
        <ele>7.8</ele>
        <time>2012-01-12T09:11:35Z</time>
      </trkpt>
      <trkpt lat="47.26363" lon="-1.60817">
        <ele>8.1</ele>
        <time>2012-01-12T09:11:38Z</time>
      </trkpt>
      <trkpt lat="47.26359" lon="-1.60819">
        <ele>8.8</ele>
        <time>2012-01-12T09:11:41Z</time>
      </trkpt>
      <trkpt lat="47.26355" lon="-1.60822">
        <ele>9.3</ele>
        <time>2012-01-12T09:11:44Z</time>
      </trkpt>
      <trkpt lat="47.26352" lon="-1.60825">
        <ele>9.5</ele>
        <time>2012-01-12T09:11:47Z</time>
      </trkpt>
      <trkpt lat="47.26349" lon="-1.60829">
        <ele>10</ele>
        <time>2012-01-12T09:11:50Z</time>
      </trkpt>
      <trkpt lat="47.26346" lon="-1.60833">
        <ele>10.1</ele>
        <time>2012-01-12T09:11:53Z</time>
      </trkpt>
      <trkpt lat="47.26342" lon="-1.60837">
        <ele>10.6</ele>
        <time>2012-01-12T09:11:56Z</time>
      </trkpt>
      <trkpt lat="47.2634" lon="-1.6084">
        <ele>10.8</ele>
        <time>2012-01-12T09:11:58Z</time>
      </trkpt>
      <trkpt lat="47.26337" lon="-1.60844">
        <ele>11</ele>
        <time>2012-01-12T09:12:01Z</time>
      </trkpt>
      <trkpt lat="47.26335" lon="-1.60847">
        <ele>11.5</ele>
        <time>2012-01-12T09:12:03Z</time>
      </trkpt>
      <trkpt lat="47.26331" lon="-1.60851">
        <ele>11.6</ele>
        <time>2012-01-12T09:12:06Z</time>
      </trkpt>
      <trkpt lat="47.26327" lon="-1.60849">
        <ele>12.1</ele>
        <time>2012-01-12T09:12:10Z</time>
      </trkpt>
      <trkpt lat="47.26327" lon="-1.60843">
        <ele>12.3</ele>
        <time>2012-01-12T09:12:14Z</time>
      </trkpt>
      <trkpt lat="47.26328" lon="-1.60837">
        <ele>12.3</ele>
        <time>2012-01-12T09:12:18Z</time>
      </trkpt>
      <trkpt lat="47.26329" lon="-1.60836">
        <ele>12.1</ele>
        <time>2012-01-12T09:12:19Z</time>
      </trkpt>
      <trkpt lat="47.26331" lon="-1.60826">
        <ele>11.5</ele>
        <time>2012-01-12T09:12:24Z</time>
      </trkpt>
      <trkpt lat="47.26333" lon="-1.60821">
        <ele>11.5</ele>
        <time>2012-01-12T09:12:27Z</time>
      </trkpt>
      <trkpt lat="47.26335" lon="-1.60816">
        <ele>11.6</ele>
        <time>2012-01-12T09:12:30Z</time>
      </trkpt>
      <trkpt lat="47.26337" lon="-1.60811">
        <ele>11.8</ele>
        <time>2012-01-12T09:12:33Z</time>
      </trkpt>
      <trkpt lat="47.26339" lon="-1.60805">
        <ele>10.8</ele>
        <time>2012-01-12T09:12:36Z</time>
      </trkpt>
      <trkpt lat="47.26341" lon="-1.60801">
        <ele>10.1</ele>
        <time>2012-01-12T09:12:38Z</time>
      </trkpt>
      <trkpt lat="47.26342" lon="-1.60795">
        <ele>10.1</ele>
        <time>2012-01-12T09:12:41Z</time>
      </trkpt>
      <trkpt lat="47.26344" lon="-1.6079">
        <ele>10</ele>
        <time>2012-01-12T09:12:44Z</time>
      </trkpt>
      <trkpt lat="47.26346" lon="-1.60785">
        <ele>9.1</ele>
        <time>2012-01-12T09:12:47Z</time>
      </trkpt>
      <trkpt lat="47.26348" lon="-1.60779">
        <ele>8.8</ele>
        <time>2012-01-12T09:12:50Z</time>
      </trkpt>
      <trkpt lat="47.26349" lon="-1.60774">
        <ele>8.6</ele>
        <time>2012-01-12T09:12:52Z</time>
      </trkpt>
      <trkpt lat="47.26351" lon="-1.60769">
        <ele>8.6</ele>
        <time>2012-01-12T09:12:55Z</time>
      </trkpt>
      <trkpt lat="47.26352" lon="-1.60763">
        <ele>8.1</ele>
        <time>2012-01-12T09:12:58Z</time>
      </trkpt>
      <trkpt lat="47.26354" lon="-1.60758">
        <ele>7.6</ele>
        <time>2012-01-12T09:13:01Z</time>
      </trkpt>
      <trkpt lat="47.26355" lon="-1.60752">
        <ele>7.9</ele>
        <time>2012-01-12T09:13:04Z</time>
      </trkpt>
      <trkpt lat="47.26357" lon="-1.60746">
        <ele>7.9</ele>
        <time>2012-01-12T09:13:07Z</time>
      </trkpt>
      <trkpt lat="47.26358" lon="-1.6074">
        <ele>7.9</ele>
        <time>2012-01-12T09:13:10Z</time>
      </trkpt>
      <trkpt lat="47.2636" lon="-1.60736">
        <ele>7.8</ele>
        <time>2012-01-12T09:13:12Z</time>
      </trkpt>
      <trkpt lat="47.26361" lon="-1.60732">
        <ele>7.6</ele>
        <time>2012-01-12T09:13:14Z</time>
      </trkpt>
      <trkpt lat="47.26362" lon="-1.60727">
        <ele>7.6</ele>
        <time>2012-01-12T09:13:16Z</time>
      </trkpt>
      <trkpt lat="47.26363" lon="-1.60723">
        <ele>7.8</ele>
        <time>2012-01-12T09:13:18Z</time>
      </trkpt>
      <trkpt lat="47.26363" lon="-1.60718">
        <ele>8</ele>
        <time>2012-01-12T09:13:20Z</time>
      </trkpt>
      <trkpt lat="47.26363" lon="-1.60716">
        <ele>7.6</ele>
        <time>2012-01-12T09:13:21Z</time>
      </trkpt>
      <trkpt lat="47.26366" lon="-1.60706">
        <ele>7.4</ele>
        <time>2012-01-12T09:13:26Z</time>
      </trkpt>
      <trkpt lat="47.26366" lon="-1.607">
        <ele>7.1</ele>
        <time>2012-01-12T09:13:29Z</time>
      </trkpt>
      <trkpt lat="47.26364" lon="-1.60695">
        <ele>7.4</ele>
        <time>2012-01-12T09:13:32Z</time>
      </trkpt>
      <trkpt lat="47.26362" lon="-1.60691">
        <ele>7.6</ele>
        <time>2012-01-12T09:13:35Z</time>
      </trkpt>
      <trkpt lat="47.26363" lon="-1.60686">
        <ele>7</ele>
        <time>2012-01-12T09:13:38Z</time>
      </trkpt>
      <trkpt lat="47.26361" lon="-1.60682">
        <ele>6.6</ele>
        <time>2012-01-12T09:13:40Z</time>
      </trkpt>
      <trkpt lat="47.26356" lon="-1.60676">
        <ele>6</ele>
        <time>2012-01-12T09:13:44Z</time>
      </trkpt>
      <trkpt lat="47.26331" lon="-1.60648">
        <ele>7</ele>
        <time>2012-01-12T09:13:54Z</time>
      </trkpt>
      <trkpt lat="47.2633" lon="-1.60633">
        <ele>7.3</ele>
        <time>2012-01-12T09:13:58Z</time>
      </trkpt>
      <trkpt lat="47.26328" lon="-1.60627">
        <ele>7</ele>
        <time>2012-01-12T09:14:02Z</time>
      </trkpt>
      <trkpt lat="47.26325" lon="-1.60623">
        <ele>6.5</ele>
        <time>2012-01-12T09:14:05Z</time>
      </trkpt>
      <trkpt lat="47.26323" lon="-1.6062">
        <ele>6.8</ele>
        <time>2012-01-12T09:14:10Z</time>
      </trkpt>
      <trkpt lat="47.2632" lon="-1.60614">
        <ele>7.1</ele>
        <time>2012-01-12T09:14:15Z</time>
      </trkpt>
      <trkpt lat="47.2632" lon="-1.60609">
        <ele>7.1</ele>
        <time>2012-01-12T09:14:19Z</time>
      </trkpt>
      <trkpt lat="47.26319" lon="-1.60603">
        <ele>7.1</ele>
        <time>2012-01-12T09:14:22Z</time>
      </trkpt>
      <trkpt lat="47.26318" lon="-1.60601">
        <ele>7.1</ele>
        <time>2012-01-12T09:14:23Z</time>
      </trkpt>
      <trkpt lat="47.26317" lon="-1.60594">
        <ele>7</ele>
        <time>2012-01-12T09:14:28Z</time>
      </trkpt>
      <trkpt lat="47.26316" lon="-1.60587">
        <ele>7.4</ele>
        <time>2012-01-12T09:14:32Z</time>
      </trkpt>
      <trkpt lat="47.26315" lon="-1.60582">
        <ele>7.9</ele>
        <time>2012-01-12T09:14:36Z</time>
      </trkpt>
      <trkpt lat="47.26315" lon="-1.60576">
        <ele>8</ele>
        <time>2012-01-12T09:14:39Z</time>
      </trkpt>
      <trkpt lat="47.26316" lon="-1.60571">
        <ele>8.1</ele>
        <time>2012-01-12T09:14:42Z</time>
      </trkpt>
      <trkpt lat="47.26317" lon="-1.60566">
        <ele>7.8</ele>
        <time>2012-01-12T09:14:45Z</time>
      </trkpt>
      <trkpt lat="47.26318" lon="-1.6056">
        <ele>7.5</ele>
        <time>2012-01-12T09:14:48Z</time>
      </trkpt>
      <trkpt lat="47.26319" lon="-1.60555">
        <ele>7.5</ele>
        <time>2012-01-12T09:14:51Z</time>
      </trkpt>
      <trkpt lat="47.2632" lon="-1.60548">
        <ele>7.6</ele>
        <time>2012-01-12T09:14:54Z</time>
      </trkpt>
      <trkpt lat="47.26321" lon="-1.60543">
        <ele>7.5</ele>
        <time>2012-01-12T09:14:57Z</time>
      </trkpt>
      <trkpt lat="47.26321" lon="-1.60537">
        <ele>7.8</ele>
        <time>2012-01-12T09:15:00Z</time>
      </trkpt>
      <trkpt lat="47.26322" lon="-1.60531">
        <ele>7.8</ele>
        <time>2012-01-12T09:15:03Z</time>
      </trkpt>
      <trkpt lat="47.26322" lon="-1.60525">
        <ele>8.1</ele>
        <time>2012-01-12T09:15:06Z</time>
      </trkpt>
      <trkpt lat="47.26322" lon="-1.6052">
        <ele>7.9</ele>
        <time>2012-01-12T09:15:08Z</time>
      </trkpt>
      <trkpt lat="47.26323" lon="-1.60515">
        <ele>7.8</ele>
        <time>2012-01-12T09:15:10Z</time>
      </trkpt>
      <trkpt lat="47.26324" lon="-1.60511">
        <ele>7.9</ele>
        <time>2012-01-12T09:15:12Z</time>
      </trkpt>
      <trkpt lat="47.26324" lon="-1.60506">
        <ele>7.9</ele>
        <time>2012-01-12T09:15:14Z</time>
      </trkpt>
      <trkpt lat="47.26325" lon="-1.60501">
        <ele>7.9</ele>
        <time>2012-01-12T09:15:16Z</time>
      </trkpt>
      <trkpt lat="47.26326" lon="-1.60496">
        <ele>7.8</ele>
        <time>2012-01-12T09:15:18Z</time>
      </trkpt>
      <trkpt lat="47.26326" lon="-1.60492">
        <ele>7.6</ele>
        <time>2012-01-12T09:15:20Z</time>
      </trkpt>
      <trkpt lat="47.26327" lon="-1.60487">
        <ele>7.5</ele>
        <time>2012-01-12T09:15:22Z</time>
      </trkpt>
      <trkpt lat="47.26327" lon="-1.60482">
        <ele>7.5</ele>
        <time>2012-01-12T09:15:24Z</time>
      </trkpt>
      <trkpt lat="47.26328" lon="-1.6048">
        <ele>7.5</ele>
        <time>2012-01-12T09:15:25Z</time>
      </trkpt>
      <trkpt lat="47.2633" lon="-1.6047">
        <ele>7.5</ele>
        <time>2012-01-12T09:15:30Z</time>
      </trkpt>
      <trkpt lat="47.26331" lon="-1.60464">
        <ele>7.6</ele>
        <time>2012-01-12T09:15:33Z</time>
      </trkpt>
      <trkpt lat="47.26332" lon="-1.60458">
        <ele>7.9</ele>
        <time>2012-01-12T09:15:36Z</time>
      </trkpt>
      <trkpt lat="47.26332" lon="-1.60452">
        <ele>7.9</ele>
        <time>2012-01-12T09:15:39Z</time>
      </trkpt>
      <trkpt lat="47.26333" lon="-1.60448">
        <ele>7.5</ele>
        <time>2012-01-12T09:15:41Z</time>
      </trkpt>
      <trkpt lat="47.26333" lon="-1.60442">
        <ele>8.1</ele>
        <time>2012-01-12T09:15:44Z</time>
      </trkpt>
      <trkpt lat="47.26332" lon="-1.60437">
        <ele>8.1</ele>
        <time>2012-01-12T09:15:47Z</time>
      </trkpt>
      <trkpt lat="47.26332" lon="-1.60431">
        <ele>8.1</ele>
        <time>2012-01-12T09:15:50Z</time>
      </trkpt>
      <trkpt lat="47.26332" lon="-1.60424">
        <ele>8</ele>
        <time>2012-01-12T09:15:53Z</time>
      </trkpt>
      <trkpt lat="47.26332" lon="-1.6042">
        <ele>7.9</ele>
        <time>2012-01-12T09:15:56Z</time>
      </trkpt>
      <trkpt lat="47.26332" lon="-1.60414">
        <ele>7.8</ele>
        <time>2012-01-12T09:15:59Z</time>
      </trkpt>
      <trkpt lat="47.26332" lon="-1.60407">
        <ele>7.5</ele>
        <time>2012-01-12T09:16:02Z</time>
      </trkpt>
      <trkpt lat="47.26332" lon="-1.60402">
        <ele>7.5</ele>
        <time>2012-01-12T09:16:05Z</time>
      </trkpt>
      <trkpt lat="47.26333" lon="-1.60397">
        <ele>7.3</ele>
        <time>2012-01-12T09:16:08Z</time>
      </trkpt>
      <trkpt lat="47.26334" lon="-1.60391">
        <ele>7.4</ele>
        <time>2012-01-12T09:16:11Z</time>
      </trkpt>
      <trkpt lat="47.26334" lon="-1.60385">
        <ele>7.9</ele>
        <time>2012-01-12T09:16:14Z</time>
      </trkpt>
      <trkpt lat="47.26336" lon="-1.60379">
        <ele>8.1</ele>
        <time>2012-01-12T09:16:17Z</time>
      </trkpt>
      <trkpt lat="47.26337" lon="-1.60373">
        <ele>8</ele>
        <time>2012-01-12T09:16:20Z</time>
      </trkpt>
      <trkpt lat="47.26338" lon="-1.60367">
        <ele>7.9</ele>
        <time>2012-01-12T09:16:23Z</time>
      </trkpt>
      <trkpt lat="47.26339" lon="-1.6036">
        <ele>7.9</ele>
        <time>2012-01-12T09:16:26Z</time>
      </trkpt>
      <trkpt lat="47.26339" lon="-1.60358">
        <ele>7.8</ele>
        <time>2012-01-12T09:16:27Z</time>
      </trkpt>
      <trkpt lat="47.26339" lon="-1.6035">
        <ele>7.5</ele>
        <time>2012-01-12T09:16:31Z</time>
      </trkpt>
      <trkpt lat="47.2634" lon="-1.60344">
        <ele>7.8</ele>
        <time>2012-01-12T09:16:34Z</time>
      </trkpt>
      <trkpt lat="47.26342" lon="-1.60338">
        <ele>7.5</ele>
        <time>2012-01-12T09:16:37Z</time>
      </trkpt>
      <trkpt lat="47.26342" lon="-1.60333">
        <ele>7.9</ele>
        <time>2012-01-12T09:16:40Z</time>
      </trkpt>
      <trkpt lat="47.26342" lon="-1.60328">
        <ele>8.1</ele>
        <time>2012-01-12T09:16:42Z</time>
      </trkpt>
      <trkpt lat="47.26343" lon="-1.60322">
        <ele>7.9</ele>
        <time>2012-01-12T09:16:45Z</time>
      </trkpt>
      <trkpt lat="47.26344" lon="-1.60318">
        <ele>7.8</ele>
        <time>2012-01-12T09:16:47Z</time>
      </trkpt>
      <trkpt lat="47.26345" lon="-1.60313">
        <ele>7.9</ele>
        <time>2012-01-12T09:16:49Z</time>
      </trkpt>
      <trkpt lat="47.26345" lon="-1.60309">
        <ele>8</ele>
        <time>2012-01-12T09:16:51Z</time>
      </trkpt>
      <trkpt lat="47.26345" lon="-1.60304">
        <ele>8.1</ele>
        <time>2012-01-12T09:16:53Z</time>
      </trkpt>
      <trkpt lat="47.26345" lon="-1.60298">
        <ele>7.5</ele>
        <time>2012-01-12T09:16:56Z</time>
      </trkpt>
      <trkpt lat="47.26346" lon="-1.60292">
        <ele>7</ele>
        <time>2012-01-12T09:16:59Z</time>
      </trkpt>
      <trkpt lat="47.26347" lon="-1.60286">
        <ele>6.6</ele>
        <time>2012-01-12T09:17:02Z</time>
      </trkpt>
      <trkpt lat="47.26348" lon="-1.6028">
        <ele>6.5</ele>
        <time>2012-01-12T09:17:05Z</time>
      </trkpt>
      <trkpt lat="47.26348" lon="-1.60275">
        <ele>6.6</ele>
        <time>2012-01-12T09:17:07Z</time>
      </trkpt>
      <trkpt lat="47.26348" lon="-1.6027">
        <ele>6.5</ele>
        <time>2012-01-12T09:17:09Z</time>
      </trkpt>
      <trkpt lat="47.26348" lon="-1.60264">
        <ele>6.3</ele>
        <time>2012-01-12T09:17:12Z</time>
      </trkpt>
      <trkpt lat="47.26347" lon="-1.60258">
        <ele>6.3</ele>
        <time>2012-01-12T09:17:16Z</time>
      </trkpt>
      <trkpt lat="47.26347" lon="-1.60252">
        <ele>5.5</ele>
        <time>2012-01-12T09:17:19Z</time>
      </trkpt>
      <trkpt lat="47.26346" lon="-1.60246">
        <ele>5.3</ele>
        <time>2012-01-12T09:17:22Z</time>
      </trkpt>
      <trkpt lat="47.26346" lon="-1.60239">
        <ele>5.1</ele>
        <time>2012-01-12T09:17:25Z</time>
      </trkpt>
      <trkpt lat="47.26345" lon="-1.60234">
        <ele>5.3</ele>
        <time>2012-01-12T09:17:27Z</time>
      </trkpt>
      <trkpt lat="47.26345" lon="-1.60232">
        <ele>5.4</ele>
        <time>2012-01-12T09:17:28Z</time>
      </trkpt>
      <trkpt lat="47.26342" lon="-1.60225">
        <ele>5.1</ele>
        <time>2012-01-12T09:17:32Z</time>
      </trkpt>
      <trkpt lat="47.2634" lon="-1.6022">
        <ele>5</ele>
        <time>2012-01-12T09:17:35Z</time>
      </trkpt>
      <trkpt lat="47.26337" lon="-1.60215">
        <ele>4.6</ele>
        <time>2012-01-12T09:17:38Z</time>
      </trkpt>
      <trkpt lat="47.26335" lon="-1.60211">
        <ele>4.9</ele>
        <time>2012-01-12T09:17:40Z</time>
      </trkpt>
      <trkpt lat="47.26333" lon="-1.60207">
        <ele>5.1</ele>
        <time>2012-01-12T09:17:43Z</time>
      </trkpt>
      <trkpt lat="47.2633" lon="-1.60202">
        <ele>5.3</ele>
        <time>2012-01-12T09:17:46Z</time>
      </trkpt>
      <trkpt lat="47.26328" lon="-1.60198">
        <ele>5.4</ele>
        <time>2012-01-12T09:17:48Z</time>
      </trkpt>
      <trkpt lat="47.26327" lon="-1.60195">
        <ele>5.4</ele>
        <time>2012-01-12T09:17:50Z</time>
      </trkpt>
      <trkpt lat="47.26324" lon="-1.60191">
        <ele>5.4</ele>
        <time>2012-01-12T09:17:52Z</time>
      </trkpt>
      <trkpt lat="47.26322" lon="-1.60188">
        <ele>5.1</ele>
        <time>2012-01-12T09:17:54Z</time>
      </trkpt>
      <trkpt lat="47.2632" lon="-1.60185">
        <ele>4.8</ele>
        <time>2012-01-12T09:17:56Z</time>
      </trkpt>
      <trkpt lat="47.26318" lon="-1.60181">
        <ele>4.3</ele>
        <time>2012-01-12T09:17:58Z</time>
      </trkpt>
      <trkpt lat="47.26315" lon="-1.60178">
        <ele>4.6</ele>
        <time>2012-01-12T09:18:00Z</time>
      </trkpt>
      <trkpt lat="47.26312" lon="-1.60175">
        <ele>4.9</ele>
        <time>2012-01-12T09:18:02Z</time>
      </trkpt>
      <trkpt lat="47.2631" lon="-1.60171">
        <ele>5</ele>
        <time>2012-01-12T09:18:04Z</time>
      </trkpt>
      <trkpt lat="47.26308" lon="-1.60167">
        <ele>4.9</ele>
        <time>2012-01-12T09:18:06Z</time>
      </trkpt>
      <trkpt lat="47.26306" lon="-1.60164">
        <ele>4.8</ele>
        <time>2012-01-12T09:18:08Z</time>
      </trkpt>
      <trkpt lat="47.26303" lon="-1.60159">
        <ele>4.5</ele>
        <time>2012-01-12T09:18:11Z</time>
      </trkpt>
      <trkpt lat="47.26301" lon="-1.60155">
        <ele>4.5</ele>
        <time>2012-01-12T09:18:13Z</time>
      </trkpt>
      <trkpt lat="47.26299" lon="-1.6015">
        <ele>4.6</ele>
        <time>2012-01-12T09:18:15Z</time>
      </trkpt>
      <trkpt lat="47.26296" lon="-1.60146">
        <ele>4.8</ele>
        <time>2012-01-12T09:18:18Z</time>
      </trkpt>
      <trkpt lat="47.26294" lon="-1.60141">
        <ele>4.8</ele>
        <time>2012-01-12T09:18:21Z</time>
      </trkpt>
      <trkpt lat="47.26292" lon="-1.60138">
        <ele>5</ele>
        <time>2012-01-12T09:18:24Z</time>
      </trkpt>
      <trkpt lat="47.26289" lon="-1.60134">
        <ele>5</ele>
        <time>2012-01-12T09:18:27Z</time>
      </trkpt>
      <trkpt lat="47.26286" lon="-1.6013">
        <ele>5.1</ele>
        <time>2012-01-12T09:18:30Z</time>
      </trkpt>
      <trkpt lat="47.26285" lon="-1.60128">
        <ele>5.1</ele>
        <time>2012-01-12T09:18:31Z</time>
      </trkpt>
      <trkpt lat="47.2628" lon="-1.60121">
        <ele>5</ele>
        <time>2012-01-12T09:18:36Z</time>
      </trkpt>
      <trkpt lat="47.26278" lon="-1.60116">
        <ele>5</ele>
        <time>2012-01-12T09:18:39Z</time>
      </trkpt>
      <trkpt lat="47.26276" lon="-1.60111">
        <ele>5.1</ele>
        <time>2012-01-12T09:18:42Z</time>
      </trkpt>
      <trkpt lat="47.26273" lon="-1.60108">
        <ele>5</ele>
        <time>2012-01-12T09:18:44Z</time>
      </trkpt>
      <trkpt lat="47.2627" lon="-1.60103">
        <ele>4.8</ele>
        <time>2012-01-12T09:18:47Z</time>
      </trkpt>
      <trkpt lat="47.26267" lon="-1.60098">
        <ele>5</ele>
        <time>2012-01-12T09:18:50Z</time>
      </trkpt>
      <trkpt lat="47.26264" lon="-1.60094">
        <ele>5</ele>
        <time>2012-01-12T09:18:53Z</time>
      </trkpt>
      <trkpt lat="47.2626" lon="-1.60091">
        <ele>4.9</ele>
        <time>2012-01-12T09:18:56Z</time>
      </trkpt>
      <trkpt lat="47.26256" lon="-1.6009">
        <ele>5.3</ele>
        <time>2012-01-12T09:18:59Z</time>
      </trkpt>
      <trkpt lat="47.26252" lon="-1.6009">
        <ele>6.1</ele>
        <time>2012-01-12T09:19:02Z</time>
      </trkpt>
      <trkpt lat="47.26248" lon="-1.6009">
        <ele>6</ele>
        <time>2012-01-12T09:19:05Z</time>
      </trkpt>
      <trkpt lat="47.26244" lon="-1.60091">
        <ele>6</ele>
        <time>2012-01-12T09:19:08Z</time>
      </trkpt>
      <trkpt lat="47.26241" lon="-1.60093">
        <ele>5.5</ele>
        <time>2012-01-12T09:19:11Z</time>
      </trkpt>
      <trkpt lat="47.26237" lon="-1.60094">
        <ele>5.4</ele>
        <time>2012-01-12T09:19:14Z</time>
      </trkpt>
      <trkpt lat="47.26233" lon="-1.60095">
        <ele>5.8</ele>
        <time>2012-01-12T09:19:18Z</time>
      </trkpt>
      <trkpt lat="47.2623" lon="-1.60095">
        <ele>6</ele>
        <time>2012-01-12T09:19:21Z</time>
      </trkpt>
      <trkpt lat="47.26226" lon="-1.60094">
        <ele>6</ele>
        <time>2012-01-12T09:19:24Z</time>
      </trkpt>
      <trkpt lat="47.26223" lon="-1.60093">
        <ele>5.8</ele>
        <time>2012-01-12T09:19:26Z</time>
      </trkpt>
      <trkpt lat="47.2622" lon="-1.60092">
        <ele>5.5</ele>
        <time>2012-01-12T09:19:28Z</time>
      </trkpt>
      <trkpt lat="47.26216" lon="-1.6009">
        <ele>5.3</ele>
        <time>2012-01-12T09:19:31Z</time>
      </trkpt>
      <trkpt lat="47.26215" lon="-1.60089">
        <ele>5.4</ele>
        <time>2012-01-12T09:19:32Z</time>
      </trkpt>
      <trkpt lat="47.26211" lon="-1.60084">
        <ele>5.1</ele>
        <time>2012-01-12T09:19:36Z</time>
      </trkpt>
      <trkpt lat="47.26208" lon="-1.6008">
        <ele>4.9</ele>
        <time>2012-01-12T09:19:40Z</time>
      </trkpt>
      <trkpt lat="47.26204" lon="-1.60076">
        <ele>4.9</ele>
        <time>2012-01-12T09:19:44Z</time>
      </trkpt>
      <trkpt lat="47.26203" lon="-1.60072">
        <ele>5</ele>
        <time>2012-01-12T09:19:46Z</time>
      </trkpt>
      <trkpt lat="47.26203" lon="-1.60068">
        <ele>4.8</ele>
        <time>2012-01-12T09:19:48Z</time>
      </trkpt>
      <trkpt lat="47.26203" lon="-1.60063">
        <ele>4.3</ele>
        <time>2012-01-12T09:19:50Z</time>
      </trkpt>
      <trkpt lat="47.26202" lon="-1.60059">
        <ele>4.8</ele>
        <time>2012-01-12T09:19:52Z</time>
      </trkpt>
      <trkpt lat="47.26202" lon="-1.60053">
        <ele>4.9</ele>
        <time>2012-01-12T09:19:55Z</time>
      </trkpt>
      <trkpt lat="47.26203" lon="-1.60048">
        <ele>5</ele>
        <time>2012-01-12T09:19:58Z</time>
      </trkpt>
      <trkpt lat="47.26204" lon="-1.60042">
        <ele>5.1</ele>
        <time>2012-01-12T09:20:01Z</time>
      </trkpt>
      <trkpt lat="47.26206" lon="-1.60036">
        <ele>5</ele>
        <time>2012-01-12T09:20:04Z</time>
      </trkpt>
      <trkpt lat="47.26209" lon="-1.60032">
        <ele>5</ele>
        <time>2012-01-12T09:20:07Z</time>
      </trkpt>
      <trkpt lat="47.26211" lon="-1.60027">
        <ele>5.3</ele>
        <time>2012-01-12T09:20:10Z</time>
      </trkpt>
      <trkpt lat="47.26213" lon="-1.60022">
        <ele>5.3</ele>
        <time>2012-01-12T09:20:13Z</time>
      </trkpt>
      <trkpt lat="47.26215" lon="-1.60018">
        <ele>5.3</ele>
        <time>2012-01-12T09:20:15Z</time>
      </trkpt>
      <trkpt lat="47.26217" lon="-1.60014">
        <ele>5</ele>
        <time>2012-01-12T09:20:17Z</time>
      </trkpt>
      <trkpt lat="47.26219" lon="-1.60011">
        <ele>5</ele>
        <time>2012-01-12T09:20:19Z</time>
      </trkpt>
      <trkpt lat="47.26221" lon="-1.60006">
        <ele>5.5</ele>
        <time>2012-01-12T09:20:22Z</time>
      </trkpt>
      <trkpt lat="47.26223" lon="-1.60001">
        <ele>5</ele>
        <time>2012-01-12T09:20:25Z</time>
      </trkpt>
      <trkpt lat="47.26226" lon="-1.59997">
        <ele>4.5</ele>
        <time>2012-01-12T09:20:28Z</time>
      </trkpt>
      <trkpt lat="47.26228" lon="-1.59991">
        <ele>4.9</ele>
        <time>2012-01-12T09:20:31Z</time>
      </trkpt>
      <trkpt lat="47.2623" lon="-1.59988">
        <ele>4.5</ele>
        <time>2012-01-12T09:20:33Z</time>
      </trkpt>
      <trkpt lat="47.26231" lon="-1.59986">
        <ele>4.5</ele>
        <time>2012-01-12T09:20:34Z</time>
      </trkpt>
      <trkpt lat="47.26234" lon="-1.5998">
        <ele>5</ele>
        <time>2012-01-12T09:20:37Z</time>
      </trkpt>
      <trkpt lat="47.26237" lon="-1.59975">
        <ele>5</ele>
        <time>2012-01-12T09:20:40Z</time>
      </trkpt>
      <trkpt lat="47.26239" lon="-1.59971">
        <ele>4.9</ele>
        <time>2012-01-12T09:20:42Z</time>
      </trkpt>
      <trkpt lat="47.26241" lon="-1.59968">
        <ele>4.9</ele>
        <time>2012-01-12T09:20:44Z</time>
      </trkpt>
      <trkpt lat="47.26243" lon="-1.59964">
        <ele>5.1</ele>
        <time>2012-01-12T09:20:46Z</time>
      </trkpt>
      <trkpt lat="47.26245" lon="-1.5996">
        <ele>5</ele>
        <time>2012-01-12T09:20:48Z</time>
      </trkpt>
      <trkpt lat="47.26247" lon="-1.59954">
        <ele>4.5</ele>
        <time>2012-01-12T09:20:51Z</time>
      </trkpt>
      <trkpt lat="47.26249" lon="-1.59948">
        <ele>4</ele>
        <time>2012-01-12T09:20:54Z</time>
      </trkpt>
      <trkpt lat="47.2625" lon="-1.59945">
        <ele>4.5</ele>
        <time>2012-01-12T09:20:56Z</time>
      </trkpt>
      <trkpt lat="47.26251" lon="-1.59939">
        <ele>4.6</ele>
        <time>2012-01-12T09:20:58Z</time>
      </trkpt>
      <trkpt lat="47.26252" lon="-1.59935">
        <ele>4.5</ele>
        <time>2012-01-12T09:21:00Z</time>
      </trkpt>
      <trkpt lat="47.26253" lon="-1.5993">
        <ele>4.1</ele>
        <time>2012-01-12T09:21:02Z</time>
      </trkpt>
      <trkpt lat="47.26253" lon="-1.59926">
        <ele>4.3</ele>
        <time>2012-01-12T09:21:04Z</time>
      </trkpt>
      <trkpt lat="47.26254" lon="-1.59921">
        <ele>4.5</ele>
        <time>2012-01-12T09:21:06Z</time>
      </trkpt>
      <trkpt lat="47.26254" lon="-1.59916">
        <ele>4.5</ele>
        <time>2012-01-12T09:21:08Z</time>
      </trkpt>
      <trkpt lat="47.26254" lon="-1.59912">
        <ele>4.6</ele>
        <time>2012-01-12T09:21:10Z</time>
      </trkpt>
      <trkpt lat="47.26254" lon="-1.59907">
        <ele>4.1</ele>
        <time>2012-01-12T09:21:12Z</time>
      </trkpt>
      <trkpt lat="47.26255" lon="-1.59902">
        <ele>4</ele>
        <time>2012-01-12T09:21:14Z</time>
      </trkpt>
      <trkpt lat="47.26255" lon="-1.59896">
        <ele>4.4</ele>
        <time>2012-01-12T09:21:17Z</time>
      </trkpt>
      <trkpt lat="47.26256" lon="-1.59891">
        <ele>4.5</ele>
        <time>2012-01-12T09:21:19Z</time>
      </trkpt>
      <trkpt lat="47.26256" lon="-1.59886">
        <ele>4.5</ele>
        <time>2012-01-12T09:21:21Z</time>
      </trkpt>
      <trkpt lat="47.26257" lon="-1.5988">
        <ele>4.3</ele>
        <time>2012-01-12T09:21:24Z</time>
      </trkpt>
      <trkpt lat="47.26257" lon="-1.59873">
        <ele>4.6</ele>
        <time>2012-01-12T09:21:28Z</time>
      </trkpt>
      <trkpt lat="47.26258" lon="-1.59868">
        <ele>5.1</ele>
        <time>2012-01-12T09:21:31Z</time>
      </trkpt>
      <trkpt lat="47.26258" lon="-1.59862">
        <ele>5.3</ele>
        <time>2012-01-12T09:21:34Z</time>
      </trkpt>
      <trkpt lat="47.26258" lon="-1.5986">
        <ele>5.3</ele>
        <time>2012-01-12T09:21:35Z</time>
      </trkpt>
      <trkpt lat="47.26258" lon="-1.5985">
        <ele>4.5</ele>
        <time>2012-01-12T09:21:40Z</time>
      </trkpt>
      <trkpt lat="47.26258" lon="-1.59845">
        <ele>4.3</ele>
        <time>2012-01-12T09:21:42Z</time>
      </trkpt>
      <trkpt lat="47.26257" lon="-1.59839">
        <ele>5.4</ele>
        <time>2012-01-12T09:21:45Z</time>
      </trkpt>
      <trkpt lat="47.26258" lon="-1.59832">
        <ele>5.3</ele>
        <time>2012-01-12T09:21:48Z</time>
      </trkpt>
      <trkpt lat="47.26257" lon="-1.59826">
        <ele>4.9</ele>
        <time>2012-01-12T09:21:51Z</time>
      </trkpt>
      <trkpt lat="47.26255" lon="-1.59822">
        <ele>4.4</ele>
        <time>2012-01-12T09:21:54Z</time>
      </trkpt>
      <trkpt lat="47.26255" lon="-1.59815">
        <ele>5.1</ele>
        <time>2012-01-12T09:22:03Z</time>
      </trkpt>
      <trkpt lat="47.26254" lon="-1.59809">
        <ele>6.1</ele>
        <time>2012-01-12T09:22:16Z</time>
      </trkpt>
      <trkpt lat="47.26256" lon="-1.59804">
        <ele>5.5</ele>
        <time>2012-01-12T09:22:25Z</time>
      </trkpt>
      <trkpt lat="47.26259" lon="-1.59801">
        <ele>5.8</ele>
        <time>2012-01-12T09:22:29Z</time>
      </trkpt>
      <trkpt lat="47.26263" lon="-1.59798">
        <ele>5.8</ele>
        <time>2012-01-12T09:22:32Z</time>
      </trkpt>
      <trkpt lat="47.26266" lon="-1.59795">
        <ele>6</ele>
        <time>2012-01-12T09:22:35Z</time>
      </trkpt>
      <trkpt lat="47.26267" lon="-1.59795">
        <ele>6.1</ele>
        <time>2012-01-12T09:22:36Z</time>
      </trkpt>
      <trkpt lat="47.26273" lon="-1.59789">
        <ele>6.8</ele>
        <time>2012-01-12T09:22:42Z</time>
      </trkpt>
      <trkpt lat="47.26268" lon="-1.5979">
        <ele>6.6</ele>
        <time>2012-01-12T09:23:21Z</time>
      </trkpt>
      <trkpt lat="47.26264" lon="-1.59789">
        <ele>6.5</ele>
        <time>2012-01-12T09:24:06Z</time>
      </trkpt>
      <trkpt lat="47.26264" lon="-1.59789">
        <ele>6.4</ele>
        <time>2012-01-12T09:24:07Z</time>
      </trkpt>
      <trkpt lat="47.26264" lon="-1.5979">
        <ele>7</ele>
        <time>2012-01-12T09:25:37Z</time>
      </trkpt>
      <trkpt lat="47.26264" lon="-1.5979">
        <ele>7</ele>
        <time>2012-01-12T09:25:38Z</time>
      </trkpt>
      <trkpt lat="47.26272" lon="-1.59787">
        <ele>6.1</ele>
        <time>2012-01-12T09:25:57Z</time>
      </trkpt>
      <trkpt lat="47.26276" lon="-1.59784">
        <ele>6.9</ele>
        <time>2012-01-12T09:26:01Z</time>
      </trkpt>
      <trkpt lat="47.26279" lon="-1.59782">
        <ele>7.8</ele>
        <time>2012-01-12T09:26:04Z</time>
      </trkpt>
      <trkpt lat="47.26283" lon="-1.59779">
        <ele>8.3</ele>
        <time>2012-01-12T09:26:07Z</time>
      </trkpt>
      <trkpt lat="47.26287" lon="-1.59778">
        <ele>8.1</ele>
        <time>2012-01-12T09:26:10Z</time>
      </trkpt>
      <trkpt lat="47.2629" lon="-1.59774">
        <ele>8.8</ele>
        <time>2012-01-12T09:26:15Z</time>
      </trkpt>
      <trkpt lat="47.26291" lon="-1.59768">
        <ele>8.6</ele>
        <time>2012-01-12T09:26:26Z</time>
      </trkpt>
      <trkpt lat="47.26294" lon="-1.59764">
        <ele>8.1</ele>
        <time>2012-01-12T09:26:46Z</time>
      </trkpt>
      <trkpt lat="47.26295" lon="-1.59763">
        <ele>8.3</ele>
        <time>2012-01-12T09:26:47Z</time>
      </trkpt>
      <trkpt lat="47.263" lon="-1.59756">
        <ele>8.8</ele>
        <time>2012-01-12T09:26:54Z</time>
      </trkpt>
      <trkpt lat="47.26304" lon="-1.59753">
        <ele>9</ele>
        <time>2012-01-12T09:26:57Z</time>
      </trkpt>
      <trkpt lat="47.26307" lon="-1.59748">
        <ele>9.6</ele>
        <time>2012-01-12T09:27:00Z</time>
      </trkpt>
      <trkpt lat="47.26309" lon="-1.59743">
        <ele>9.8</ele>
        <time>2012-01-12T09:27:04Z</time>
      </trkpt>
      <trkpt lat="47.26312" lon="-1.59738">
        <ele>9.8</ele>
        <time>2012-01-12T09:27:08Z</time>
      </trkpt>
      <trkpt lat="47.26315" lon="-1.59734">
        <ele>10.3</ele>
        <time>2012-01-12T09:27:11Z</time>
      </trkpt>
      <trkpt lat="47.26317" lon="-1.59732">
        <ele>10.6</ele>
        <time>2012-01-12T09:27:13Z</time>
      </trkpt>
      <trkpt lat="47.2632" lon="-1.5973">
        <ele>10.6</ele>
        <time>2012-01-12T09:27:15Z</time>
      </trkpt>
      <trkpt lat="47.26324" lon="-1.59728">
        <ele>10.8</ele>
        <time>2012-01-12T09:27:17Z</time>
      </trkpt>
      <trkpt lat="47.26327" lon="-1.59727">
        <ele>11.6</ele>
        <time>2012-01-12T09:27:19Z</time>
      </trkpt>
      <trkpt lat="47.26331" lon="-1.59724">
        <ele>12</ele>
        <time>2012-01-12T09:27:21Z</time>
      </trkpt>
      <trkpt lat="47.26334" lon="-1.59721">
        <ele>12.1</ele>
        <time>2012-01-12T09:27:23Z</time>
      </trkpt>
      <trkpt lat="47.26337" lon="-1.59718">
        <ele>12.8</ele>
        <time>2012-01-12T09:27:25Z</time>
      </trkpt>
      <trkpt lat="47.26339" lon="-1.59716">
        <ele>13.1</ele>
        <time>2012-01-12T09:27:27Z</time>
      </trkpt>
      <trkpt lat="47.26342" lon="-1.59713">
        <ele>13.6</ele>
        <time>2012-01-12T09:27:29Z</time>
      </trkpt>
      <trkpt lat="47.26345" lon="-1.59709">
        <ele>14.1</ele>
        <time>2012-01-12T09:27:31Z</time>
      </trkpt>
      <trkpt lat="47.26348" lon="-1.59706">
        <ele>14.5</ele>
        <time>2012-01-12T09:27:33Z</time>
      </trkpt>
      <trkpt lat="47.26351" lon="-1.59704">
        <ele>14.3</ele>
        <time>2012-01-12T09:27:34Z</time>
      </trkpt>
      <trkpt lat="47.26355" lon="-1.59702">
        <ele>14</ele>
        <time>2012-01-12T09:27:36Z</time>
      </trkpt>
      <trkpt lat="47.26359" lon="-1.597">
        <ele>13.8</ele>
        <time>2012-01-12T09:27:38Z</time>
      </trkpt>
      <trkpt lat="47.26362" lon="-1.59699">
        <ele>14.1</ele>
        <time>2012-01-12T09:27:40Z</time>
      </trkpt>
      <trkpt lat="47.26366" lon="-1.59698">
        <ele>14.5</ele>
        <time>2012-01-12T09:27:42Z</time>
      </trkpt>
      <trkpt lat="47.26369" lon="-1.59696">
        <ele>14.6</ele>
        <time>2012-01-12T09:27:44Z</time>
      </trkpt>
      <trkpt lat="47.26372" lon="-1.59695">
        <ele>15</ele>
        <time>2012-01-12T09:27:46Z</time>
      </trkpt>
      <trkpt lat="47.26376" lon="-1.59694">
        <ele>15.1</ele>
        <time>2012-01-12T09:27:48Z</time>
      </trkpt>
      <trkpt lat="47.26378" lon="-1.59694">
        <ele>15.3</ele>
        <time>2012-01-12T09:27:49Z</time>
      </trkpt>
      <trkpt lat="47.26383" lon="-1.59693">
        <ele>15</ele>
        <time>2012-01-12T09:27:52Z</time>
      </trkpt>
      <trkpt lat="47.26387" lon="-1.59692">
        <ele>15.1</ele>
        <time>2012-01-12T09:27:55Z</time>
      </trkpt>
      <trkpt lat="47.26391" lon="-1.59692">
        <ele>15.3</ele>
        <time>2012-01-12T09:27:58Z</time>
      </trkpt>
      <trkpt lat="47.26395" lon="-1.59691">
        <ele>16</ele>
        <time>2012-01-12T09:28:01Z</time>
      </trkpt>
      <trkpt lat="47.26398" lon="-1.59689">
        <ele>15.6</ele>
        <time>2012-01-12T09:28:03Z</time>
      </trkpt>
      <trkpt lat="47.26401" lon="-1.59687">
        <ele>15.5</ele>
        <time>2012-01-12T09:28:05Z</time>
      </trkpt>
      <trkpt lat="47.26404" lon="-1.59683">
        <ele>15.6</ele>
        <time>2012-01-12T09:28:08Z</time>
      </trkpt>
      <trkpt lat="47.26407" lon="-1.59681">
        <ele>15.8</ele>
        <time>2012-01-12T09:28:10Z</time>
      </trkpt>
      <trkpt lat="47.26411" lon="-1.59678">
        <ele>15.8</ele>
        <time>2012-01-12T09:28:13Z</time>
      </trkpt>
      <trkpt lat="47.26416" lon="-1.59678">
        <ele>15</ele>
        <time>2012-01-12T09:28:16Z</time>
      </trkpt>
      <trkpt lat="47.26419" lon="-1.59681">
        <ele>15.6</ele>
        <time>2012-01-12T09:28:19Z</time>
      </trkpt>
      <trkpt lat="47.26423" lon="-1.59682">
        <ele>15.6</ele>
        <time>2012-01-12T09:28:22Z</time>
      </trkpt>
      <trkpt lat="47.26426" lon="-1.59685">
        <ele>15.6</ele>
        <time>2012-01-12T09:28:25Z</time>
      </trkpt>
      <trkpt lat="47.26429" lon="-1.59688">
        <ele>15.8</ele>
        <time>2012-01-12T09:28:28Z</time>
      </trkpt>
      <trkpt lat="47.26433" lon="-1.59691">
        <ele>15.6</ele>
        <time>2012-01-12T09:28:31Z</time>
      </trkpt>
      <trkpt lat="47.26437" lon="-1.59693">
        <ele>15.8</ele>
        <time>2012-01-12T09:28:34Z</time>
      </trkpt>
      <trkpt lat="47.2644" lon="-1.59695">
        <ele>16.2</ele>
        <time>2012-01-12T09:28:36Z</time>
      </trkpt>
      <trkpt lat="47.26442" lon="-1.59698">
        <ele>16.5</ele>
        <time>2012-01-12T09:28:38Z</time>
      </trkpt>
      <trkpt lat="47.26445" lon="-1.59702">
        <ele>16.6</ele>
        <time>2012-01-12T09:28:40Z</time>
      </trkpt>
      <trkpt lat="47.26449" lon="-1.59705">
        <ele>16.3</ele>
        <time>2012-01-12T09:28:44Z</time>
      </trkpt>
      <trkpt lat="47.26452" lon="-1.59706">
        <ele>16.2</ele>
        <time>2012-01-12T09:28:46Z</time>
      </trkpt>
      <trkpt lat="47.26456" lon="-1.59705">
        <ele>17.2</ele>
        <time>2012-01-12T09:28:49Z</time>
      </trkpt>
      <trkpt lat="47.26457" lon="-1.59705">
        <ele>17</ele>
        <time>2012-01-12T09:28:50Z</time>
      </trkpt>
      <trkpt lat="47.26463" lon="-1.59708">
        <ele>17.3</ele>
        <time>2012-01-12T09:28:55Z</time>
      </trkpt>
      <trkpt lat="47.26466" lon="-1.59712">
        <ele>17.7</ele>
        <time>2012-01-12T09:28:58Z</time>
      </trkpt>
      <trkpt lat="47.26469" lon="-1.59717">
        <ele>16.8</ele>
        <time>2012-01-12T09:29:02Z</time>
      </trkpt>
      <trkpt lat="47.2647" lon="-1.59721">
        <ele>16.7</ele>
        <time>2012-01-12T09:29:05Z</time>
      </trkpt>
      <trkpt lat="47.26472" lon="-1.59726">
        <ele>17.3</ele>
        <time>2012-01-12T09:29:08Z</time>
      </trkpt>
      <trkpt lat="47.26472" lon="-1.59732">
        <ele>17.7</ele>
        <time>2012-01-12T09:29:11Z</time>
      </trkpt>
      <trkpt lat="47.26472" lon="-1.59738">
        <ele>17.5</ele>
        <time>2012-01-12T09:29:15Z</time>
      </trkpt>
      <trkpt lat="47.26473" lon="-1.59743">
        <ele>18.1</ele>
        <time>2012-01-12T09:29:18Z</time>
      </trkpt>
      <trkpt lat="47.26475" lon="-1.59747">
        <ele>18.2</ele>
        <time>2012-01-12T09:29:21Z</time>
      </trkpt>
      <trkpt lat="47.26477" lon="-1.59752">
        <ele>17.8</ele>
        <time>2012-01-12T09:29:24Z</time>
      </trkpt>
      <trkpt lat="47.26478" lon="-1.59756">
        <ele>18.2</ele>
        <time>2012-01-12T09:29:27Z</time>
      </trkpt>
      <trkpt lat="47.26481" lon="-1.59761">
        <ele>17.7</ele>
        <time>2012-01-12T09:29:31Z</time>
      </trkpt>
      <trkpt lat="47.26482" lon="-1.59766">
        <ele>18.3</ele>
        <time>2012-01-12T09:29:35Z</time>
      </trkpt>
      <trkpt lat="47.26485" lon="-1.5977">
        <ele>18.6</ele>
        <time>2012-01-12T09:29:38Z</time>
      </trkpt>
      <trkpt lat="47.26487" lon="-1.59774">
        <ele>19</ele>
        <time>2012-01-12T09:29:42Z</time>
      </trkpt>
      <trkpt lat="47.26491" lon="-1.59778">
        <ele>19.3</ele>
        <time>2012-01-12T09:29:46Z</time>
      </trkpt>
      <trkpt lat="47.26494" lon="-1.59783">
        <ele>19.7</ele>
        <time>2012-01-12T09:29:50Z</time>
      </trkpt>
      <trkpt lat="47.26494" lon="-1.59784">
        <ele>19.7</ele>
        <time>2012-01-12T09:29:51Z</time>
      </trkpt>
      <trkpt lat="47.26499" lon="-1.5979">
        <ele>19.7</ele>
        <time>2012-01-12T09:29:56Z</time>
      </trkpt>
      <trkpt lat="47.26502" lon="-1.59794">
        <ele>20.1</ele>
        <time>2012-01-12T09:29:59Z</time>
      </trkpt>
      <trkpt lat="47.26504" lon="-1.59798">
        <ele>20</ele>
        <time>2012-01-12T09:30:02Z</time>
      </trkpt>
      <trkpt lat="47.26507" lon="-1.59802">
        <ele>19.8</ele>
        <time>2012-01-12T09:30:05Z</time>
      </trkpt>
      <trkpt lat="47.26509" lon="-1.59806">
        <ele>20</ele>
        <time>2012-01-12T09:30:08Z</time>
      </trkpt>
      <trkpt lat="47.26512" lon="-1.5981">
        <ele>20.8</ele>
        <time>2012-01-12T09:30:12Z</time>
      </trkpt>
      <trkpt lat="47.26516" lon="-1.59812">
        <ele>21.2</ele>
        <time>2012-01-12T09:30:16Z</time>
      </trkpt>
      <trkpt lat="47.2652" lon="-1.59815">
        <ele>20.7</ele>
        <time>2012-01-12T09:30:19Z</time>
      </trkpt>
      <trkpt lat="47.26524" lon="-1.59816">
        <ele>20.7</ele>
        <time>2012-01-12T09:30:23Z</time>
      </trkpt>
      <trkpt lat="47.26528" lon="-1.59818">
        <ele>20.7</ele>
        <time>2012-01-12T09:30:27Z</time>
      </trkpt>
      <trkpt lat="47.26531" lon="-1.59822">
        <ele>21.3</ele>
        <time>2012-01-12T09:30:31Z</time>
      </trkpt>
      <trkpt lat="47.26534" lon="-1.59826">
        <ele>21.3</ele>
        <time>2012-01-12T09:30:34Z</time>
      </trkpt>
      <trkpt lat="47.26537" lon="-1.59829">
        <ele>20.8</ele>
        <time>2012-01-12T09:30:37Z</time>
      </trkpt>
      <trkpt lat="47.2654" lon="-1.59832">
        <ele>20.7</ele>
        <time>2012-01-12T09:30:40Z</time>
      </trkpt>
      <trkpt lat="47.26543" lon="-1.59837">
        <ele>21.3</ele>
        <time>2012-01-12T09:30:44Z</time>
      </trkpt>
      <trkpt lat="47.26546" lon="-1.59839">
        <ele>21.8</ele>
        <time>2012-01-12T09:30:48Z</time>
      </trkpt>
      <trkpt lat="47.26549" lon="-1.59843">
        <ele>22</ele>
        <time>2012-01-12T09:30:53Z</time>
      </trkpt>
      <trkpt lat="47.2655" lon="-1.59844">
        <ele>22</ele>
        <time>2012-01-12T09:30:54Z</time>
      </trkpt>
      <trkpt lat="47.26555" lon="-1.5985">
        <ele>22.2</ele>
        <time>2012-01-12T09:31:00Z</time>
      </trkpt>
      <trkpt lat="47.26558" lon="-1.59854">
        <ele>22.2</ele>
        <time>2012-01-12T09:31:03Z</time>
      </trkpt>
      <trkpt lat="47.26562" lon="-1.59858">
        <ele>22.5</ele>
        <time>2012-01-12T09:31:06Z</time>
      </trkpt>
      <trkpt lat="47.26565" lon="-1.59861">
        <ele>22.7</ele>
        <time>2012-01-12T09:31:09Z</time>
      </trkpt>
      <trkpt lat="47.26568" lon="-1.59865">
        <ele>22.2</ele>
        <time>2012-01-12T09:31:12Z</time>
      </trkpt>
      <trkpt lat="47.26571" lon="-1.59867">
        <ele>22.7</ele>
        <time>2012-01-12T09:31:15Z</time>
      </trkpt>
      <trkpt lat="47.26575" lon="-1.59871">
        <ele>22.8</ele>
        <time>2012-01-12T09:31:19Z</time>
      </trkpt>
      <trkpt lat="47.26578" lon="-1.59875">
        <ele>23.2</ele>
        <time>2012-01-12T09:31:22Z</time>
      </trkpt>
      <trkpt lat="47.26581" lon="-1.59878">
        <ele>23.8</ele>
        <time>2012-01-12T09:31:26Z</time>
      </trkpt>
      <trkpt lat="47.26584" lon="-1.59881">
        <ele>23.7</ele>
        <time>2012-01-12T09:31:29Z</time>
      </trkpt>
      <trkpt lat="47.26587" lon="-1.59884">
        <ele>23.5</ele>
        <time>2012-01-12T09:31:32Z</time>
      </trkpt>
      <trkpt lat="47.26591" lon="-1.59888">
        <ele>24</ele>
        <time>2012-01-12T09:31:36Z</time>
      </trkpt>
      <trkpt lat="47.26594" lon="-1.59891">
        <ele>24.1</ele>
        <time>2012-01-12T09:31:39Z</time>
      </trkpt>
      <trkpt lat="47.26597" lon="-1.59894">
        <ele>24.6</ele>
        <time>2012-01-12T09:31:43Z</time>
      </trkpt>
      <trkpt lat="47.266" lon="-1.59897">
        <ele>24.6</ele>
        <time>2012-01-12T09:31:46Z</time>
      </trkpt>
      <trkpt lat="47.26604" lon="-1.599">
        <ele>24.8</ele>
        <time>2012-01-12T09:31:49Z</time>
      </trkpt>
      <trkpt lat="47.26606" lon="-1.59903">
        <ele>25.2</ele>
        <time>2012-01-12T09:31:52Z</time>
      </trkpt>
      <trkpt lat="47.2661" lon="-1.59907">
        <ele>24.7</ele>
        <time>2012-01-12T09:31:56Z</time>
      </trkpt>
      <trkpt lat="47.26611" lon="-1.59908">
        <ele>24.7</ele>
        <time>2012-01-12T09:31:57Z</time>
      </trkpt>
      <trkpt lat="47.26616" lon="-1.59915">
        <ele>25.5</ele>
        <time>2012-01-12T09:32:03Z</time>
      </trkpt>
      <trkpt lat="47.26619" lon="-1.59918">
        <ele>25.7</ele>
        <time>2012-01-12T09:32:06Z</time>
      </trkpt>
      <trkpt lat="47.26622" lon="-1.59922">
        <ele>26.2</ele>
        <time>2012-01-12T09:32:09Z</time>
      </trkpt>
      <trkpt lat="47.26626" lon="-1.59925">
        <ele>26.2</ele>
        <time>2012-01-12T09:32:12Z</time>
      </trkpt>
      <trkpt lat="47.26629" lon="-1.59929">
        <ele>27</ele>
        <time>2012-01-12T09:32:16Z</time>
      </trkpt>
      <trkpt lat="47.26631" lon="-1.59933">
        <ele>27.1</ele>
        <time>2012-01-12T09:32:19Z</time>
      </trkpt>
      <trkpt lat="47.26635" lon="-1.59935">
        <ele>27.6</ele>
        <time>2012-01-12T09:32:22Z</time>
      </trkpt>
      <trkpt lat="47.26639" lon="-1.59938">
        <ele>27.7</ele>
        <time>2012-01-12T09:32:25Z</time>
      </trkpt>
      <trkpt lat="47.26643" lon="-1.5994">
        <ele>28.7</ele>
        <time>2012-01-12T09:32:29Z</time>
      </trkpt>
      <trkpt lat="47.26647" lon="-1.59941">
        <ele>28.8</ele>
        <time>2012-01-12T09:32:32Z</time>
      </trkpt>
      <trkpt lat="47.26651" lon="-1.59942">
        <ele>29.1</ele>
        <time>2012-01-12T09:32:35Z</time>
      </trkpt>
      <trkpt lat="47.26655" lon="-1.59943">
        <ele>29.2</ele>
        <time>2012-01-12T09:32:38Z</time>
      </trkpt>
      <trkpt lat="47.26658" lon="-1.59943">
        <ele>29.3</ele>
        <time>2012-01-12T09:32:41Z</time>
      </trkpt>
      <trkpt lat="47.26662" lon="-1.59942">
        <ele>29.2</ele>
        <time>2012-01-12T09:32:45Z</time>
      </trkpt>
      <trkpt lat="47.26666" lon="-1.59939">
        <ele>28.6</ele>
        <time>2012-01-12T09:32:49Z</time>
      </trkpt>
      <trkpt lat="47.2667" lon="-1.59936">
        <ele>29.3</ele>
        <time>2012-01-12T09:32:56Z</time>
      </trkpt>
      <trkpt lat="47.26674" lon="-1.59932">
        <ele>28.1</ele>
        <time>2012-01-12T09:33:08Z</time>
      </trkpt>
      <trkpt lat="47.26675" lon="-1.59932">
        <ele>28.2</ele>
        <time>2012-01-12T09:33:09Z</time>
      </trkpt>
      <trkpt lat="47.26682" lon="-1.59933">
        <ele>28.5</ele>
        <time>2012-01-12T09:33:15Z</time>
      </trkpt>
      <trkpt lat="47.26685" lon="-1.59934">
        <ele>28.6</ele>
        <time>2012-01-12T09:33:18Z</time>
      </trkpt>
      <trkpt lat="47.26688" lon="-1.59935">
        <ele>28.6</ele>
        <time>2012-01-12T09:33:21Z</time>
      </trkpt>
      <trkpt lat="47.26692" lon="-1.59936">
        <ele>28.6</ele>
        <time>2012-01-12T09:33:24Z</time>
      </trkpt>
      <trkpt lat="47.26696" lon="-1.59938">
        <ele>29.2</ele>
        <time>2012-01-12T09:33:31Z</time>
      </trkpt>
      <trkpt lat="47.26696" lon="-1.59944">
        <ele>29</ele>
        <time>2012-01-12T09:33:50Z</time>
      </trkpt>
      <trkpt lat="47.26694" lon="-1.5995">
        <ele>28.2</ele>
        <time>2012-01-12T09:34:06Z</time>
      </trkpt>
      <trkpt lat="47.2669" lon="-1.59948">
        <ele>28.5</ele>
        <time>2012-01-12T09:34:26Z</time>
      </trkpt>
      <trkpt lat="47.2669" lon="-1.59947">
        <ele>28.5</ele>
        <time>2012-01-12T09:34:27Z</time>
      </trkpt>
      <trkpt lat="47.26686" lon="-1.59936">
        <ele>28.3</ele>
        <time>2012-01-12T09:34:41Z</time>
      </trkpt>
      <trkpt lat="47.26684" lon="-1.59932">
        <ele>28.3</ele>
        <time>2012-01-12T09:34:48Z</time>
      </trkpt>
      <trkpt lat="47.2668" lon="-1.59928">
        <ele>28.2</ele>
        <time>2012-01-12T09:34:58Z</time>
      </trkpt>
      <trkpt lat="47.26677" lon="-1.59923">
        <ele>29.6</ele>
        <time>2012-01-12T09:35:12Z</time>
      </trkpt>
      <trkpt lat="47.26673" lon="-1.59924">
        <ele>28.3</ele>
        <time>2012-01-12T09:35:37Z</time>
      </trkpt>
      <trkpt lat="47.26673" lon="-1.59924">
        <ele>28.2</ele>
        <time>2012-01-12T09:35:38Z</time>
      </trkpt>
      <trkpt lat="47.26677" lon="-1.59914">
        <ele>29.6</ele>
        <time>2012-01-12T09:35:56Z</time>
      </trkpt>
      <trkpt lat="47.2668" lon="-1.59909">
        <ele>28.2</ele>
        <time>2012-01-12T09:36:00Z</time>
      </trkpt>
      <trkpt lat="47.26682" lon="-1.59905">
        <ele>28.2</ele>
        <time>2012-01-12T09:36:05Z</time>
      </trkpt>
      <trkpt lat="47.26685" lon="-1.59902">
        <ele>28.2</ele>
        <time>2012-01-12T09:36:09Z</time>
      </trkpt>
      <trkpt lat="47.26687" lon="-1.59897">
        <ele>28.3</ele>
        <time>2012-01-12T09:36:13Z</time>
      </trkpt>
      <trkpt lat="47.26686" lon="-1.59891">
        <ele>28.1</ele>
        <time>2012-01-12T09:36:17Z</time>
      </trkpt>
      <trkpt lat="47.26685" lon="-1.59886">
        <ele>28.1</ele>
        <time>2012-01-12T09:36:21Z</time>
      </trkpt>
      <trkpt lat="47.26685" lon="-1.5988">
        <ele>27.7</ele>
        <time>2012-01-12T09:36:25Z</time>
      </trkpt>
      <trkpt lat="47.26684" lon="-1.59874">
        <ele>27.8</ele>
        <time>2012-01-12T09:36:28Z</time>
      </trkpt>
      <trkpt lat="47.26685" lon="-1.59868">
        <ele>28.8</ele>
        <time>2012-01-12T09:36:32Z</time>
      </trkpt>
      <trkpt lat="47.26686" lon="-1.59863">
        <ele>29.2</ele>
        <time>2012-01-12T09:36:35Z</time>
      </trkpt>
      <trkpt lat="47.26687" lon="-1.59858">
        <ele>29.2</ele>
        <time>2012-01-12T09:36:38Z</time>
      </trkpt>
      <trkpt lat="47.26687" lon="-1.59856">
        <ele>29.5</ele>
        <time>2012-01-12T09:36:39Z</time>
      </trkpt>
      <trkpt lat="47.26689" lon="-1.59847">
        <ele>30.6</ele>
        <time>2012-01-12T09:36:44Z</time>
      </trkpt>
      <trkpt lat="47.26691" lon="-1.59841">
        <ele>31</ele>
        <time>2012-01-12T09:36:47Z</time>
      </trkpt>
      <trkpt lat="47.26693" lon="-1.59837">
        <ele>30.8</ele>
        <time>2012-01-12T09:36:50Z</time>
      </trkpt>
      <trkpt lat="47.26695" lon="-1.59831">
        <ele>31.1</ele>
        <time>2012-01-12T09:36:53Z</time>
      </trkpt>
      <trkpt lat="47.26697" lon="-1.59828">
        <ele>31.5</ele>
        <time>2012-01-12T09:36:55Z</time>
      </trkpt>
      <trkpt lat="47.26699" lon="-1.59823">
        <ele>32</ele>
        <time>2012-01-12T09:36:58Z</time>
      </trkpt>
      <trkpt lat="47.26702" lon="-1.59818">
        <ele>31.8</ele>
        <time>2012-01-12T09:37:01Z</time>
      </trkpt>
      <trkpt lat="47.26705" lon="-1.59814">
        <ele>32</ele>
        <time>2012-01-12T09:37:04Z</time>
      </trkpt>
      <trkpt lat="47.26708" lon="-1.5981">
        <ele>32.7</ele>
        <time>2012-01-12T09:37:07Z</time>
      </trkpt>
      <trkpt lat="47.26711" lon="-1.59806">
        <ele>32.9</ele>
        <time>2012-01-12T09:37:10Z</time>
      </trkpt>
      <trkpt lat="47.26714" lon="-1.59802">
        <ele>32.7</ele>
        <time>2012-01-12T09:37:13Z</time>
      </trkpt>
      <trkpt lat="47.26717" lon="-1.59798">
        <ele>33.2</ele>
        <time>2012-01-12T09:37:16Z</time>
      </trkpt>
      <trkpt lat="47.26719" lon="-1.59792">
        <ele>34.5</ele>
        <time>2012-01-12T09:37:20Z</time>
      </trkpt>
      <trkpt lat="47.2672" lon="-1.59786">
        <ele>34.4</ele>
        <time>2012-01-12T09:37:24Z</time>
      </trkpt>
      <trkpt lat="47.26723" lon="-1.59783">
        <ele>35</ele>
        <time>2012-01-12T09:37:27Z</time>
      </trkpt>
      <trkpt lat="47.26726" lon="-1.59779">
        <ele>35.2</ele>
        <time>2012-01-12T09:37:30Z</time>
      </trkpt>
      <trkpt lat="47.26729" lon="-1.59776">
        <ele>34.9</ele>
        <time>2012-01-12T09:37:33Z</time>
      </trkpt>
      <trkpt lat="47.26732" lon="-1.59772">
        <ele>34.9</ele>
        <time>2012-01-12T09:37:36Z</time>
      </trkpt>
      <trkpt lat="47.26734" lon="-1.59768">
        <ele>34.7</ele>
        <time>2012-01-12T09:37:39Z</time>
      </trkpt>
      <trkpt lat="47.26735" lon="-1.59767">
        <ele>35.2</ele>
        <time>2012-01-12T09:37:40Z</time>
      </trkpt>
      <trkpt lat="47.26741" lon="-1.5976">
        <ele>36.2</ele>
        <time>2012-01-12T09:37:46Z</time>
      </trkpt>
      <trkpt lat="47.26743" lon="-1.59756">
        <ele>36.5</ele>
        <time>2012-01-12T09:37:49Z</time>
      </trkpt>
      <trkpt lat="47.26746" lon="-1.59753">
        <ele>37.7</ele>
        <time>2012-01-12T09:37:52Z</time>
      </trkpt>
      <trkpt lat="47.26749" lon="-1.59749">
        <ele>37.2</ele>
        <time>2012-01-12T09:37:55Z</time>
      </trkpt>
      <trkpt lat="47.26752" lon="-1.59745">
        <ele>37.7</ele>
        <time>2012-01-12T09:37:58Z</time>
      </trkpt>
      <trkpt lat="47.26754" lon="-1.5974">
        <ele>38.4</ele>
        <time>2012-01-12T09:38:01Z</time>
      </trkpt>
      <trkpt lat="47.26755" lon="-1.59735">
        <ele>39.2</ele>
        <time>2012-01-12T09:38:04Z</time>
      </trkpt>
      <trkpt lat="47.26756" lon="-1.59729">
        <ele>39</ele>
        <time>2012-01-12T09:38:07Z</time>
      </trkpt>
      <trkpt lat="47.26757" lon="-1.59724">
        <ele>38.9</ele>
        <time>2012-01-12T09:38:10Z</time>
      </trkpt>
      <trkpt lat="47.26757" lon="-1.59719">
        <ele>38.5</ele>
        <time>2012-01-12T09:38:13Z</time>
      </trkpt>
      <trkpt lat="47.26756" lon="-1.59713">
        <ele>38.4</ele>
        <time>2012-01-12T09:38:18Z</time>
      </trkpt>
      <trkpt lat="47.26756" lon="-1.59706">
        <ele>38.7</ele>
        <time>2012-01-12T09:38:30Z</time>
      </trkpt>
      <trkpt lat="47.26754" lon="-1.59701">
        <ele>38</ele>
        <time>2012-01-12T09:39:10Z</time>
      </trkpt>
      <trkpt lat="47.26754" lon="-1.597">
        <ele>38</ele>
        <time>2012-01-12T09:39:11Z</time>
      </trkpt>
      <trkpt lat="47.26755" lon="-1.5969">
        <ele>38.7</ele>
        <time>2012-01-12T09:39:20Z</time>
      </trkpt>
      <trkpt lat="47.26756" lon="-1.59685">
        <ele>38.7</ele>
        <time>2012-01-12T09:39:23Z</time>
      </trkpt>
      <trkpt lat="47.26757" lon="-1.5968">
        <ele>38.5</ele>
        <time>2012-01-12T09:39:26Z</time>
      </trkpt>
      <trkpt lat="47.26758" lon="-1.59674">
        <ele>38.9</ele>
        <time>2012-01-12T09:39:29Z</time>
      </trkpt>
      <trkpt lat="47.26759" lon="-1.59668">
        <ele>39.4</ele>
        <time>2012-01-12T09:39:32Z</time>
      </trkpt>
      <trkpt lat="47.26761" lon="-1.59662">
        <ele>39.5</ele>
        <time>2012-01-12T09:39:35Z</time>
      </trkpt>
      <trkpt lat="47.26762" lon="-1.59657">
        <ele>39.2</ele>
        <time>2012-01-12T09:39:38Z</time>
      </trkpt>
      <trkpt lat="47.26764" lon="-1.59651">
        <ele>39</ele>
        <time>2012-01-12T09:39:41Z</time>
      </trkpt>
      <trkpt lat="47.26765" lon="-1.59645">
        <ele>39</ele>
        <time>2012-01-12T09:39:44Z</time>
      </trkpt>
      <trkpt lat="47.26766" lon="-1.5964">
        <ele>39.4</ele>
        <time>2012-01-12T09:39:47Z</time>
      </trkpt>
      <trkpt lat="47.26767" lon="-1.59634">
        <ele>39.2</ele>
        <time>2012-01-12T09:39:50Z</time>
      </trkpt>
      <trkpt lat="47.26769" lon="-1.59629">
        <ele>39</ele>
        <time>2012-01-12T09:39:53Z</time>
      </trkpt>
      <trkpt lat="47.26771" lon="-1.59623">
        <ele>38.9</ele>
        <time>2012-01-12T09:39:56Z</time>
      </trkpt>
      <trkpt lat="47.26773" lon="-1.59619">
        <ele>39.2</ele>
        <time>2012-01-12T09:39:59Z</time>
      </trkpt>
      <trkpt lat="47.26775" lon="-1.59614">
        <ele>39.5</ele>
        <time>2012-01-12T09:40:02Z</time>
      </trkpt>
      <trkpt lat="47.26777" lon="-1.59609">
        <ele>39.9</ele>
        <time>2012-01-12T09:40:05Z</time>
      </trkpt>
      <trkpt lat="47.2678" lon="-1.59604">
        <ele>40</ele>
        <time>2012-01-12T09:40:08Z</time>
      </trkpt>
      <trkpt lat="47.26782" lon="-1.596">
        <ele>40</ele>
        <time>2012-01-12T09:40:11Z</time>
      </trkpt>
      <trkpt lat="47.26783" lon="-1.59599">
        <ele>40</ele>
        <time>2012-01-12T09:40:12Z</time>
      </trkpt>
      <trkpt lat="47.26787" lon="-1.59592">
        <ele>40.2</ele>
        <time>2012-01-12T09:40:17Z</time>
      </trkpt>
      <trkpt lat="47.26789" lon="-1.59587">
        <ele>39.9</ele>
        <time>2012-01-12T09:40:21Z</time>
      </trkpt>
      <trkpt lat="47.26792" lon="-1.59584">
        <ele>40.4</ele>
        <time>2012-01-12T09:40:24Z</time>
      </trkpt>
      <trkpt lat="47.26795" lon="-1.5958">
        <ele>39.5</ele>
        <time>2012-01-12T09:40:28Z</time>
      </trkpt>
      <trkpt lat="47.26799" lon="-1.59576">
        <ele>39.7</ele>
        <time>2012-01-12T09:40:32Z</time>
      </trkpt>
      <trkpt lat="47.26802" lon="-1.59572">
        <ele>39.9</ele>
        <time>2012-01-12T09:40:35Z</time>
      </trkpt>
      <trkpt lat="47.26806" lon="-1.5957">
        <ele>40.5</ele>
        <time>2012-01-12T09:40:39Z</time>
      </trkpt>
      <trkpt lat="47.26809" lon="-1.59566">
        <ele>40</ele>
        <time>2012-01-12T09:40:42Z</time>
      </trkpt>
      <trkpt lat="47.26812" lon="-1.59562">
        <ele>39.7</ele>
        <time>2012-01-12T09:40:45Z</time>
      </trkpt>
      <trkpt lat="47.26816" lon="-1.59559">
        <ele>40.4</ele>
        <time>2012-01-12T09:40:48Z</time>
      </trkpt>
      <trkpt lat="47.26819" lon="-1.59556">
        <ele>40.5</ele>
        <time>2012-01-12T09:40:51Z</time>
      </trkpt>
      <trkpt lat="47.26822" lon="-1.59554">
        <ele>39.7</ele>
        <time>2012-01-12T09:40:54Z</time>
      </trkpt>
      <trkpt lat="47.26824" lon="-1.59552">
        <ele>40.2</ele>
        <time>2012-01-12T09:40:56Z</time>
      </trkpt>
      <trkpt lat="47.26827" lon="-1.5955">
        <ele>40.7</ele>
        <time>2012-01-12T09:40:58Z</time>
      </trkpt>
      <trkpt lat="47.26831" lon="-1.59547">
        <ele>40.9</ele>
        <time>2012-01-12T09:41:01Z</time>
      </trkpt>
      <trkpt lat="47.26834" lon="-1.59543">
        <ele>40.9</ele>
        <time>2012-01-12T09:41:04Z</time>
      </trkpt>
      <trkpt lat="47.26837" lon="-1.5954">
        <ele>41.5</ele>
        <time>2012-01-12T09:41:06Z</time>
      </trkpt>
      <trkpt lat="47.2684" lon="-1.59537">
        <ele>41.4</ele>
        <time>2012-01-12T09:41:09Z</time>
      </trkpt>
      <trkpt lat="47.26843" lon="-1.59535">
        <ele>41.4</ele>
        <time>2012-01-12T09:41:11Z</time>
      </trkpt>
      <trkpt lat="47.26847" lon="-1.59532">
        <ele>41.4</ele>
        <time>2012-01-12T09:41:14Z</time>
      </trkpt>
      <trkpt lat="47.26848" lon="-1.59531">
        <ele>41.4</ele>
        <time>2012-01-12T09:41:15Z</time>
      </trkpt>
      <trkpt lat="47.26855" lon="-1.59527">
        <ele>41.5</ele>
        <time>2012-01-12T09:41:20Z</time>
      </trkpt>
      <trkpt lat="47.26858" lon="-1.59526">
        <ele>42</ele>
        <time>2012-01-12T09:41:22Z</time>
      </trkpt>
      <trkpt lat="47.26861" lon="-1.59524">
        <ele>41.9</ele>
        <time>2012-01-12T09:41:24Z</time>
      </trkpt>
      <trkpt lat="47.26863" lon="-1.59522">
        <ele>41.9</ele>
        <time>2012-01-12T09:41:26Z</time>
      </trkpt>
      <trkpt lat="47.26866" lon="-1.59521">
        <ele>42.2</ele>
        <time>2012-01-12T09:41:28Z</time>
      </trkpt>
      <trkpt lat="47.2687" lon="-1.59519">
        <ele>42.4</ele>
        <time>2012-01-12T09:41:31Z</time>
      </trkpt>
      <trkpt lat="47.26874" lon="-1.59522">
        <ele>41.9</ele>
        <time>2012-01-12T09:41:36Z</time>
      </trkpt>
      <trkpt lat="47.26876" lon="-1.59527">
        <ele>41.2</ele>
        <time>2012-01-12T09:41:41Z</time>
      </trkpt>
      <trkpt lat="47.26878" lon="-1.59532">
        <ele>42.2</ele>
        <time>2012-01-12T09:41:45Z</time>
      </trkpt>
      <trkpt lat="47.2688" lon="-1.59537">
        <ele>42.7</ele>
        <time>2012-01-12T09:41:49Z</time>
      </trkpt>
      <trkpt lat="47.26883" lon="-1.59541">
        <ele>42.4</ele>
        <time>2012-01-12T09:41:52Z</time>
      </trkpt>
      <trkpt lat="47.26885" lon="-1.59546">
        <ele>41.9</ele>
        <time>2012-01-12T09:41:56Z</time>
      </trkpt>
      <trkpt lat="47.26886" lon="-1.59552">
        <ele>42</ele>
        <time>2012-01-12T09:41:59Z</time>
      </trkpt>
      <trkpt lat="47.26888" lon="-1.59557">
        <ele>42.5</ele>
        <time>2012-01-12T09:42:02Z</time>
      </trkpt>
      <trkpt lat="47.2689" lon="-1.59562">
        <ele>42.7</ele>
        <time>2012-01-12T09:42:05Z</time>
      </trkpt>
      <trkpt lat="47.26891" lon="-1.59567">
        <ele>42.2</ele>
        <time>2012-01-12T09:42:08Z</time>
      </trkpt>
      <trkpt lat="47.26892" lon="-1.59573">
        <ele>41.9</ele>
        <time>2012-01-12T09:42:11Z</time>
      </trkpt>
      <trkpt lat="47.26894" lon="-1.59579">
        <ele>42</ele>
        <time>2012-01-12T09:42:14Z</time>
      </trkpt>
      <trkpt lat="47.26894" lon="-1.59584">
        <ele>42.7</ele>
        <time>2012-01-12T09:42:16Z</time>
      </trkpt>
      <trkpt lat="47.26895" lon="-1.59586">
        <ele>42.9</ele>
        <time>2012-01-12T09:42:17Z</time>
      </trkpt>
      <trkpt lat="47.26896" lon="-1.59595">
        <ele>42.9</ele>
        <time>2012-01-12T09:42:22Z</time>
      </trkpt>
      <trkpt lat="47.26898" lon="-1.596">
        <ele>42.2</ele>
        <time>2012-01-12T09:42:25Z</time>
      </trkpt>
      <trkpt lat="47.26899" lon="-1.59606">
        <ele>41.9</ele>
        <time>2012-01-12T09:42:28Z</time>
      </trkpt>
      <trkpt lat="47.269" lon="-1.59612">
        <ele>41.7</ele>
        <time>2012-01-12T09:42:31Z</time>
      </trkpt>
      <trkpt lat="47.26901" lon="-1.59618">
        <ele>41</ele>
        <time>2012-01-12T09:42:34Z</time>
      </trkpt>
      <trkpt lat="47.26902" lon="-1.59624">
        <ele>41</ele>
        <time>2012-01-12T09:42:37Z</time>
      </trkpt>
      <trkpt lat="47.26902" lon="-1.5963">
        <ele>42</ele>
        <time>2012-01-12T09:42:40Z</time>
      </trkpt>
      <trkpt lat="47.26901" lon="-1.59637">
        <ele>42.9</ele>
        <time>2012-01-12T09:42:43Z</time>
      </trkpt>
      <trkpt lat="47.26901" lon="-1.59642">
        <ele>43.2</ele>
        <time>2012-01-12T09:42:45Z</time>
      </trkpt>
      <trkpt lat="47.26901" lon="-1.59648">
        <ele>42.5</ele>
        <time>2012-01-12T09:42:48Z</time>
      </trkpt>
      <trkpt lat="47.26901" lon="-1.59652">
        <ele>42.7</ele>
        <time>2012-01-12T09:42:50Z</time>
      </trkpt>
      <trkpt lat="47.26902" lon="-1.59659">
        <ele>42.9</ele>
        <time>2012-01-12T09:42:53Z</time>
      </trkpt>
      <trkpt lat="47.26903" lon="-1.59665">
        <ele>42</ele>
        <time>2012-01-12T09:42:56Z</time>
      </trkpt>
      <trkpt lat="47.26904" lon="-1.59669">
        <ele>41.2</ele>
        <time>2012-01-12T09:42:58Z</time>
      </trkpt>
      <trkpt lat="47.26904" lon="-1.59674">
        <ele>41.2</ele>
        <time>2012-01-12T09:43:00Z</time>
      </trkpt>
      <trkpt lat="47.26906" lon="-1.5968">
        <ele>41.5</ele>
        <time>2012-01-12T09:43:03Z</time>
      </trkpt>
      <trkpt lat="47.26907" lon="-1.59684">
        <ele>41.7</ele>
        <time>2012-01-12T09:43:05Z</time>
      </trkpt>
      <trkpt lat="47.26907" lon="-1.59689">
        <ele>43</ele>
        <time>2012-01-12T09:43:07Z</time>
      </trkpt>
      <trkpt lat="47.26908" lon="-1.59694">
        <ele>42.7</ele>
        <time>2012-01-12T09:43:09Z</time>
      </trkpt>
      <trkpt lat="47.2691" lon="-1.597">
        <ele>43</ele>
        <time>2012-01-12T09:43:12Z</time>
      </trkpt>
      <trkpt lat="47.26911" lon="-1.59704">
        <ele>44.4</ele>
        <time>2012-01-12T09:43:14Z</time>
      </trkpt>
      <trkpt lat="47.26913" lon="-1.5971">
        <ele>44.2</ele>
        <time>2012-01-12T09:43:16Z</time>
      </trkpt>
      <trkpt lat="47.26914" lon="-1.59714">
        <ele>44</ele>
        <time>2012-01-12T09:43:18Z</time>
      </trkpt>
      <trkpt lat="47.26915" lon="-1.59717">
        <ele>44</ele>
        <time>2012-01-12T09:43:19Z</time>
      </trkpt>
      <trkpt lat="47.26918" lon="-1.59723">
        <ele>43.5</ele>
        <time>2012-01-12T09:43:22Z</time>
      </trkpt>
      <trkpt lat="47.26918" lon="-1.59727">
        <ele>43.2</ele>
        <time>2012-01-12T09:43:24Z</time>
      </trkpt>
      <trkpt lat="47.26919" lon="-1.59732">
        <ele>43.9</ele>
        <time>2012-01-12T09:43:26Z</time>
      </trkpt>
      <trkpt lat="47.2692" lon="-1.59737">
        <ele>44</ele>
        <time>2012-01-12T09:43:28Z</time>
      </trkpt>
      <trkpt lat="47.2692" lon="-1.59741">
        <ele>44</ele>
        <time>2012-01-12T09:43:30Z</time>
      </trkpt>
      <trkpt lat="47.26921" lon="-1.59746">
        <ele>43</ele>
        <time>2012-01-12T09:43:32Z</time>
      </trkpt>
      <trkpt lat="47.26922" lon="-1.59751">
        <ele>42.7</ele>
        <time>2012-01-12T09:43:34Z</time>
      </trkpt>
      <trkpt lat="47.26924" lon="-1.59755">
        <ele>42.7</ele>
        <time>2012-01-12T09:43:36Z</time>
      </trkpt>
      <trkpt lat="47.26925" lon="-1.5976">
        <ele>42.5</ele>
        <time>2012-01-12T09:43:38Z</time>
      </trkpt>
      <trkpt lat="47.26927" lon="-1.59765">
        <ele>42.2</ele>
        <time>2012-01-12T09:43:41Z</time>
      </trkpt>
      <trkpt lat="47.26929" lon="-1.5977">
        <ele>42.2</ele>
        <time>2012-01-12T09:43:43Z</time>
      </trkpt>
      <trkpt lat="47.26932" lon="-1.59772">
        <ele>42</ele>
        <time>2012-01-12T09:43:45Z</time>
      </trkpt>
      <trkpt lat="47.26936" lon="-1.59773">
        <ele>42.2</ele>
        <time>2012-01-12T09:43:48Z</time>
      </trkpt>
      <trkpt lat="47.26938" lon="-1.59774">
        <ele>42.4</ele>
        <time>2012-01-12T09:43:50Z</time>
      </trkpt>
      <trkpt lat="47.26941" lon="-1.59776">
        <ele>42.7</ele>
        <time>2012-01-12T09:43:52Z</time>
      </trkpt>
      <trkpt lat="47.26944" lon="-1.59777">
        <ele>42.9</ele>
        <time>2012-01-12T09:43:54Z</time>
      </trkpt>
      <trkpt lat="47.26949" lon="-1.59779">
        <ele>42.7</ele>
        <time>2012-01-12T09:43:57Z</time>
      </trkpt>
      <trkpt lat="47.26952" lon="-1.59781">
        <ele>42.5</ele>
        <time>2012-01-12T09:44:00Z</time>
      </trkpt>
      <trkpt lat="47.26956" lon="-1.59784">
        <ele>42.4</ele>
        <time>2012-01-12T09:44:03Z</time>
      </trkpt>
      <trkpt lat="47.2696" lon="-1.59786">
        <ele>42.2</ele>
        <time>2012-01-12T09:44:07Z</time>
      </trkpt>
      <trkpt lat="47.26963" lon="-1.59788">
        <ele>42.5</ele>
        <time>2012-01-12T09:44:09Z</time>
      </trkpt>
      <trkpt lat="47.26966" lon="-1.5979">
        <ele>42.7</ele>
        <time>2012-01-12T09:44:11Z</time>
      </trkpt>
      <trkpt lat="47.2697" lon="-1.59792">
        <ele>42.7</ele>
        <time>2012-01-12T09:44:14Z</time>
      </trkpt>
      <trkpt lat="47.26973" lon="-1.59796">
        <ele>43</ele>
        <time>2012-01-12T09:44:17Z</time>
      </trkpt>
      <trkpt lat="47.26977" lon="-1.59799">
        <ele>42.5</ele>
        <time>2012-01-12T09:44:20Z</time>
      </trkpt>
      <trkpt lat="47.26979" lon="-1.59801">
        <ele>42.4</ele>
        <time>2012-01-12T09:44:21Z</time>
      </trkpt>
      <trkpt lat="47.26982" lon="-1.59804">
        <ele>41.2</ele>
        <time>2012-01-12T09:44:24Z</time>
      </trkpt>
      <trkpt lat="47.26985" lon="-1.59807">
        <ele>41.4</ele>
        <time>2012-01-12T09:44:26Z</time>
      </trkpt>
      <trkpt lat="47.26987" lon="-1.59811">
        <ele>41.5</ele>
        <time>2012-01-12T09:44:29Z</time>
      </trkpt>
      <trkpt lat="47.2699" lon="-1.59815">
        <ele>41.7</ele>
        <time>2012-01-12T09:44:32Z</time>
      </trkpt>
      <trkpt lat="47.26994" lon="-1.59817">
        <ele>41.7</ele>
        <time>2012-01-12T09:44:35Z</time>
      </trkpt>
      <trkpt lat="47.26998" lon="-1.5982">
        <ele>41.5</ele>
        <time>2012-01-12T09:44:38Z</time>
      </trkpt>
      <trkpt lat="47.27002" lon="-1.59821">
        <ele>41.9</ele>
        <time>2012-01-12T09:44:41Z</time>
      </trkpt>
      <trkpt lat="47.27006" lon="-1.5982">
        <ele>42.2</ele>
        <time>2012-01-12T09:44:44Z</time>
      </trkpt>
      <trkpt lat="47.27011" lon="-1.59819">
        <ele>42.4</ele>
        <time>2012-01-12T09:44:47Z</time>
      </trkpt>
      <trkpt lat="47.27015" lon="-1.59819">
        <ele>42.5</ele>
        <time>2012-01-12T09:44:51Z</time>
      </trkpt>
      <trkpt lat="47.27018" lon="-1.59823">
        <ele>42.2</ele>
        <time>2012-01-12T09:44:55Z</time>
      </trkpt>
      <trkpt lat="47.27019" lon="-1.59828">
        <ele>42.2</ele>
        <time>2012-01-12T09:44:58Z</time>
      </trkpt>
      <trkpt lat="47.2702" lon="-1.59834">
        <ele>42.5</ele>
        <time>2012-01-12T09:45:02Z</time>
      </trkpt>
      <trkpt lat="47.27019" lon="-1.59839">
        <ele>41.9</ele>
        <time>2012-01-12T09:45:05Z</time>
      </trkpt>
      <trkpt lat="47.27017" lon="-1.59845">
        <ele>41.7</ele>
        <time>2012-01-12T09:45:10Z</time>
      </trkpt>
      <trkpt lat="47.2702" lon="-1.5985">
        <ele>41.5</ele>
        <time>2012-01-12T09:45:15Z</time>
      </trkpt>
      <trkpt lat="47.27023" lon="-1.59853">
        <ele>41</ele>
        <time>2012-01-12T09:45:19Z</time>
      </trkpt>
      <trkpt lat="47.27027" lon="-1.59855">
        <ele>41.5</ele>
        <time>2012-01-12T09:45:22Z</time>
      </trkpt>
      <trkpt lat="47.27028" lon="-1.59856">
        <ele>41.5</ele>
        <time>2012-01-12T09:45:23Z</time>
      </trkpt>
      <trkpt lat="47.27032" lon="-1.59862">
        <ele>42.2</ele>
        <time>2012-01-12T09:45:28Z</time>
      </trkpt>
      <trkpt lat="47.27036" lon="-1.59866">
        <ele>41.4</ele>
        <time>2012-01-12T09:45:31Z</time>
      </trkpt>
      <trkpt lat="47.27038" lon="-1.59871">
        <ele>41.5</ele>
        <time>2012-01-12T09:45:34Z</time>
      </trkpt>
      <trkpt lat="47.2704" lon="-1.59876">
        <ele>41.7</ele>
        <time>2012-01-12T09:45:37Z</time>
      </trkpt>
      <trkpt lat="47.27043" lon="-1.59882">
        <ele>41.4</ele>
        <time>2012-01-12T09:45:40Z</time>
      </trkpt>
      <trkpt lat="47.27046" lon="-1.59885">
        <ele>41</ele>
        <time>2012-01-12T09:45:43Z</time>
      </trkpt>
      <trkpt lat="47.2705" lon="-1.59887">
        <ele>40.7</ele>
        <time>2012-01-12T09:45:46Z</time>
      </trkpt>
      <trkpt lat="47.27053" lon="-1.59888">
        <ele>40.7</ele>
        <time>2012-01-12T09:45:48Z</time>
      </trkpt>
      <trkpt lat="47.27057" lon="-1.59889">
        <ele>41</ele>
        <time>2012-01-12T09:45:50Z</time>
      </trkpt>
      <trkpt lat="47.2706" lon="-1.5989">
        <ele>41.4</ele>
        <time>2012-01-12T09:45:52Z</time>
      </trkpt>
      <trkpt lat="47.27063" lon="-1.5989">
        <ele>41.7</ele>
        <time>2012-01-12T09:45:54Z</time>
      </trkpt>
      <trkpt lat="47.27066" lon="-1.59889">
        <ele>41.5</ele>
        <time>2012-01-12T09:45:56Z</time>
      </trkpt>
      <trkpt lat="47.2707" lon="-1.59888">
        <ele>41.2</ele>
        <time>2012-01-12T09:45:59Z</time>
      </trkpt>
      <trkpt lat="47.27073" lon="-1.59887">
        <ele>41.2</ele>
        <time>2012-01-12T09:46:01Z</time>
      </trkpt>
      <trkpt lat="47.27076" lon="-1.59886">
        <ele>41.5</ele>
        <time>2012-01-12T09:46:03Z</time>
      </trkpt>
      <trkpt lat="47.2708" lon="-1.59885">
        <ele>41.7</ele>
        <time>2012-01-12T09:46:05Z</time>
      </trkpt>
      <trkpt lat="47.27084" lon="-1.59884">
        <ele>42.2</ele>
        <time>2012-01-12T09:46:08Z</time>
      </trkpt>
      <trkpt lat="47.27088" lon="-1.59885">
        <ele>42.4</ele>
        <time>2012-01-12T09:46:11Z</time>
      </trkpt>
      <trkpt lat="47.27092" lon="-1.59886">
        <ele>42.2</ele>
        <time>2012-01-12T09:46:25Z</time>
      </trkpt>
      <trkpt lat="47.27093" lon="-1.59886">
        <ele>42.2</ele>
        <time>2012-01-12T09:46:26Z</time>
      </trkpt>
      <trkpt lat="47.27099" lon="-1.59891">
        <ele>42.5</ele>
        <time>2012-01-12T09:46:32Z</time>
      </trkpt>
      <trkpt lat="47.27103" lon="-1.59892">
        <ele>42.2</ele>
        <time>2012-01-12T09:46:35Z</time>
      </trkpt>
      <trkpt lat="47.27107" lon="-1.59891">
        <ele>42.2</ele>
        <time>2012-01-12T09:46:38Z</time>
      </trkpt>
      <trkpt lat="47.27111" lon="-1.5989">
        <ele>42</ele>
        <time>2012-01-12T09:46:41Z</time>
      </trkpt>
      <trkpt lat="47.27115" lon="-1.5989">
        <ele>42.4</ele>
        <time>2012-01-12T09:46:44Z</time>
      </trkpt>
      <trkpt lat="47.27118" lon="-1.5989">
        <ele>42.2</ele>
        <time>2012-01-12T09:46:47Z</time>
      </trkpt>
      <trkpt lat="47.27122" lon="-1.59891">
        <ele>42.4</ele>
        <time>2012-01-12T09:46:50Z</time>
      </trkpt>
      <trkpt lat="47.27126" lon="-1.59893">
        <ele>42.5</ele>
        <time>2012-01-12T09:46:53Z</time>
      </trkpt>
      <trkpt lat="47.2713" lon="-1.59893">
        <ele>42.7</ele>
        <time>2012-01-12T09:46:56Z</time>
      </trkpt>
      <trkpt lat="47.27135" lon="-1.59893">
        <ele>42.7</ele>
        <time>2012-01-12T09:46:59Z</time>
      </trkpt>
      <trkpt lat="47.27139" lon="-1.59892">
        <ele>42.7</ele>
        <time>2012-01-12T09:47:02Z</time>
      </trkpt>
      <trkpt lat="47.27142" lon="-1.59892">
        <ele>43</ele>
        <time>2012-01-12T09:47:04Z</time>
      </trkpt>
      <trkpt lat="47.27145" lon="-1.59891">
        <ele>43.2</ele>
        <time>2012-01-12T09:47:06Z</time>
      </trkpt>
      <trkpt lat="47.27149" lon="-1.59891">
        <ele>43</ele>
        <time>2012-01-12T09:47:08Z</time>
      </trkpt>
      <trkpt lat="47.27153" lon="-1.5989">
        <ele>43</ele>
        <time>2012-01-12T09:47:11Z</time>
      </trkpt>
      <trkpt lat="47.27156" lon="-1.5989">
        <ele>43.2</ele>
        <time>2012-01-12T09:47:13Z</time>
      </trkpt>
      <trkpt lat="47.2716" lon="-1.5989">
        <ele>43.5</ele>
        <time>2012-01-12T09:47:15Z</time>
      </trkpt>
      <trkpt lat="47.27163" lon="-1.5989">
        <ele>43.7</ele>
        <time>2012-01-12T09:47:17Z</time>
      </trkpt>
      <trkpt lat="47.27166" lon="-1.5989">
        <ele>43.7</ele>
        <time>2012-01-12T09:47:19Z</time>
      </trkpt>
      <trkpt lat="47.27169" lon="-1.59889">
        <ele>43.7</ele>
        <time>2012-01-12T09:47:21Z</time>
      </trkpt>
      <trkpt lat="47.27172" lon="-1.59888">
        <ele>43.5</ele>
        <time>2012-01-12T09:47:23Z</time>
      </trkpt>
      <trkpt lat="47.27175" lon="-1.59886">
        <ele>43.5</ele>
        <time>2012-01-12T09:47:25Z</time>
      </trkpt>
      <trkpt lat="47.27179" lon="-1.59886">
        <ele>43.5</ele>
        <time>2012-01-12T09:47:27Z</time>
      </trkpt>
      <trkpt lat="47.2718" lon="-1.59886">
        <ele>43.7</ele>
        <time>2012-01-12T09:47:28Z</time>
      </trkpt>
      <trkpt lat="47.27185" lon="-1.59885">
        <ele>44</ele>
        <time>2012-01-12T09:47:31Z</time>
      </trkpt>
      <trkpt lat="47.27188" lon="-1.59884">
        <ele>44.4</ele>
        <time>2012-01-12T09:47:33Z</time>
      </trkpt>
      <trkpt lat="47.27192" lon="-1.59884">
        <ele>43.7</ele>
        <time>2012-01-12T09:47:35Z</time>
      </trkpt>
      <trkpt lat="47.27195" lon="-1.59884">
        <ele>43.2</ele>
        <time>2012-01-12T09:47:37Z</time>
      </trkpt>
      <trkpt lat="47.27198" lon="-1.59885">
        <ele>42.9</ele>
        <time>2012-01-12T09:47:39Z</time>
      </trkpt>
      <trkpt lat="47.27202" lon="-1.59887">
        <ele>43.5</ele>
        <time>2012-01-12T09:47:42Z</time>
      </trkpt>
      <trkpt lat="47.27206" lon="-1.59888">
        <ele>43.4</ele>
        <time>2012-01-12T09:47:45Z</time>
      </trkpt>
      <trkpt lat="47.27209" lon="-1.59888">
        <ele>43.7</ele>
        <time>2012-01-12T09:47:48Z</time>
      </trkpt>
      <trkpt lat="47.27213" lon="-1.59886">
        <ele>43.4</ele>
        <time>2012-01-12T09:47:51Z</time>
      </trkpt>
      <trkpt lat="47.27217" lon="-1.59886">
        <ele>43.5</ele>
        <time>2012-01-12T09:47:54Z</time>
      </trkpt>
      <trkpt lat="47.27221" lon="-1.59889">
        <ele>43.7</ele>
        <time>2012-01-12T09:47:57Z</time>
      </trkpt>
      <trkpt lat="47.27223" lon="-1.59894">
        <ele>43.9</ele>
        <time>2012-01-12T09:48:00Z</time>
      </trkpt>
      <trkpt lat="47.27226" lon="-1.599">
        <ele>43.4</ele>
        <time>2012-01-12T09:48:03Z</time>
      </trkpt>
      <trkpt lat="47.27228" lon="-1.59903">
        <ele>43</ele>
        <time>2012-01-12T09:48:05Z</time>
      </trkpt>
      <trkpt lat="47.2723" lon="-1.59909">
        <ele>43.2</ele>
        <time>2012-01-12T09:48:08Z</time>
      </trkpt>
      <trkpt lat="47.27233" lon="-1.59914">
        <ele>43.5</ele>
        <time>2012-01-12T09:48:11Z</time>
      </trkpt>
      <trkpt lat="47.27235" lon="-1.59919">
        <ele>43</ele>
        <time>2012-01-12T09:48:14Z</time>
      </trkpt>
      <trkpt lat="47.27236" lon="-1.59923">
        <ele>43.5</ele>
        <time>2012-01-12T09:48:17Z</time>
      </trkpt>
      <trkpt lat="47.27238" lon="-1.59929">
        <ele>43</ele>
        <time>2012-01-12T09:48:20Z</time>
      </trkpt>
      <trkpt lat="47.27237" lon="-1.59935">
        <ele>43</ele>
        <time>2012-01-12T09:48:23Z</time>
      </trkpt>
      <trkpt lat="47.27236" lon="-1.59939">
        <ele>43</ele>
        <time>2012-01-12T09:48:26Z</time>
      </trkpt>
      <trkpt lat="47.27235" lon="-1.59945">
        <ele>42.9</ele>
        <time>2012-01-12T09:48:29Z</time>
      </trkpt>
      <trkpt lat="47.27234" lon="-1.59946">
        <ele>42.9</ele>
        <time>2012-01-12T09:48:30Z</time>
      </trkpt>
      <trkpt lat="47.27232" lon="-1.59953">
        <ele>43</ele>
        <time>2012-01-12T09:48:33Z</time>
      </trkpt>
      <trkpt lat="47.2723" lon="-1.59957">
        <ele>43.5</ele>
        <time>2012-01-12T09:48:35Z</time>
      </trkpt>
      <trkpt lat="47.27229" lon="-1.59962">
        <ele>42.9</ele>
        <time>2012-01-12T09:48:38Z</time>
      </trkpt>
      <trkpt lat="47.27227" lon="-1.59968">
        <ele>42.5</ele>
        <time>2012-01-12T09:48:41Z</time>
      </trkpt>
      <trkpt lat="47.27226" lon="-1.59974">
        <ele>42.4</ele>
        <time>2012-01-12T09:48:44Z</time>
      </trkpt>
      <trkpt lat="47.27224" lon="-1.5998">
        <ele>42.2</ele>
        <time>2012-01-12T09:48:47Z</time>
      </trkpt>
      <trkpt lat="47.27223" lon="-1.59986">
        <ele>42.7</ele>
        <time>2012-01-12T09:48:50Z</time>
      </trkpt>
      <trkpt lat="47.27222" lon="-1.59992">
        <ele>42.7</ele>
        <time>2012-01-12T09:48:53Z</time>
      </trkpt>
      <trkpt lat="47.27222" lon="-1.59999">
        <ele>42.7</ele>
        <time>2012-01-12T09:48:56Z</time>
      </trkpt>
      <trkpt lat="47.27221" lon="-1.60005">
        <ele>42.5</ele>
        <time>2012-01-12T09:48:59Z</time>
      </trkpt>
      <trkpt lat="47.27223" lon="-1.60011">
        <ele>42</ele>
        <time>2012-01-12T09:49:02Z</time>
      </trkpt>
      <trkpt lat="47.27225" lon="-1.60015">
        <ele>41.7</ele>
        <time>2012-01-12T09:49:05Z</time>
      </trkpt>
      <trkpt lat="47.27226" lon="-1.6002">
        <ele>41.7</ele>
        <time>2012-01-12T09:49:08Z</time>
      </trkpt>
      <trkpt lat="47.27228" lon="-1.60024">
        <ele>41.9</ele>
        <time>2012-01-12T09:49:10Z</time>
      </trkpt>
      <trkpt lat="47.2723" lon="-1.60028">
        <ele>42</ele>
        <time>2012-01-12T09:49:12Z</time>
      </trkpt>
      <trkpt lat="47.27233" lon="-1.60031">
        <ele>41.4</ele>
        <time>2012-01-12T09:49:14Z</time>
      </trkpt>
      <trkpt lat="47.27236" lon="-1.60034">
        <ele>41.4</ele>
        <time>2012-01-12T09:49:16Z</time>
      </trkpt>
      <trkpt lat="47.27238" lon="-1.60036">
        <ele>41.5</ele>
        <time>2012-01-12T09:49:18Z</time>
      </trkpt>
      <trkpt lat="47.27241" lon="-1.60038">
        <ele>41.7</ele>
        <time>2012-01-12T09:49:20Z</time>
      </trkpt>
      <trkpt lat="47.27245" lon="-1.6004">
        <ele>41.2</ele>
        <time>2012-01-12T09:49:23Z</time>
      </trkpt>
      <trkpt lat="47.27248" lon="-1.6004">
        <ele>41</ele>
        <time>2012-01-12T09:49:25Z</time>
      </trkpt>
      <trkpt lat="47.27252" lon="-1.6004">
        <ele>41</ele>
        <time>2012-01-12T09:49:27Z</time>
      </trkpt>
      <trkpt lat="47.27255" lon="-1.6004">
        <ele>40.7</ele>
        <time>2012-01-12T09:49:29Z</time>
      </trkpt>
      <trkpt lat="47.27259" lon="-1.60039">
        <ele>40.5</ele>
        <time>2012-01-12T09:49:32Z</time>
      </trkpt>
      <trkpt lat="47.27261" lon="-1.60039">
        <ele>41</ele>
        <time>2012-01-12T09:49:33Z</time>
      </trkpt>
      <trkpt lat="47.27266" lon="-1.60037">
        <ele>41</ele>
        <time>2012-01-12T09:49:37Z</time>
      </trkpt>
      <trkpt lat="47.27271" lon="-1.60035">
        <ele>40.7</ele>
        <time>2012-01-12T09:49:40Z</time>
      </trkpt>
      <trkpt lat="47.27274" lon="-1.60034">
        <ele>40.9</ele>
        <time>2012-01-12T09:49:42Z</time>
      </trkpt>
      <trkpt lat="47.27278" lon="-1.60032">
        <ele>40.7</ele>
        <time>2012-01-12T09:49:45Z</time>
      </trkpt>
      <trkpt lat="47.27281" lon="-1.60031">
        <ele>40.7</ele>
        <time>2012-01-12T09:49:48Z</time>
      </trkpt>
      <trkpt lat="47.27285" lon="-1.6003">
        <ele>40.5</ele>
        <time>2012-01-12T09:49:52Z</time>
      </trkpt>
      <trkpt lat="47.27289" lon="-1.60028">
        <ele>40.2</ele>
        <time>2012-01-12T09:49:55Z</time>
      </trkpt>
      <trkpt lat="47.27293" lon="-1.60027">
        <ele>41</ele>
        <time>2012-01-12T09:49:59Z</time>
      </trkpt>
      <trkpt lat="47.27295" lon="-1.60032">
        <ele>40.7</ele>
        <time>2012-01-12T09:50:03Z</time>
      </trkpt>
      <trkpt lat="47.27296" lon="-1.60037">
        <ele>40.9</ele>
        <time>2012-01-12T09:50:06Z</time>
      </trkpt>
      <trkpt lat="47.27297" lon="-1.60044">
        <ele>40.5</ele>
        <time>2012-01-12T09:50:10Z</time>
      </trkpt>
      <trkpt lat="47.27299" lon="-1.60048">
        <ele>39.7</ele>
        <time>2012-01-12T09:50:13Z</time>
      </trkpt>
      <trkpt lat="47.27301" lon="-1.60053">
        <ele>39.2</ele>
        <time>2012-01-12T09:50:16Z</time>
      </trkpt>
      <trkpt lat="47.27302" lon="-1.60058">
        <ele>39.5</ele>
        <time>2012-01-12T09:50:19Z</time>
      </trkpt>
      <trkpt lat="47.27304" lon="-1.60064">
        <ele>39.9</ele>
        <time>2012-01-12T09:50:22Z</time>
      </trkpt>
      <trkpt lat="47.27306" lon="-1.60069">
        <ele>39.5</ele>
        <time>2012-01-12T09:50:25Z</time>
      </trkpt>
      <trkpt lat="47.27306" lon="-1.60074">
        <ele>39.7</ele>
        <time>2012-01-12T09:50:28Z</time>
      </trkpt>
      <trkpt lat="47.27308" lon="-1.6008">
        <ele>40</ele>
        <time>2012-01-12T09:50:31Z</time>
      </trkpt>
      <trkpt lat="47.2731" lon="-1.60086">
        <ele>40</ele>
        <time>2012-01-12T09:50:34Z</time>
      </trkpt>
      <trkpt lat="47.27311" lon="-1.60088">
        <ele>40</ele>
        <time>2012-01-12T09:50:35Z</time>
      </trkpt>
      <trkpt lat="47.27312" lon="-1.60095">
        <ele>39.7</ele>
        <time>2012-01-12T09:50:38Z</time>
      </trkpt>
      <trkpt lat="47.27314" lon="-1.601">
        <ele>39.9</ele>
        <time>2012-01-12T09:50:40Z</time>
      </trkpt>
      <trkpt lat="47.27315" lon="-1.60105">
        <ele>40</ele>
        <time>2012-01-12T09:50:42Z</time>
      </trkpt>
      <trkpt lat="47.27316" lon="-1.60109">
        <ele>40.2</ele>
        <time>2012-01-12T09:50:44Z</time>
      </trkpt>
      <trkpt lat="47.27316" lon="-1.60114">
        <ele>40</ele>
        <time>2012-01-12T09:50:46Z</time>
      </trkpt>
      <trkpt lat="47.27317" lon="-1.60119">
        <ele>39.9</ele>
        <time>2012-01-12T09:50:48Z</time>
      </trkpt>
      <trkpt lat="47.27318" lon="-1.60124">
        <ele>39.7</ele>
        <time>2012-01-12T09:50:50Z</time>
      </trkpt>
      <trkpt lat="47.27319" lon="-1.60128">
        <ele>39.5</ele>
        <time>2012-01-12T09:50:52Z</time>
      </trkpt>
      <trkpt lat="47.27319" lon="-1.60133">
        <ele>39.5</ele>
        <time>2012-01-12T09:50:54Z</time>
      </trkpt>
      <trkpt lat="47.2732" lon="-1.60137">
        <ele>39.7</ele>
        <time>2012-01-12T09:50:56Z</time>
      </trkpt>
      <trkpt lat="47.27321" lon="-1.60142">
        <ele>39.7</ele>
        <time>2012-01-12T09:50:58Z</time>
      </trkpt>
      <trkpt lat="47.27321" lon="-1.60146">
        <ele>39.5</ele>
        <time>2012-01-12T09:51:00Z</time>
      </trkpt>
      <trkpt lat="47.27322" lon="-1.60151">
        <ele>39</ele>
        <time>2012-01-12T09:51:02Z</time>
      </trkpt>
      <trkpt lat="47.27323" lon="-1.60155">
        <ele>39</ele>
        <time>2012-01-12T09:51:04Z</time>
      </trkpt>
      <trkpt lat="47.27323" lon="-1.60162">
        <ele>39.5</ele>
        <time>2012-01-12T09:51:07Z</time>
      </trkpt>
      <trkpt lat="47.27324" lon="-1.60166">
        <ele>39.4</ele>
        <time>2012-01-12T09:51:09Z</time>
      </trkpt>
      <trkpt lat="47.27324" lon="-1.60171">
        <ele>39.2</ele>
        <time>2012-01-12T09:51:11Z</time>
      </trkpt>
      <trkpt lat="47.27325" lon="-1.60175">
        <ele>39</ele>
        <time>2012-01-12T09:51:13Z</time>
      </trkpt>
      <trkpt lat="47.27326" lon="-1.60182">
        <ele>39.5</ele>
        <time>2012-01-12T09:51:16Z</time>
      </trkpt>
      <trkpt lat="47.27327" lon="-1.60188">
        <ele>39.4</ele>
        <time>2012-01-12T09:51:19Z</time>
      </trkpt>
      <trkpt lat="47.27328" lon="-1.60192">
        <ele>39.2</ele>
        <time>2012-01-12T09:51:21Z</time>
      </trkpt>
      <trkpt lat="47.27329" lon="-1.60197">
        <ele>39</ele>
        <time>2012-01-12T09:51:23Z</time>
      </trkpt>
      <trkpt lat="47.27329" lon="-1.60201">
        <ele>39</ele>
        <time>2012-01-12T09:51:25Z</time>
      </trkpt>
      <trkpt lat="47.2733" lon="-1.60205">
        <ele>39.2</ele>
        <time>2012-01-12T09:51:27Z</time>
      </trkpt>
      <trkpt lat="47.27331" lon="-1.6021">
        <ele>39.2</ele>
        <time>2012-01-12T09:51:29Z</time>
      </trkpt>
      <trkpt lat="47.27332" lon="-1.60214">
        <ele>39.2</ele>
        <time>2012-01-12T09:51:31Z</time>
      </trkpt>
      <trkpt lat="47.27332" lon="-1.60219">
        <ele>39.2</ele>
        <time>2012-01-12T09:51:33Z</time>
      </trkpt>
      <trkpt lat="47.27333" lon="-1.60225">
        <ele>39.5</ele>
        <time>2012-01-12T09:51:36Z</time>
      </trkpt>
      <trkpt lat="47.27333" lon="-1.60227">
        <ele>39.5</ele>
        <time>2012-01-12T09:51:37Z</time>
      </trkpt>
      <trkpt lat="47.27334" lon="-1.60238">
        <ele>39.7</ele>
        <time>2012-01-12T09:51:42Z</time>
      </trkpt>
      <trkpt lat="47.27335" lon="-1.60242">
        <ele>39.5</ele>
        <time>2012-01-12T09:51:44Z</time>
      </trkpt>
      <trkpt lat="47.27336" lon="-1.60247">
        <ele>39.7</ele>
        <time>2012-01-12T09:51:46Z</time>
      </trkpt>
      <trkpt lat="47.27337" lon="-1.60253">
        <ele>40.2</ele>
        <time>2012-01-12T09:51:49Z</time>
      </trkpt>
      <trkpt lat="47.27337" lon="-1.60258">
        <ele>40.2</ele>
        <time>2012-01-12T09:51:51Z</time>
      </trkpt>
      <trkpt lat="47.27339" lon="-1.60264">
        <ele>39.7</ele>
        <time>2012-01-12T09:51:54Z</time>
      </trkpt>
      <trkpt lat="47.2734" lon="-1.6027">
        <ele>39.5</ele>
        <time>2012-01-12T09:51:57Z</time>
      </trkpt>
      <trkpt lat="47.27341" lon="-1.60276">
        <ele>39.7</ele>
        <time>2012-01-12T09:52:00Z</time>
      </trkpt>
      <trkpt lat="47.27342" lon="-1.60282">
        <ele>39.7</ele>
        <time>2012-01-12T09:52:03Z</time>
      </trkpt>
      <trkpt lat="47.27343" lon="-1.60288">
        <ele>39.7</ele>
        <time>2012-01-12T09:52:06Z</time>
      </trkpt>
      <trkpt lat="47.27344" lon="-1.60294">
        <ele>40.2</ele>
        <time>2012-01-12T09:52:09Z</time>
      </trkpt>
      <trkpt lat="47.27345" lon="-1.603">
        <ele>40.2</ele>
        <time>2012-01-12T09:52:12Z</time>
      </trkpt>
      <trkpt lat="47.27346" lon="-1.60306">
        <ele>40</ele>
        <time>2012-01-12T09:52:15Z</time>
      </trkpt>
      <trkpt lat="47.27347" lon="-1.60312">
        <ele>40</ele>
        <time>2012-01-12T09:52:18Z</time>
      </trkpt>
      <trkpt lat="47.27348" lon="-1.60318">
        <ele>40.2</ele>
        <time>2012-01-12T09:52:21Z</time>
      </trkpt>
      <trkpt lat="47.27349" lon="-1.60324">
        <ele>40.5</ele>
        <time>2012-01-12T09:52:24Z</time>
      </trkpt>
      <trkpt lat="47.2735" lon="-1.60329">
        <ele>40.7</ele>
        <time>2012-01-12T09:52:26Z</time>
      </trkpt>
      <trkpt lat="47.2735" lon="-1.60333">
        <ele>40.4</ele>
        <time>2012-01-12T09:52:28Z</time>
      </trkpt>
      <trkpt lat="47.27351" lon="-1.60337">
        <ele>40.4</ele>
        <time>2012-01-12T09:52:30Z</time>
      </trkpt>
      <trkpt lat="47.27351" lon="-1.60342">
        <ele>40.5</ele>
        <time>2012-01-12T09:52:32Z</time>
      </trkpt>
      <trkpt lat="47.27352" lon="-1.60349">
        <ele>40.5</ele>
        <time>2012-01-12T09:52:35Z</time>
      </trkpt>
      <trkpt lat="47.27353" lon="-1.60355">
        <ele>40.5</ele>
        <time>2012-01-12T09:52:38Z</time>
      </trkpt>
      <trkpt lat="47.27353" lon="-1.60357">
        <ele>40.5</ele>
        <time>2012-01-12T09:52:39Z</time>
      </trkpt>
      <trkpt lat="47.27355" lon="-1.60366">
        <ele>40.4</ele>
        <time>2012-01-12T09:52:44Z</time>
      </trkpt>
      <trkpt lat="47.27356" lon="-1.60371">
        <ele>40.5</ele>
        <time>2012-01-12T09:52:47Z</time>
      </trkpt>
      <trkpt lat="47.27356" lon="-1.60376">
        <ele>40.2</ele>
        <time>2012-01-12T09:52:50Z</time>
      </trkpt>
      <trkpt lat="47.27356" lon="-1.60381">
        <ele>40.2</ele>
        <time>2012-01-12T09:52:53Z</time>
      </trkpt>
      <trkpt lat="47.27357" lon="-1.60386">
        <ele>40.4</ele>
        <time>2012-01-12T09:52:56Z</time>
      </trkpt>
      <trkpt lat="47.27358" lon="-1.60391">
        <ele>40.2</ele>
        <time>2012-01-12T09:52:58Z</time>
      </trkpt>
      <trkpt lat="47.27359" lon="-1.60395">
        <ele>40.2</ele>
        <time>2012-01-12T09:53:00Z</time>
      </trkpt>
      <trkpt lat="47.27361" lon="-1.60401">
        <ele>40.4</ele>
        <time>2012-01-12T09:53:02Z</time>
      </trkpt>
      <trkpt lat="47.27361" lon="-1.60405">
        <ele>40.7</ele>
        <time>2012-01-12T09:53:04Z</time>
      </trkpt>
      <trkpt lat="47.27362" lon="-1.60411">
        <ele>40.2</ele>
        <time>2012-01-12T09:53:07Z</time>
      </trkpt>
      <trkpt lat="47.27362" lon="-1.60416">
        <ele>40.5</ele>
        <time>2012-01-12T09:53:09Z</time>
      </trkpt>
      <trkpt lat="47.27363" lon="-1.60422">
        <ele>40.7</ele>
        <time>2012-01-12T09:53:12Z</time>
      </trkpt>
      <trkpt lat="47.27364" lon="-1.60428">
        <ele>40.7</ele>
        <time>2012-01-12T09:53:15Z</time>
      </trkpt>
      <trkpt lat="47.27365" lon="-1.60432">
        <ele>40.7</ele>
        <time>2012-01-12T09:53:17Z</time>
      </trkpt>
      <trkpt lat="47.27366" lon="-1.60439">
        <ele>40.5</ele>
        <time>2012-01-12T09:53:20Z</time>
      </trkpt>
      <trkpt lat="47.27367" lon="-1.60444">
        <ele>40.4</ele>
        <time>2012-01-12T09:53:23Z</time>
      </trkpt>
      <trkpt lat="47.27369" lon="-1.6045">
        <ele>40.2</ele>
        <time>2012-01-12T09:53:26Z</time>
      </trkpt>
      <trkpt lat="47.27371" lon="-1.60455">
        <ele>40.5</ele>
        <time>2012-01-12T09:53:29Z</time>
      </trkpt>
      <trkpt lat="47.27373" lon="-1.60461">
        <ele>41.2</ele>
        <time>2012-01-12T09:53:32Z</time>
      </trkpt>
      <trkpt lat="47.27374" lon="-1.60466">
        <ele>40.7</ele>
        <time>2012-01-12T09:53:35Z</time>
      </trkpt>
      <trkpt lat="47.27375" lon="-1.6047">
        <ele>40.5</ele>
        <time>2012-01-12T09:53:37Z</time>
      </trkpt>
      <trkpt lat="47.27376" lon="-1.60476">
        <ele>40.9</ele>
        <time>2012-01-12T09:53:40Z</time>
      </trkpt>
      <trkpt lat="47.27377" lon="-1.60478">
        <ele>40.7</ele>
        <time>2012-01-12T09:53:41Z</time>
      </trkpt>
      <trkpt lat="47.27378" lon="-1.60484">
        <ele>40.5</ele>
        <time>2012-01-12T09:53:44Z</time>
      </trkpt>
      <trkpt lat="47.27379" lon="-1.60488">
        <ele>40.7</ele>
        <time>2012-01-12T09:53:46Z</time>
      </trkpt>
      <trkpt lat="47.27381" lon="-1.60494">
        <ele>40.2</ele>
        <time>2012-01-12T09:53:49Z</time>
      </trkpt>
      <trkpt lat="47.27382" lon="-1.605">
        <ele>40.5</ele>
        <time>2012-01-12T09:53:52Z</time>
      </trkpt>
      <trkpt lat="47.27383" lon="-1.60505">
        <ele>40.7</ele>
        <time>2012-01-12T09:53:55Z</time>
      </trkpt>
      <trkpt lat="47.27384" lon="-1.60511">
        <ele>40.4</ele>
        <time>2012-01-12T09:53:58Z</time>
      </trkpt>
      <trkpt lat="47.27384" lon="-1.60516">
        <ele>40</ele>
        <time>2012-01-12T09:54:00Z</time>
      </trkpt>
      <trkpt lat="47.27384" lon="-1.60521">
        <ele>39.9</ele>
        <time>2012-01-12T09:54:02Z</time>
      </trkpt>
      <trkpt lat="47.27385" lon="-1.60526">
        <ele>40.4</ele>
        <time>2012-01-12T09:54:05Z</time>
      </trkpt>
      <trkpt lat="47.27387" lon="-1.60532">
        <ele>40.7</ele>
        <time>2012-01-12T09:54:08Z</time>
      </trkpt>
      <trkpt lat="47.27387" lon="-1.60538">
        <ele>40.5</ele>
        <time>2012-01-12T09:54:11Z</time>
      </trkpt>
      <trkpt lat="47.27388" lon="-1.60543">
        <ele>40.2</ele>
        <time>2012-01-12T09:54:14Z</time>
      </trkpt>
      <trkpt lat="47.27388" lon="-1.60549">
        <ele>40.4</ele>
        <time>2012-01-12T09:54:17Z</time>
      </trkpt>
      <trkpt lat="47.27389" lon="-1.60555">
        <ele>40.7</ele>
        <time>2012-01-12T09:54:20Z</time>
      </trkpt>
      <trkpt lat="47.27391" lon="-1.6056">
        <ele>40.5</ele>
        <time>2012-01-12T09:54:23Z</time>
      </trkpt>
      <trkpt lat="47.27392" lon="-1.60567">
        <ele>40.4</ele>
        <time>2012-01-12T09:54:26Z</time>
      </trkpt>
      <trkpt lat="47.27393" lon="-1.60571">
        <ele>40.4</ele>
        <time>2012-01-12T09:54:28Z</time>
      </trkpt>
      <trkpt lat="47.27395" lon="-1.60574">
        <ele>40.7</ele>
        <time>2012-01-12T09:54:30Z</time>
      </trkpt>
      <trkpt lat="47.27398" lon="-1.60577">
        <ele>40.9</ele>
        <time>2012-01-12T09:54:33Z</time>
      </trkpt>
      <trkpt lat="47.27402" lon="-1.6058">
        <ele>40.9</ele>
        <time>2012-01-12T09:54:36Z</time>
      </trkpt>
      <trkpt lat="47.27406" lon="-1.60581">
        <ele>41</ele>
        <time>2012-01-12T09:54:39Z</time>
      </trkpt>
      <trkpt lat="47.27411" lon="-1.60583">
        <ele>41.2</ele>
        <time>2012-01-12T09:54:42Z</time>
      </trkpt>
      <trkpt lat="47.27412" lon="-1.60583">
        <ele>41.2</ele>
        <time>2012-01-12T09:54:43Z</time>
      </trkpt>
      <trkpt lat="47.27418" lon="-1.60583">
        <ele>40.9</ele>
        <time>2012-01-12T09:54:47Z</time>
      </trkpt>
      <trkpt lat="47.27421" lon="-1.60583">
        <ele>41</ele>
        <time>2012-01-12T09:54:49Z</time>
      </trkpt>
      <trkpt lat="47.27425" lon="-1.60583">
        <ele>41</ele>
        <time>2012-01-12T09:54:51Z</time>
      </trkpt>
      <trkpt lat="47.27428" lon="-1.60583">
        <ele>40.9</ele>
        <time>2012-01-12T09:54:53Z</time>
      </trkpt>
      <trkpt lat="47.27431" lon="-1.60583">
        <ele>40.5</ele>
        <time>2012-01-12T09:54:55Z</time>
      </trkpt>
      <trkpt lat="47.27434" lon="-1.60584">
        <ele>40.2</ele>
        <time>2012-01-12T09:54:57Z</time>
      </trkpt>
      <trkpt lat="47.27437" lon="-1.60584">
        <ele>40.2</ele>
        <time>2012-01-12T09:54:59Z</time>
      </trkpt>
      <trkpt lat="47.2744" lon="-1.60584">
        <ele>40.2</ele>
        <time>2012-01-12T09:55:01Z</time>
      </trkpt>
      <trkpt lat="47.27444" lon="-1.60583">
        <ele>40.5</ele>
        <time>2012-01-12T09:55:04Z</time>
      </trkpt>
      <trkpt lat="47.27448" lon="-1.60584">
        <ele>40.9</ele>
        <time>2012-01-12T09:55:07Z</time>
      </trkpt>
      <trkpt lat="47.27452" lon="-1.60583">
        <ele>40.9</ele>
        <time>2012-01-12T09:55:09Z</time>
      </trkpt>
      <trkpt lat="47.27455" lon="-1.60583">
        <ele>40.7</ele>
        <time>2012-01-12T09:55:11Z</time>
      </trkpt>
      <trkpt lat="47.27458" lon="-1.60583">
        <ele>40.7</ele>
        <time>2012-01-12T09:55:13Z</time>
      </trkpt>
      <trkpt lat="47.27463" lon="-1.60583">
        <ele>40.5</ele>
        <time>2012-01-12T09:55:16Z</time>
      </trkpt>
      <trkpt lat="47.27467" lon="-1.60583">
        <ele>40.4</ele>
        <time>2012-01-12T09:55:19Z</time>
      </trkpt>
      <trkpt lat="47.2747" lon="-1.60582">
        <ele>40.5</ele>
        <time>2012-01-12T09:55:21Z</time>
      </trkpt>
      <trkpt lat="47.27474" lon="-1.60582">
        <ele>40.9</ele>
        <time>2012-01-12T09:55:23Z</time>
      </trkpt>
      <trkpt lat="47.27478" lon="-1.60582">
        <ele>41</ele>
        <time>2012-01-12T09:55:26Z</time>
      </trkpt>
      <trkpt lat="47.27483" lon="-1.60581">
        <ele>40.7</ele>
        <time>2012-01-12T09:55:29Z</time>
      </trkpt>
      <trkpt lat="47.27487" lon="-1.60581">
        <ele>40.4</ele>
        <time>2012-01-12T09:55:32Z</time>
      </trkpt>
      <trkpt lat="47.2749" lon="-1.60582">
        <ele>39.9</ele>
        <time>2012-01-12T09:55:34Z</time>
      </trkpt>
      <trkpt lat="47.27493" lon="-1.60581">
        <ele>39.9</ele>
        <time>2012-01-12T09:55:36Z</time>
      </trkpt>
      <trkpt lat="47.27496" lon="-1.60581">
        <ele>40</ele>
        <time>2012-01-12T09:55:38Z</time>
      </trkpt>
      <trkpt lat="47.275" lon="-1.60581">
        <ele>39.9</ele>
        <time>2012-01-12T09:55:41Z</time>
      </trkpt>
      <trkpt lat="47.27504" lon="-1.60581">
        <ele>40</ele>
        <time>2012-01-12T09:55:44Z</time>
      </trkpt>
      <trkpt lat="47.27505" lon="-1.60581">
        <ele>39.7</ele>
        <time>2012-01-12T09:55:45Z</time>
      </trkpt>
      <trkpt lat="47.2751" lon="-1.6058">
        <ele>39.7</ele>
        <time>2012-01-12T09:55:48Z</time>
      </trkpt>
      <trkpt lat="47.27515" lon="-1.6058">
        <ele>40</ele>
        <time>2012-01-12T09:55:51Z</time>
      </trkpt>
      <trkpt lat="47.27518" lon="-1.60579">
        <ele>39.7</ele>
        <time>2012-01-12T09:55:54Z</time>
      </trkpt>
      <trkpt lat="47.27522" lon="-1.60579">
        <ele>39.7</ele>
        <time>2012-01-12T09:55:56Z</time>
      </trkpt>
      <trkpt lat="47.27524" lon="-1.60578">
        <ele>39.7</ele>
        <time>2012-01-12T09:55:58Z</time>
      </trkpt>
      <trkpt lat="47.27528" lon="-1.60578">
        <ele>40</ele>
        <time>2012-01-12T09:56:00Z</time>
      </trkpt>
      <trkpt lat="47.27531" lon="-1.60577">
        <ele>39.9</ele>
        <time>2012-01-12T09:56:02Z</time>
      </trkpt>
      <trkpt lat="47.27534" lon="-1.60577">
        <ele>40</ele>
        <time>2012-01-12T09:56:04Z</time>
      </trkpt>
      <trkpt lat="47.27537" lon="-1.60576">
        <ele>40.2</ele>
        <time>2012-01-12T09:56:06Z</time>
      </trkpt>
      <trkpt lat="47.2754" lon="-1.60576">
        <ele>39.9</ele>
        <time>2012-01-12T09:56:08Z</time>
      </trkpt>
      <trkpt lat="47.27544" lon="-1.60576">
        <ele>39.5</ele>
        <time>2012-01-12T09:56:11Z</time>
      </trkpt>
      <trkpt lat="47.27549" lon="-1.60575">
        <ele>39.7</ele>
        <time>2012-01-12T09:56:14Z</time>
      </trkpt>
      <trkpt lat="47.27553" lon="-1.60575">
        <ele>39.7</ele>
        <time>2012-01-12T09:56:17Z</time>
      </trkpt>
      <trkpt lat="47.27557" lon="-1.60573">
        <ele>39.4</ele>
        <time>2012-01-12T09:56:20Z</time>
      </trkpt>
      <trkpt lat="47.27561" lon="-1.60572">
        <ele>38.7</ele>
        <time>2012-01-12T09:56:23Z</time>
      </trkpt>
      <trkpt lat="47.27566" lon="-1.60572">
        <ele>38.5</ele>
        <time>2012-01-12T09:56:26Z</time>
      </trkpt>
      <trkpt lat="47.2757" lon="-1.60571">
        <ele>38.5</ele>
        <time>2012-01-12T09:56:29Z</time>
      </trkpt>
      <trkpt lat="47.27573" lon="-1.6057">
        <ele>39.2</ele>
        <time>2012-01-12T09:56:31Z</time>
      </trkpt>
      <trkpt lat="47.27576" lon="-1.6057">
        <ele>39.4</ele>
        <time>2012-01-12T09:56:33Z</time>
      </trkpt>
      <trkpt lat="47.2758" lon="-1.60569">
        <ele>39.2</ele>
        <time>2012-01-12T09:56:36Z</time>
      </trkpt>
      <trkpt lat="47.27584" lon="-1.60568">
        <ele>38.9</ele>
        <time>2012-01-12T09:56:38Z</time>
      </trkpt>
      <trkpt lat="47.27588" lon="-1.60567">
        <ele>38.9</ele>
        <time>2012-01-12T09:56:41Z</time>
      </trkpt>
      <trkpt lat="47.27592" lon="-1.60567">
        <ele>38.7</ele>
        <time>2012-01-12T09:56:45Z</time>
      </trkpt>
      <trkpt lat="47.27593" lon="-1.60566">
        <ele>38.5</ele>
        <time>2012-01-12T09:56:46Z</time>
      </trkpt>
      <trkpt lat="47.276" lon="-1.60566">
        <ele>38.5</ele>
        <time>2012-01-12T09:56:51Z</time>
      </trkpt>
      <trkpt lat="47.27603" lon="-1.60566">
        <ele>38.7</ele>
        <time>2012-01-12T09:56:53Z</time>
      </trkpt>
      <trkpt lat="47.27606" lon="-1.60565">
        <ele>39</ele>
        <time>2012-01-12T09:56:55Z</time>
      </trkpt>
      <trkpt lat="47.2761" lon="-1.60564">
        <ele>39.5</ele>
        <time>2012-01-12T09:56:58Z</time>
      </trkpt>
      <trkpt lat="47.27614" lon="-1.60564">
        <ele>39</ele>
        <time>2012-01-12T09:57:01Z</time>
      </trkpt>
      <trkpt lat="47.27618" lon="-1.60564">
        <ele>38.9</ele>
        <time>2012-01-12T09:57:04Z</time>
      </trkpt>
      <trkpt lat="47.27621" lon="-1.60564">
        <ele>38.4</ele>
        <time>2012-01-12T09:57:07Z</time>
      </trkpt>
      <trkpt lat="47.27625" lon="-1.60563">
        <ele>38</ele>
        <time>2012-01-12T09:57:10Z</time>
      </trkpt>
      <trkpt lat="47.27629" lon="-1.60563">
        <ele>38.4</ele>
        <time>2012-01-12T09:57:13Z</time>
      </trkpt>
      <trkpt lat="47.27633" lon="-1.60563">
        <ele>38.2</ele>
        <time>2012-01-12T09:57:16Z</time>
      </trkpt>
      <trkpt lat="47.27637" lon="-1.60563">
        <ele>38.4</ele>
        <time>2012-01-12T09:57:19Z</time>
      </trkpt>
      <trkpt lat="47.27641" lon="-1.60562">
        <ele>38.5</ele>
        <time>2012-01-12T09:57:22Z</time>
      </trkpt>
      <trkpt lat="47.27645" lon="-1.60562">
        <ele>38.5</ele>
        <time>2012-01-12T09:57:25Z</time>
      </trkpt>
      <trkpt lat="47.27649" lon="-1.60562">
        <ele>38.7</ele>
        <time>2012-01-12T09:57:28Z</time>
      </trkpt>
      <trkpt lat="47.27653" lon="-1.60561">
        <ele>39</ele>
        <time>2012-01-12T09:57:30Z</time>
      </trkpt>
      <trkpt lat="47.27656" lon="-1.60561">
        <ele>39.5</ele>
        <time>2012-01-12T09:57:33Z</time>
      </trkpt>
      <trkpt lat="47.2766" lon="-1.6056">
        <ele>38.2</ele>
        <time>2012-01-12T09:57:36Z</time>
      </trkpt>
      <trkpt lat="47.27664" lon="-1.6056">
        <ele>38.2</ele>
        <time>2012-01-12T09:57:38Z</time>
      </trkpt>
      <trkpt lat="47.27667" lon="-1.6056">
        <ele>38.5</ele>
        <time>2012-01-12T09:57:40Z</time>
      </trkpt>
      <trkpt lat="47.27671" lon="-1.60559">
        <ele>39</ele>
        <time>2012-01-12T09:57:42Z</time>
      </trkpt>
      <trkpt lat="47.27674" lon="-1.60559">
        <ele>38.9</ele>
        <time>2012-01-12T09:57:44Z</time>
      </trkpt>
      <trkpt lat="47.27678" lon="-1.60559">
        <ele>38.5</ele>
        <time>2012-01-12T09:57:47Z</time>
      </trkpt>
      <trkpt lat="47.2768" lon="-1.60559">
        <ele>38.4</ele>
        <time>2012-01-12T09:57:48Z</time>
      </trkpt>
      <trkpt lat="47.27686" lon="-1.60561">
        <ele>39</ele>
        <time>2012-01-12T09:57:52Z</time>
      </trkpt>
      <trkpt lat="47.2769" lon="-1.60564">
        <ele>38.7</ele>
        <time>2012-01-12T09:57:56Z</time>
      </trkpt>
      <trkpt lat="47.27694" lon="-1.60563">
        <ele>39.2</ele>
        <time>2012-01-12T09:58:07Z</time>
      </trkpt>
      <trkpt lat="47.27698" lon="-1.60567">
        <ele>38.2</ele>
        <time>2012-01-12T09:59:09Z</time>
      </trkpt>
      <trkpt lat="47.27699" lon="-1.60567">
        <ele>38.2</ele>
        <time>2012-01-12T09:59:10Z</time>
      </trkpt>
      <trkpt lat="47.27705" lon="-1.60563">
        <ele>38.2</ele>
        <time>2012-01-12T09:59:15Z</time>
      </trkpt>
      <trkpt lat="47.27709" lon="-1.60561">
        <ele>37.9</ele>
        <time>2012-01-12T09:59:18Z</time>
      </trkpt>
      <trkpt lat="47.27712" lon="-1.60559">
        <ele>38.2</ele>
        <time>2012-01-12T09:59:20Z</time>
      </trkpt>
      <trkpt lat="47.27714" lon="-1.60557">
        <ele>38.4</ele>
        <time>2012-01-12T09:59:22Z</time>
      </trkpt>
      <trkpt lat="47.27717" lon="-1.60555">
        <ele>38.2</ele>
        <time>2012-01-12T09:59:24Z</time>
      </trkpt>
      <trkpt lat="47.2772" lon="-1.60554">
        <ele>38</ele>
        <time>2012-01-12T09:59:26Z</time>
      </trkpt>
      <trkpt lat="47.27725" lon="-1.60552">
        <ele>37.7</ele>
        <time>2012-01-12T09:59:29Z</time>
      </trkpt>
      <trkpt lat="47.27728" lon="-1.6055">
        <ele>37.9</ele>
        <time>2012-01-12T09:59:31Z</time>
      </trkpt>
      <trkpt lat="47.2773" lon="-1.60548">
        <ele>37.9</ele>
        <time>2012-01-12T09:59:33Z</time>
      </trkpt>
      <trkpt lat="47.27734" lon="-1.60546">
        <ele>37.7</ele>
        <time>2012-01-12T09:59:36Z</time>
      </trkpt>
      <trkpt lat="47.27737" lon="-1.60544">
        <ele>38</ele>
        <time>2012-01-12T09:59:38Z</time>
      </trkpt>
      <trkpt lat="47.27741" lon="-1.60543">
        <ele>38.5</ele>
        <time>2012-01-12T09:59:40Z</time>
      </trkpt>
      <trkpt lat="47.27745" lon="-1.6054">
        <ele>38.5</ele>
        <time>2012-01-12T09:59:43Z</time>
      </trkpt>
      <trkpt lat="47.27749" lon="-1.60538">
        <ele>38.5</ele>
        <time>2012-01-12T09:59:46Z</time>
      </trkpt>
      <trkpt lat="47.27752" lon="-1.60537">
        <ele>38.5</ele>
        <time>2012-01-12T09:59:48Z</time>
      </trkpt>
      <trkpt lat="47.27755" lon="-1.60535">
        <ele>38.4</ele>
        <time>2012-01-12T09:59:50Z</time>
      </trkpt>
      <trkpt lat="47.27758" lon="-1.60533">
        <ele>37.7</ele>
        <time>2012-01-12T09:59:52Z</time>
      </trkpt>
      <trkpt lat="47.27761" lon="-1.60531">
        <ele>37.5</ele>
        <time>2012-01-12T09:59:54Z</time>
      </trkpt>
      <trkpt lat="47.27764" lon="-1.60529">
        <ele>37.5</ele>
        <time>2012-01-12T09:59:56Z</time>
      </trkpt>
      <trkpt lat="47.27767" lon="-1.60527">
        <ele>37.2</ele>
        <time>2012-01-12T09:59:58Z</time>
      </trkpt>
      <trkpt lat="47.2777" lon="-1.60525">
        <ele>37.2</ele>
        <time>2012-01-12T10:00:00Z</time>
      </trkpt>
      <trkpt lat="47.27774" lon="-1.60522">
        <ele>36.7</ele>
        <time>2012-01-12T10:00:03Z</time>
      </trkpt>
      <trkpt lat="47.27776" lon="-1.6052">
        <ele>36.7</ele>
        <time>2012-01-12T10:00:05Z</time>
      </trkpt>
      <trkpt lat="47.27779" lon="-1.60518">
        <ele>37</ele>
        <time>2012-01-12T10:00:07Z</time>
      </trkpt>
      <trkpt lat="47.27782" lon="-1.60515">
        <ele>37.2</ele>
        <time>2012-01-12T10:00:09Z</time>
      </trkpt>
      <trkpt lat="47.27785" lon="-1.60513">
        <ele>37.2</ele>
        <time>2012-01-12T10:00:11Z</time>
      </trkpt>
      <trkpt lat="47.27787" lon="-1.60512">
        <ele>37.2</ele>
        <time>2012-01-12T10:00:12Z</time>
      </trkpt>
      <trkpt lat="47.27792" lon="-1.6051">
        <ele>37.5</ele>
        <time>2012-01-12T10:00:15Z</time>
      </trkpt>
      <trkpt lat="47.27795" lon="-1.60508">
        <ele>37.7</ele>
        <time>2012-01-12T10:00:17Z</time>
      </trkpt>
      <trkpt lat="47.27798" lon="-1.60507">
        <ele>37.7</ele>
        <time>2012-01-12T10:00:19Z</time>
      </trkpt>
      <trkpt lat="47.27801" lon="-1.60505">
        <ele>37.5</ele>
        <time>2012-01-12T10:00:21Z</time>
      </trkpt>
      <trkpt lat="47.27804" lon="-1.60503">
        <ele>37.2</ele>
        <time>2012-01-12T10:00:23Z</time>
      </trkpt>
      <trkpt lat="47.27807" lon="-1.60502">
        <ele>37</ele>
        <time>2012-01-12T10:00:25Z</time>
      </trkpt>
      <trkpt lat="47.27811" lon="-1.605">
        <ele>37</ele>
        <time>2012-01-12T10:00:27Z</time>
      </trkpt>
      <trkpt lat="47.27814" lon="-1.60499">
        <ele>37</ele>
        <time>2012-01-12T10:00:29Z</time>
      </trkpt>
      <trkpt lat="47.27817" lon="-1.60497">
        <ele>37.2</ele>
        <time>2012-01-12T10:00:31Z</time>
      </trkpt>
      <trkpt lat="47.2782" lon="-1.60496">
        <ele>36.7</ele>
        <time>2012-01-12T10:00:33Z</time>
      </trkpt>
      <trkpt lat="47.27823" lon="-1.60495">
        <ele>36.5</ele>
        <time>2012-01-12T10:00:35Z</time>
      </trkpt>
      <trkpt lat="47.27826" lon="-1.60493">
        <ele>36.4</ele>
        <time>2012-01-12T10:00:37Z</time>
      </trkpt>
      <trkpt lat="47.27829" lon="-1.60492">
        <ele>36.5</ele>
        <time>2012-01-12T10:00:39Z</time>
      </trkpt>
      <trkpt lat="47.27832" lon="-1.6049">
        <ele>36.7</ele>
        <time>2012-01-12T10:00:41Z</time>
      </trkpt>
      <trkpt lat="47.27836" lon="-1.60488">
        <ele>37.5</ele>
        <time>2012-01-12T10:00:44Z</time>
      </trkpt>
      <trkpt lat="47.27839" lon="-1.60487">
        <ele>37.5</ele>
        <time>2012-01-12T10:00:46Z</time>
      </trkpt>
      <trkpt lat="47.27842" lon="-1.60485">
        <ele>37.2</ele>
        <time>2012-01-12T10:00:48Z</time>
      </trkpt>
      <trkpt lat="47.27845" lon="-1.60483">
        <ele>37</ele>
        <time>2012-01-12T10:00:50Z</time>
      </trkpt>
      <trkpt lat="47.27848" lon="-1.60482">
        <ele>37</ele>
        <time>2012-01-12T10:00:52Z</time>
      </trkpt>
      <trkpt lat="47.27852" lon="-1.6048">
        <ele>37.4</ele>
        <time>2012-01-12T10:00:55Z</time>
      </trkpt>
      <trkpt lat="47.27855" lon="-1.60478">
        <ele>37.7</ele>
        <time>2012-01-12T10:00:57Z</time>
      </trkpt>
      <trkpt lat="47.27858" lon="-1.60478">
        <ele>37.4</ele>
        <time>2012-01-12T10:00:59Z</time>
      </trkpt>
      <trkpt lat="47.27861" lon="-1.60478">
        <ele>37.2</ele>
        <time>2012-01-12T10:01:01Z</time>
      </trkpt>
      <trkpt lat="47.27866" lon="-1.60478">
        <ele>37.5</ele>
        <time>2012-01-12T10:01:04Z</time>
      </trkpt>
      <trkpt lat="47.2787" lon="-1.6048">
        <ele>37.7</ele>
        <time>2012-01-12T10:01:07Z</time>
      </trkpt>
      <trkpt lat="47.27872" lon="-1.60482">
        <ele>37.7</ele>
        <time>2012-01-12T10:01:09Z</time>
      </trkpt>
      <trkpt lat="47.27876" lon="-1.60485">
        <ele>37.5</ele>
        <time>2012-01-12T10:01:12Z</time>
      </trkpt>
      <trkpt lat="47.27877" lon="-1.60487">
        <ele>37.5</ele>
        <time>2012-01-12T10:01:13Z</time>
      </trkpt>
      <trkpt lat="47.27883" lon="-1.60491">
        <ele>37.7</ele>
        <time>2012-01-12T10:01:18Z</time>
      </trkpt>
      <trkpt lat="47.27886" lon="-1.60495">
        <ele>37.7</ele>
        <time>2012-01-12T10:01:21Z</time>
      </trkpt>
      <trkpt lat="47.27889" lon="-1.60498">
        <ele>37.4</ele>
        <time>2012-01-12T10:01:24Z</time>
      </trkpt>
      <trkpt lat="47.27893" lon="-1.60502">
        <ele>37.2</ele>
        <time>2012-01-12T10:01:27Z</time>
      </trkpt>
      <trkpt lat="47.27897" lon="-1.60504">
        <ele>37.2</ele>
        <time>2012-01-12T10:01:30Z</time>
      </trkpt>
      <trkpt lat="47.279" lon="-1.60506">
        <ele>37</ele>
        <time>2012-01-12T10:01:32Z</time>
      </trkpt>
      <trkpt lat="47.27903" lon="-1.60509">
        <ele>36.7</ele>
        <time>2012-01-12T10:01:34Z</time>
      </trkpt>
      <trkpt lat="47.27907" lon="-1.60512">
        <ele>36.7</ele>
        <time>2012-01-12T10:01:37Z</time>
      </trkpt>
      <trkpt lat="47.2791" lon="-1.60515">
        <ele>36.9</ele>
        <time>2012-01-12T10:01:40Z</time>
      </trkpt>
      <trkpt lat="47.27913" lon="-1.60519">
        <ele>37</ele>
        <time>2012-01-12T10:01:43Z</time>
      </trkpt>
      <trkpt lat="47.27916" lon="-1.60522">
        <ele>37</ele>
        <time>2012-01-12T10:01:46Z</time>
      </trkpt>
      <trkpt lat="47.2792" lon="-1.60525">
        <ele>36.5</ele>
        <time>2012-01-12T10:01:49Z</time>
      </trkpt>
      <trkpt lat="47.27924" lon="-1.60527">
        <ele>36.5</ele>
        <time>2012-01-12T10:01:52Z</time>
      </trkpt>
      <trkpt lat="47.27928" lon="-1.6053">
        <ele>36.2</ele>
        <time>2012-01-12T10:01:55Z</time>
      </trkpt>
      <trkpt lat="47.27932" lon="-1.60532">
        <ele>35.7</ele>
        <time>2012-01-12T10:01:58Z</time>
      </trkpt>
      <trkpt lat="47.27936" lon="-1.60534">
        <ele>35.2</ele>
        <time>2012-01-12T10:02:01Z</time>
      </trkpt>
      <trkpt lat="47.27939" lon="-1.60535">
        <ele>34.7</ele>
        <time>2012-01-12T10:02:03Z</time>
      </trkpt>
      <trkpt lat="47.27942" lon="-1.60536">
        <ele>34.7</ele>
        <time>2012-01-12T10:02:05Z</time>
      </trkpt>
      <trkpt lat="47.27945" lon="-1.60537">
        <ele>34.7</ele>
        <time>2012-01-12T10:02:07Z</time>
      </trkpt>
      <trkpt lat="47.27949" lon="-1.60538">
        <ele>34.4</ele>
        <time>2012-01-12T10:02:09Z</time>
      </trkpt>
      <trkpt lat="47.27952" lon="-1.6054">
        <ele>34.2</ele>
        <time>2012-01-12T10:02:11Z</time>
      </trkpt>
      <trkpt lat="47.27955" lon="-1.60541">
        <ele>34.2</ele>
        <time>2012-01-12T10:02:13Z</time>
      </trkpt>
      <trkpt lat="47.27956" lon="-1.60542">
        <ele>34.2</ele>
        <time>2012-01-12T10:02:14Z</time>
      </trkpt>
      <trkpt lat="47.27962" lon="-1.60545">
        <ele>34.4</ele>
        <time>2012-01-12T10:02:18Z</time>
      </trkpt>
      <trkpt lat="47.27965" lon="-1.60546">
        <ele>34.5</ele>
        <time>2012-01-12T10:02:20Z</time>
      </trkpt>
      <trkpt lat="47.27969" lon="-1.60548">
        <ele>35.4</ele>
        <time>2012-01-12T10:02:23Z</time>
      </trkpt>
      <trkpt lat="47.27973" lon="-1.60551">
        <ele>35.2</ele>
        <time>2012-01-12T10:02:26Z</time>
      </trkpt>
      <trkpt lat="47.27977" lon="-1.60553">
        <ele>35.5</ele>
        <time>2012-01-12T10:02:29Z</time>
      </trkpt>
      <trkpt lat="47.27981" lon="-1.60555">
        <ele>35.7</ele>
        <time>2012-01-12T10:02:32Z</time>
      </trkpt>
      <trkpt lat="47.27985" lon="-1.60557">
        <ele>35.2</ele>
        <time>2012-01-12T10:02:35Z</time>
      </trkpt>
      <trkpt lat="47.27988" lon="-1.60561">
        <ele>35</ele>
        <time>2012-01-12T10:02:38Z</time>
      </trkpt>
      <trkpt lat="47.27992" lon="-1.60564">
        <ele>35.2</ele>
        <time>2012-01-12T10:02:41Z</time>
      </trkpt>
      <trkpt lat="47.27995" lon="-1.60568">
        <ele>35</ele>
        <time>2012-01-12T10:02:44Z</time>
      </trkpt>
      <trkpt lat="47.27998" lon="-1.60571">
        <ele>35.5</ele>
        <time>2012-01-12T10:02:47Z</time>
      </trkpt>
      <trkpt lat="47.28001" lon="-1.60575">
        <ele>35.7</ele>
        <time>2012-01-12T10:02:50Z</time>
      </trkpt>
      <trkpt lat="47.28005" lon="-1.60579">
        <ele>36</ele>
        <time>2012-01-12T10:02:53Z</time>
      </trkpt>
      <trkpt lat="47.28008" lon="-1.60583">
        <ele>36.4</ele>
        <time>2012-01-12T10:02:56Z</time>
      </trkpt>
      <trkpt lat="47.2801" lon="-1.60586">
        <ele>36</ele>
        <time>2012-01-12T10:02:58Z</time>
      </trkpt>
      <trkpt lat="47.28012" lon="-1.6059">
        <ele>36.5</ele>
        <time>2012-01-12T10:03:00Z</time>
      </trkpt>
      <trkpt lat="47.28015" lon="-1.60595">
        <ele>36.2</ele>
        <time>2012-01-12T10:03:03Z</time>
      </trkpt>
      <trkpt lat="47.28017" lon="-1.60599">
        <ele>36</ele>
        <time>2012-01-12T10:03:06Z</time>
      </trkpt>
      <trkpt lat="47.28019" lon="-1.60605">
        <ele>36.2</ele>
        <time>2012-01-12T10:03:09Z</time>
      </trkpt>
      <trkpt lat="47.28021" lon="-1.6061">
        <ele>36.5</ele>
        <time>2012-01-12T10:03:12Z</time>
      </trkpt>
      <trkpt lat="47.28023" lon="-1.60616">
        <ele>36.2</ele>
        <time>2012-01-12T10:03:15Z</time>
      </trkpt>
      <trkpt lat="47.28023" lon="-1.60617">
        <ele>36</ele>
        <time>2012-01-12T10:03:16Z</time>
      </trkpt>
      <trkpt lat="47.28027" lon="-1.60626">
        <ele>36.2</ele>
        <time>2012-01-12T10:03:21Z</time>
      </trkpt>
      <trkpt lat="47.28029" lon="-1.60632">
        <ele>36.5</ele>
        <time>2012-01-12T10:03:24Z</time>
      </trkpt>
      <trkpt lat="47.28031" lon="-1.60637">
        <ele>36.4</ele>
        <time>2012-01-12T10:03:27Z</time>
      </trkpt>
      <trkpt lat="47.28033" lon="-1.60642">
        <ele>36.2</ele>
        <time>2012-01-12T10:03:30Z</time>
      </trkpt>
      <trkpt lat="47.28035" lon="-1.60647">
        <ele>36.5</ele>
        <time>2012-01-12T10:03:33Z</time>
      </trkpt>
      <trkpt lat="47.28037" lon="-1.60653">
        <ele>36.5</ele>
        <time>2012-01-12T10:03:36Z</time>
      </trkpt>
      <trkpt lat="47.28039" lon="-1.60657">
        <ele>36.7</ele>
        <time>2012-01-12T10:03:38Z</time>
      </trkpt>
      <trkpt lat="47.2804" lon="-1.6066">
        <ele>37</ele>
        <time>2012-01-12T10:03:40Z</time>
      </trkpt>
      <trkpt lat="47.28042" lon="-1.60664">
        <ele>37.5</ele>
        <time>2012-01-12T10:03:42Z</time>
      </trkpt>
      <trkpt lat="47.28043" lon="-1.60668">
        <ele>37.7</ele>
        <time>2012-01-12T10:03:44Z</time>
      </trkpt>
      <trkpt lat="47.28045" lon="-1.60672">
        <ele>37.5</ele>
        <time>2012-01-12T10:03:46Z</time>
      </trkpt>
      <trkpt lat="47.28047" lon="-1.60678">
        <ele>37.5</ele>
        <time>2012-01-12T10:03:49Z</time>
      </trkpt>
      <trkpt lat="47.28049" lon="-1.60683">
        <ele>37.7</ele>
        <time>2012-01-12T10:03:52Z</time>
      </trkpt>
      <trkpt lat="47.28051" lon="-1.60687">
        <ele>37.7</ele>
        <time>2012-01-12T10:03:54Z</time>
      </trkpt>
      <trkpt lat="47.28053" lon="-1.60691">
        <ele>37.7</ele>
        <time>2012-01-12T10:03:56Z</time>
      </trkpt>
      <trkpt lat="47.28054" lon="-1.60695">
        <ele>37.7</ele>
        <time>2012-01-12T10:03:58Z</time>
      </trkpt>
      <trkpt lat="47.28057" lon="-1.607">
        <ele>37.5</ele>
        <time>2012-01-12T10:04:01Z</time>
      </trkpt>
      <trkpt lat="47.28059" lon="-1.60705">
        <ele>37.7</ele>
        <time>2012-01-12T10:04:04Z</time>
      </trkpt>
      <trkpt lat="47.28061" lon="-1.6071">
        <ele>37.5</ele>
        <time>2012-01-12T10:04:07Z</time>
      </trkpt>
      <trkpt lat="47.28063" lon="-1.60715">
        <ele>37.4</ele>
        <time>2012-01-12T10:04:10Z</time>
      </trkpt>
      <trkpt lat="47.28065" lon="-1.6072">
        <ele>37.5</ele>
        <time>2012-01-12T10:04:13Z</time>
      </trkpt>
      <trkpt lat="47.28067" lon="-1.60724">
        <ele>37.7</ele>
        <time>2012-01-12T10:04:16Z</time>
      </trkpt>
      <trkpt lat="47.28068" lon="-1.60726">
        <ele>37.9</ele>
        <time>2012-01-12T10:04:17Z</time>
      </trkpt>
      <trkpt lat="47.28072" lon="-1.60734">
        <ele>37.7</ele>
        <time>2012-01-12T10:04:22Z</time>
      </trkpt>
      <trkpt lat="47.28074" lon="-1.60738">
        <ele>38</ele>
        <time>2012-01-12T10:04:24Z</time>
      </trkpt>
      <trkpt lat="47.28076" lon="-1.60742">
        <ele>38.2</ele>
        <time>2012-01-12T10:04:26Z</time>
      </trkpt>
      <trkpt lat="47.28078" lon="-1.60747">
        <ele>38.5</ele>
        <time>2012-01-12T10:04:29Z</time>
      </trkpt>
      <trkpt lat="47.2808" lon="-1.60751">
        <ele>38.5</ele>
        <time>2012-01-12T10:04:31Z</time>
      </trkpt>
      <trkpt lat="47.28082" lon="-1.60755">
        <ele>38.7</ele>
        <time>2012-01-12T10:04:33Z</time>
      </trkpt>
      <trkpt lat="47.28084" lon="-1.60758">
        <ele>39</ele>
        <time>2012-01-12T10:04:35Z</time>
      </trkpt>
      <trkpt lat="47.28086" lon="-1.60763">
        <ele>39.4</ele>
        <time>2012-01-12T10:04:37Z</time>
      </trkpt>
      <trkpt lat="47.28088" lon="-1.60768">
        <ele>39</ele>
        <time>2012-01-12T10:04:40Z</time>
      </trkpt>
      <trkpt lat="47.2809" lon="-1.60772">
        <ele>39.2</ele>
        <time>2012-01-12T10:04:42Z</time>
      </trkpt>
      <trkpt lat="47.28091" lon="-1.60776">
        <ele>39.4</ele>
        <time>2012-01-12T10:04:44Z</time>
      </trkpt>
      <trkpt lat="47.28092" lon="-1.60781">
        <ele>38.7</ele>
        <time>2012-01-12T10:04:46Z</time>
      </trkpt>
      <trkpt lat="47.28094" lon="-1.60785">
        <ele>38.7</ele>
        <time>2012-01-12T10:04:48Z</time>
      </trkpt>
      <trkpt lat="47.28095" lon="-1.60789">
        <ele>39</ele>
        <time>2012-01-12T10:04:50Z</time>
      </trkpt>
      <trkpt lat="47.28097" lon="-1.60793">
        <ele>39.2</ele>
        <time>2012-01-12T10:04:52Z</time>
      </trkpt>
      <trkpt lat="47.28099" lon="-1.60797">
        <ele>39.5</ele>
        <time>2012-01-12T10:04:54Z</time>
      </trkpt>
      <trkpt lat="47.281" lon="-1.60801">
        <ele>39.7</ele>
        <time>2012-01-12T10:04:56Z</time>
      </trkpt>
      <trkpt lat="47.28102" lon="-1.60805">
        <ele>40</ele>
        <time>2012-01-12T10:04:58Z</time>
      </trkpt>
      <trkpt lat="47.28104" lon="-1.60809">
        <ele>40.2</ele>
        <time>2012-01-12T10:05:00Z</time>
      </trkpt>
      <trkpt lat="47.28106" lon="-1.60814">
        <ele>40.2</ele>
        <time>2012-01-12T10:05:03Z</time>
      </trkpt>
      <trkpt lat="47.28108" lon="-1.60818">
        <ele>39.7</ele>
        <time>2012-01-12T10:05:05Z</time>
      </trkpt>
      <trkpt lat="47.2811" lon="-1.60822">
        <ele>39.5</ele>
        <time>2012-01-12T10:05:07Z</time>
      </trkpt>
      <trkpt lat="47.28112" lon="-1.60825">
        <ele>39.5</ele>
        <time>2012-01-12T10:05:09Z</time>
      </trkpt>
      <trkpt lat="47.28113" lon="-1.60829">
        <ele>39.7</ele>
        <time>2012-01-12T10:05:11Z</time>
      </trkpt>
      <trkpt lat="47.28116" lon="-1.60835">
        <ele>40</ele>
        <time>2012-01-12T10:05:14Z</time>
      </trkpt>
      <trkpt lat="47.28119" lon="-1.60839">
        <ele>39.7</ele>
        <time>2012-01-12T10:05:17Z</time>
      </trkpt>
      <trkpt lat="47.2812" lon="-1.6084">
        <ele>39.7</ele>
        <time>2012-01-12T10:05:18Z</time>
      </trkpt>
      <trkpt lat="47.28126" lon="-1.60842">
        <ele>40</ele>
        <time>2012-01-12T10:05:23Z</time>
      </trkpt>
      <trkpt lat="47.28131" lon="-1.60843">
        <ele>40.2</ele>
        <time>2012-01-12T10:05:26Z</time>
      </trkpt>
      <trkpt lat="47.28134" lon="-1.60844">
        <ele>40.5</ele>
        <time>2012-01-12T10:05:28Z</time>
      </trkpt>
      <trkpt lat="47.28137" lon="-1.60844">
        <ele>40.5</ele>
        <time>2012-01-12T10:05:30Z</time>
      </trkpt>
      <trkpt lat="47.2814" lon="-1.60843">
        <ele>41</ele>
        <time>2012-01-12T10:05:32Z</time>
      </trkpt>
      <trkpt lat="47.28143" lon="-1.60843">
        <ele>41.7</ele>
        <time>2012-01-12T10:05:34Z</time>
      </trkpt>
      <trkpt lat="47.28147" lon="-1.60843">
        <ele>41.5</ele>
        <time>2012-01-12T10:05:36Z</time>
      </trkpt>
      <trkpt lat="47.2815" lon="-1.60843">
        <ele>41</ele>
        <time>2012-01-12T10:05:38Z</time>
      </trkpt>
      <trkpt lat="47.28154" lon="-1.60842">
        <ele>41.2</ele>
        <time>2012-01-12T10:05:40Z</time>
      </trkpt>
      <trkpt lat="47.28157" lon="-1.60841">
        <ele>41.5</ele>
        <time>2012-01-12T10:05:42Z</time>
      </trkpt>
      <trkpt lat="47.28161" lon="-1.60841">
        <ele>41.5</ele>
        <time>2012-01-12T10:05:44Z</time>
      </trkpt>
      <trkpt lat="47.28164" lon="-1.6084">
        <ele>41.5</ele>
        <time>2012-01-12T10:05:46Z</time>
      </trkpt>
      <trkpt lat="47.28168" lon="-1.6084">
        <ele>41.5</ele>
        <time>2012-01-12T10:05:48Z</time>
      </trkpt>
      <trkpt lat="47.28171" lon="-1.60839">
        <ele>41.7</ele>
        <time>2012-01-12T10:05:50Z</time>
      </trkpt>
      <trkpt lat="47.28174" lon="-1.60839">
        <ele>41.5</ele>
        <time>2012-01-12T10:05:52Z</time>
      </trkpt>
      <trkpt lat="47.28177" lon="-1.60839">
        <ele>41.2</ele>
        <time>2012-01-12T10:05:54Z</time>
      </trkpt>
      <trkpt lat="47.2818" lon="-1.6084">
        <ele>41.5</ele>
        <time>2012-01-12T10:05:56Z</time>
      </trkpt>
      <trkpt lat="47.28184" lon="-1.60841">
        <ele>41.5</ele>
        <time>2012-01-12T10:05:58Z</time>
      </trkpt>
      <trkpt lat="47.28187" lon="-1.60844">
        <ele>41.2</ele>
        <time>2012-01-12T10:06:01Z</time>
      </trkpt>
      <trkpt lat="47.2819" lon="-1.60848">
        <ele>41.5</ele>
        <time>2012-01-12T10:06:04Z</time>
      </trkpt>
      <trkpt lat="47.28193" lon="-1.60853">
        <ele>42</ele>
        <time>2012-01-12T10:06:07Z</time>
      </trkpt>
      <trkpt lat="47.28196" lon="-1.60857">
        <ele>42.4</ele>
        <time>2012-01-12T10:06:10Z</time>
      </trkpt>
      <trkpt lat="47.28199" lon="-1.60862">
        <ele>42.7</ele>
        <time>2012-01-12T10:06:13Z</time>
      </trkpt>
      <trkpt lat="47.28202" lon="-1.60867">
        <ele>42.5</ele>
        <time>2012-01-12T10:06:16Z</time>
      </trkpt>
      <trkpt lat="47.28205" lon="-1.60872">
        <ele>42.7</ele>
        <time>2012-01-12T10:06:19Z</time>
      </trkpt>
      <trkpt lat="47.28205" lon="-1.60873">
        <ele>42.7</ele>
        <time>2012-01-12T10:06:20Z</time>
      </trkpt>
      <trkpt lat="47.2821" lon="-1.60881">
        <ele>42.5</ele>
        <time>2012-01-12T10:06:25Z</time>
      </trkpt>
      <trkpt lat="47.28212" lon="-1.60886">
        <ele>42.9</ele>
        <time>2012-01-12T10:06:28Z</time>
      </trkpt>
      <trkpt lat="47.28215" lon="-1.6089">
        <ele>42.7</ele>
        <time>2012-01-12T10:06:31Z</time>
      </trkpt>
      <trkpt lat="47.28218" lon="-1.60896">
        <ele>42.7</ele>
        <time>2012-01-12T10:06:34Z</time>
      </trkpt>
      <trkpt lat="47.2822" lon="-1.60901">
        <ele>42.7</ele>
        <time>2012-01-12T10:06:37Z</time>
      </trkpt>
      <trkpt lat="47.28223" lon="-1.60905">
        <ele>43</ele>
        <time>2012-01-12T10:06:40Z</time>
      </trkpt>
      <trkpt lat="47.28226" lon="-1.6091">
        <ele>43.2</ele>
        <time>2012-01-12T10:06:43Z</time>
      </trkpt>
      <trkpt lat="47.28229" lon="-1.60915">
        <ele>43.2</ele>
        <time>2012-01-12T10:06:46Z</time>
      </trkpt>
      <trkpt lat="47.28232" lon="-1.6092">
        <ele>43</ele>
        <time>2012-01-12T10:06:49Z</time>
      </trkpt>
      <trkpt lat="47.28235" lon="-1.60923">
        <ele>43.4</ele>
        <time>2012-01-12T10:06:52Z</time>
      </trkpt>
      <trkpt lat="47.28237" lon="-1.60927">
        <ele>43.5</ele>
        <time>2012-01-12T10:06:55Z</time>
      </trkpt>
      <trkpt lat="47.2824" lon="-1.60932">
        <ele>43.5</ele>
        <time>2012-01-12T10:06:58Z</time>
      </trkpt>
      <trkpt lat="47.28243" lon="-1.60937">
        <ele>43.9</ele>
        <time>2012-01-12T10:07:01Z</time>
      </trkpt>
      <trkpt lat="47.28246" lon="-1.60941">
        <ele>43.5</ele>
        <time>2012-01-12T10:07:04Z</time>
      </trkpt>
      <trkpt lat="47.28248" lon="-1.60946">
        <ele>43.7</ele>
        <time>2012-01-12T10:07:07Z</time>
      </trkpt>
      <trkpt lat="47.28251" lon="-1.6095">
        <ele>43.9</ele>
        <time>2012-01-12T10:07:10Z</time>
      </trkpt>
      <trkpt lat="47.28253" lon="-1.60955">
        <ele>44.4</ele>
        <time>2012-01-12T10:07:13Z</time>
      </trkpt>
      <trkpt lat="47.28256" lon="-1.6096">
        <ele>44.2</ele>
        <time>2012-01-12T10:07:16Z</time>
      </trkpt>
      <trkpt lat="47.28258" lon="-1.60964">
        <ele>44</ele>
        <time>2012-01-12T10:07:19Z</time>
      </trkpt>
      <trkpt lat="47.28261" lon="-1.60969">
        <ele>44.7</ele>
        <time>2012-01-12T10:07:22Z</time>
      </trkpt>
      <trkpt lat="47.28262" lon="-1.6097">
        <ele>45</ele>
        <time>2012-01-12T10:07:23Z</time>
      </trkpt>
      <trkpt lat="47.28265" lon="-1.60978">
        <ele>44.7</ele>
        <time>2012-01-12T10:07:28Z</time>
      </trkpt>
      <trkpt lat="47.28267" lon="-1.60983">
        <ele>44.2</ele>
        <time>2012-01-12T10:07:31Z</time>
      </trkpt>
      <trkpt lat="47.2827" lon="-1.60988">
        <ele>44.5</ele>
        <time>2012-01-12T10:07:34Z</time>
      </trkpt>
      <trkpt lat="47.28271" lon="-1.60993">
        <ele>45</ele>
        <time>2012-01-12T10:07:37Z</time>
      </trkpt>
      <trkpt lat="47.28272" lon="-1.60998">
        <ele>45.2</ele>
        <time>2012-01-12T10:07:40Z</time>
      </trkpt>
      <trkpt lat="47.28274" lon="-1.61004">
        <ele>45.5</ele>
        <time>2012-01-12T10:07:43Z</time>
      </trkpt>
      <trkpt lat="47.28276" lon="-1.61009">
        <ele>45.7</ele>
        <time>2012-01-12T10:07:46Z</time>
      </trkpt>
      <trkpt lat="47.28277" lon="-1.61014">
        <ele>46</ele>
        <time>2012-01-12T10:07:49Z</time>
      </trkpt>
      <trkpt lat="47.28278" lon="-1.61021">
        <ele>46</ele>
        <time>2012-01-12T10:07:52Z</time>
      </trkpt>
      <trkpt lat="47.28279" lon="-1.61026">
        <ele>46.4</ele>
        <time>2012-01-12T10:07:55Z</time>
      </trkpt>
      <trkpt lat="47.28281" lon="-1.61032">
        <ele>46.9</ele>
        <time>2012-01-12T10:07:58Z</time>
      </trkpt>
      <trkpt lat="47.28282" lon="-1.61036">
        <ele>46.5</ele>
        <time>2012-01-12T10:08:00Z</time>
      </trkpt>
      <trkpt lat="47.28284" lon="-1.61042">
        <ele>46.5</ele>
        <time>2012-01-12T10:08:03Z</time>
      </trkpt>
      <trkpt lat="47.28285" lon="-1.61047">
        <ele>47</ele>
        <time>2012-01-12T10:08:06Z</time>
      </trkpt>
      <trkpt lat="47.28286" lon="-1.61053">
        <ele>47.5</ele>
        <time>2012-01-12T10:08:09Z</time>
      </trkpt>
      <trkpt lat="47.28286" lon="-1.61059">
        <ele>47.5</ele>
        <time>2012-01-12T10:08:12Z</time>
      </trkpt>
      <trkpt lat="47.28284" lon="-1.61064">
        <ele>47.5</ele>
        <time>2012-01-12T10:08:15Z</time>
      </trkpt>
      <trkpt lat="47.28284" lon="-1.6107">
        <ele>47.2</ele>
        <time>2012-01-12T10:08:18Z</time>
      </trkpt>
      <trkpt lat="47.28284" lon="-1.61075">
        <ele>46.7</ele>
        <time>2012-01-12T10:08:21Z</time>
      </trkpt>
      <trkpt lat="47.28285" lon="-1.61081">
        <ele>47.7</ele>
        <time>2012-01-12T10:08:24Z</time>
      </trkpt>
      <trkpt lat="47.28285" lon="-1.61083">
        <ele>47.7</ele>
        <time>2012-01-12T10:08:25Z</time>
      </trkpt>
      <trkpt lat="47.28285" lon="-1.61094">
        <ele>48</ele>
        <time>2012-01-12T10:08:30Z</time>
      </trkpt>
      <trkpt lat="47.28286" lon="-1.611">
        <ele>48</ele>
        <time>2012-01-12T10:08:33Z</time>
      </trkpt>
      <trkpt lat="47.28287" lon="-1.61106">
        <ele>47.7</ele>
        <time>2012-01-12T10:08:36Z</time>
      </trkpt>
      <trkpt lat="47.28287" lon="-1.61112">
        <ele>47.7</ele>
        <time>2012-01-12T10:08:39Z</time>
      </trkpt>
      <trkpt lat="47.28287" lon="-1.61117">
        <ele>48</ele>
        <time>2012-01-12T10:08:41Z</time>
      </trkpt>
      <trkpt lat="47.28288" lon="-1.61122">
        <ele>48.5</ele>
        <time>2012-01-12T10:08:44Z</time>
      </trkpt>
      <trkpt lat="47.28288" lon="-1.61129">
        <ele>48.7</ele>
        <time>2012-01-12T10:08:47Z</time>
      </trkpt>
      <trkpt lat="47.28289" lon="-1.61135">
        <ele>48.7</ele>
        <time>2012-01-12T10:08:50Z</time>
      </trkpt>
      <trkpt lat="47.2829" lon="-1.61141">
        <ele>49</ele>
        <time>2012-01-12T10:08:53Z</time>
      </trkpt>
      <trkpt lat="47.2829" lon="-1.61147">
        <ele>49.4</ele>
        <time>2012-01-12T10:08:56Z</time>
      </trkpt>
      <trkpt lat="47.2829" lon="-1.61153">
        <ele>49.7</ele>
        <time>2012-01-12T10:08:59Z</time>
      </trkpt>
      <trkpt lat="47.28291" lon="-1.61159">
        <ele>49</ele>
        <time>2012-01-12T10:09:02Z</time>
      </trkpt>
      <trkpt lat="47.28291" lon="-1.61165">
        <ele>49.7</ele>
        <time>2012-01-12T10:09:05Z</time>
      </trkpt>
      <trkpt lat="47.28292" lon="-1.61171">
        <ele>50.5</ele>
        <time>2012-01-12T10:09:08Z</time>
      </trkpt>
      <trkpt lat="47.28292" lon="-1.61177">
        <ele>50.2</ele>
        <time>2012-01-12T10:09:11Z</time>
      </trkpt>
      <trkpt lat="47.28293" lon="-1.61183">
        <ele>50.2</ele>
        <time>2012-01-12T10:09:14Z</time>
      </trkpt>
      <trkpt lat="47.28294" lon="-1.61189">
        <ele>50.5</ele>
        <time>2012-01-12T10:09:17Z</time>
      </trkpt>
      <trkpt lat="47.28294" lon="-1.61195">
        <ele>50.4</ele>
        <time>2012-01-12T10:09:20Z</time>
      </trkpt>
      <trkpt lat="47.28294" lon="-1.61202">
        <ele>50.5</ele>
        <time>2012-01-12T10:09:23Z</time>
      </trkpt>
      <trkpt lat="47.28294" lon="-1.61206">
        <ele>50.5</ele>
        <time>2012-01-12T10:09:25Z</time>
      </trkpt>
      <trkpt lat="47.28294" lon="-1.61208">
        <ele>50.5</ele>
        <time>2012-01-12T10:09:26Z</time>
      </trkpt>
      <trkpt lat="47.28295" lon="-1.61215">
        <ele>50.5</ele>
        <time>2012-01-12T10:09:29Z</time>
      </trkpt>
      <trkpt lat="47.28295" lon="-1.6122">
        <ele>50.7</ele>
        <time>2012-01-12T10:09:31Z</time>
      </trkpt>
      <trkpt lat="47.28295" lon="-1.61224">
        <ele>50.9</ele>
        <time>2012-01-12T10:09:33Z</time>
      </trkpt>
      <trkpt lat="47.28296" lon="-1.61229">
        <ele>51</ele>
        <time>2012-01-12T10:09:35Z</time>
      </trkpt>
      <trkpt lat="47.28296" lon="-1.61235">
        <ele>50.9</ele>
        <time>2012-01-12T10:09:38Z</time>
      </trkpt>
      <trkpt lat="47.28297" lon="-1.6124">
        <ele>50.4</ele>
        <time>2012-01-12T10:09:40Z</time>
      </trkpt>
      <trkpt lat="47.28297" lon="-1.61246">
        <ele>50.2</ele>
        <time>2012-01-12T10:09:43Z</time>
      </trkpt>
      <trkpt lat="47.28298" lon="-1.61252">
        <ele>50.5</ele>
        <time>2012-01-12T10:09:46Z</time>
      </trkpt>
      <trkpt lat="47.28298" lon="-1.61256">
        <ele>50.9</ele>
        <time>2012-01-12T10:09:48Z</time>
      </trkpt>
      <trkpt lat="47.28299" lon="-1.61261">
        <ele>51</ele>
        <time>2012-01-12T10:09:50Z</time>
      </trkpt>
      <trkpt lat="47.283" lon="-1.61266">
        <ele>51.5</ele>
        <time>2012-01-12T10:09:52Z</time>
      </trkpt>
      <trkpt lat="47.283" lon="-1.61272">
        <ele>51</ele>
        <time>2012-01-12T10:09:55Z</time>
      </trkpt>
      <trkpt lat="47.28301" lon="-1.61278">
        <ele>50.5</ele>
        <time>2012-01-12T10:09:58Z</time>
      </trkpt>
      <trkpt lat="47.28301" lon="-1.61284">
        <ele>50.5</ele>
        <time>2012-01-12T10:10:01Z</time>
      </trkpt>
      <trkpt lat="47.28302" lon="-1.6129">
        <ele>50.7</ele>
        <time>2012-01-12T10:10:04Z</time>
      </trkpt>
      <trkpt lat="47.28303" lon="-1.61295">
        <ele>50.9</ele>
        <time>2012-01-12T10:10:06Z</time>
      </trkpt>
      <trkpt lat="47.28303" lon="-1.613">
        <ele>51.4</ele>
        <time>2012-01-12T10:10:08Z</time>
      </trkpt>
      <trkpt lat="47.28304" lon="-1.61306">
        <ele>51.2</ele>
        <time>2012-01-12T10:10:11Z</time>
      </trkpt>
      <trkpt lat="47.28304" lon="-1.61312">
        <ele>51.2</ele>
        <time>2012-01-12T10:10:14Z</time>
      </trkpt>
      <trkpt lat="47.28305" lon="-1.61319">
        <ele>51.4</ele>
        <time>2012-01-12T10:10:17Z</time>
      </trkpt>
      <trkpt lat="47.28306" lon="-1.61325">
        <ele>51.5</ele>
        <time>2012-01-12T10:10:20Z</time>
      </trkpt>
      <trkpt lat="47.28306" lon="-1.61331">
        <ele>52.2</ele>
        <time>2012-01-12T10:10:23Z</time>
      </trkpt>
      <trkpt lat="47.28308" lon="-1.61337">
        <ele>52.4</ele>
        <time>2012-01-12T10:10:26Z</time>
      </trkpt>
      <trkpt lat="47.28308" lon="-1.61339">
        <ele>52.2</ele>
        <time>2012-01-12T10:10:27Z</time>
      </trkpt>
      <trkpt lat="47.28312" lon="-1.61347">
        <ele>51.5</ele>
        <time>2012-01-12T10:10:32Z</time>
      </trkpt>
      <trkpt lat="47.28315" lon="-1.61351">
        <ele>51.9</ele>
        <time>2012-01-12T10:10:35Z</time>
      </trkpt>
      <trkpt lat="47.28318" lon="-1.61354">
        <ele>52.5</ele>
        <time>2012-01-12T10:10:38Z</time>
      </trkpt>
      <trkpt lat="47.28321" lon="-1.61356">
        <ele>52</ele>
        <time>2012-01-12T10:10:41Z</time>
      </trkpt>
      <trkpt lat="47.28325" lon="-1.61358">
        <ele>52</ele>
        <time>2012-01-12T10:10:44Z</time>
      </trkpt>
      <trkpt lat="47.28329" lon="-1.61361">
        <ele>52</ele>
        <time>2012-01-12T10:10:47Z</time>
      </trkpt>
      <trkpt lat="47.28333" lon="-1.61364">
        <ele>52</ele>
        <time>2012-01-12T10:10:50Z</time>
      </trkpt>
      <trkpt lat="47.28336" lon="-1.61367">
        <ele>52.4</ele>
        <time>2012-01-12T10:10:53Z</time>
      </trkpt>
      <trkpt lat="47.28339" lon="-1.61369">
        <ele>52.5</ele>
        <time>2012-01-12T10:10:55Z</time>
      </trkpt>
      <trkpt lat="47.28342" lon="-1.61371">
        <ele>52.5</ele>
        <time>2012-01-12T10:10:57Z</time>
      </trkpt>
      <trkpt lat="47.28345" lon="-1.61372">
        <ele>52.4</ele>
        <time>2012-01-12T10:10:59Z</time>
      </trkpt>
      <trkpt lat="47.28349" lon="-1.61375">
        <ele>52</ele>
        <time>2012-01-12T10:11:02Z</time>
      </trkpt>
      <trkpt lat="47.28353" lon="-1.61377">
        <ele>52.2</ele>
        <time>2012-01-12T10:11:05Z</time>
      </trkpt>
      <trkpt lat="47.28356" lon="-1.61378">
        <ele>52.4</ele>
        <time>2012-01-12T10:11:07Z</time>
      </trkpt>
      <trkpt lat="47.28359" lon="-1.6138">
        <ele>52.2</ele>
        <time>2012-01-12T10:11:10Z</time>
      </trkpt>
      <trkpt lat="47.28363" lon="-1.61382">
        <ele>51.2</ele>
        <time>2012-01-12T10:11:13Z</time>
      </trkpt>
      <trkpt lat="47.28366" lon="-1.61383">
        <ele>51.2</ele>
        <time>2012-01-12T10:11:15Z</time>
      </trkpt>
      <trkpt lat="47.2837" lon="-1.61385">
        <ele>51.7</ele>
        <time>2012-01-12T10:11:18Z</time>
      </trkpt>
      <trkpt lat="47.28373" lon="-1.61387">
        <ele>52</ele>
        <time>2012-01-12T10:11:20Z</time>
      </trkpt>
      <trkpt lat="47.28377" lon="-1.61388">
        <ele>52.5</ele>
        <time>2012-01-12T10:11:22Z</time>
      </trkpt>
      <trkpt lat="47.2838" lon="-1.6139">
        <ele>53</ele>
        <time>2012-01-12T10:11:25Z</time>
      </trkpt>
      <trkpt lat="47.28384" lon="-1.61391">
        <ele>52.9</ele>
        <time>2012-01-12T10:11:28Z</time>
      </trkpt>
      <trkpt lat="47.28386" lon="-1.61392">
        <ele>52.9</ele>
        <time>2012-01-12T10:11:29Z</time>
      </trkpt>
      <trkpt lat="47.28391" lon="-1.61395">
        <ele>52.2</ele>
        <time>2012-01-12T10:11:33Z</time>
      </trkpt>
      <trkpt lat="47.28395" lon="-1.61396">
        <ele>52.2</ele>
        <time>2012-01-12T10:11:36Z</time>
      </trkpt>
      <trkpt lat="47.28399" lon="-1.61397">
        <ele>52.4</ele>
        <time>2012-01-12T10:11:38Z</time>
      </trkpt>
      <trkpt lat="47.28403" lon="-1.61399">
        <ele>52.5</ele>
        <time>2012-01-12T10:11:41Z</time>
      </trkpt>
      <trkpt lat="47.28407" lon="-1.61401">
        <ele>52.2</ele>
        <time>2012-01-12T10:11:44Z</time>
      </trkpt>
      <trkpt lat="47.28411" lon="-1.61402">
        <ele>52.2</ele>
        <time>2012-01-12T10:11:47Z</time>
      </trkpt>
      <trkpt lat="47.28414" lon="-1.61405">
        <ele>52.5</ele>
        <time>2012-01-12T10:11:50Z</time>
      </trkpt>
      <trkpt lat="47.28418" lon="-1.61407">
        <ele>52</ele>
        <time>2012-01-12T10:11:53Z</time>
      </trkpt>
      <trkpt lat="47.28421" lon="-1.6141">
        <ele>51.9</ele>
        <time>2012-01-12T10:11:56Z</time>
      </trkpt>
      <trkpt lat="47.28425" lon="-1.61411">
        <ele>52.2</ele>
        <time>2012-01-12T10:11:59Z</time>
      </trkpt>
      <trkpt lat="47.28429" lon="-1.61413">
        <ele>52.4</ele>
        <time>2012-01-12T10:12:02Z</time>
      </trkpt>
      <trkpt lat="47.28432" lon="-1.61415">
        <ele>52.4</ele>
        <time>2012-01-12T10:12:04Z</time>
      </trkpt>
      <trkpt lat="47.28435" lon="-1.61415">
        <ele>52.4</ele>
        <time>2012-01-12T10:12:06Z</time>
      </trkpt>
      <trkpt lat="47.28439" lon="-1.61416">
        <ele>52.5</ele>
        <time>2012-01-12T10:12:09Z</time>
      </trkpt>
      <trkpt lat="47.28442" lon="-1.61419">
        <ele>52.7</ele>
        <time>2012-01-12T10:12:12Z</time>
      </trkpt>
      <trkpt lat="47.28446" lon="-1.6142">
        <ele>52.7</ele>
        <time>2012-01-12T10:12:15Z</time>
      </trkpt>
      <trkpt lat="47.2845" lon="-1.6142">
        <ele>52.2</ele>
        <time>2012-01-12T10:12:18Z</time>
      </trkpt>
      <trkpt lat="47.28455" lon="-1.61419">
        <ele>52</ele>
        <time>2012-01-12T10:12:21Z</time>
      </trkpt>
      <trkpt lat="47.28459" lon="-1.61418">
        <ele>52.2</ele>
        <time>2012-01-12T10:12:24Z</time>
      </trkpt>
      <trkpt lat="47.28463" lon="-1.61419">
        <ele>52.2</ele>
        <time>2012-01-12T10:12:27Z</time>
      </trkpt>
      <trkpt lat="47.28467" lon="-1.6142">
        <ele>52.2</ele>
        <time>2012-01-12T10:12:30Z</time>
      </trkpt>
      <trkpt lat="47.28468" lon="-1.6142">
        <ele>52.2</ele>
        <time>2012-01-12T10:12:31Z</time>
      </trkpt>
      <trkpt lat="47.28474" lon="-1.6142">
        <ele>52.4</ele>
        <time>2012-01-12T10:12:34Z</time>
      </trkpt>
      <trkpt lat="47.28477" lon="-1.61421">
        <ele>52.9</ele>
        <time>2012-01-12T10:12:37Z</time>
      </trkpt>
      <trkpt lat="47.28481" lon="-1.61422">
        <ele>53</ele>
        <time>2012-01-12T10:12:40Z</time>
      </trkpt>
      <trkpt lat="47.28485" lon="-1.61424">
        <ele>52.5</ele>
        <time>2012-01-12T10:12:43Z</time>
      </trkpt>
      <trkpt lat="47.28488" lon="-1.61426">
        <ele>52.7</ele>
        <time>2012-01-12T10:12:46Z</time>
      </trkpt>
      <trkpt lat="47.28492" lon="-1.61427">
        <ele>52</ele>
        <time>2012-01-12T10:12:49Z</time>
      </trkpt>
      <trkpt lat="47.28496" lon="-1.6143">
        <ele>51.7</ele>
        <time>2012-01-12T10:12:52Z</time>
      </trkpt>
      <trkpt lat="47.28499" lon="-1.61432">
        <ele>51.9</ele>
        <time>2012-01-12T10:12:54Z</time>
      </trkpt>
      <trkpt lat="47.28503" lon="-1.61434">
        <ele>52</ele>
        <time>2012-01-12T10:12:56Z</time>
      </trkpt>
      <trkpt lat="47.28506" lon="-1.61437">
        <ele>52.2</ele>
        <time>2012-01-12T10:12:58Z</time>
      </trkpt>
      <trkpt lat="47.2851" lon="-1.6144">
        <ele>52</ele>
        <time>2012-01-12T10:13:00Z</time>
      </trkpt>
      <trkpt lat="47.28514" lon="-1.61442">
        <ele>51.9</ele>
        <time>2012-01-12T10:13:02Z</time>
      </trkpt>
      <trkpt lat="47.28516" lon="-1.61445">
        <ele>52.2</ele>
        <time>2012-01-12T10:13:04Z</time>
      </trkpt>
      <trkpt lat="47.2852" lon="-1.61448">
        <ele>52</ele>
        <time>2012-01-12T10:13:06Z</time>
      </trkpt>
      <trkpt lat="47.28523" lon="-1.61451">
        <ele>51.5</ele>
        <time>2012-01-12T10:13:08Z</time>
      </trkpt>
      <trkpt lat="47.28526" lon="-1.61454">
        <ele>51.4</ele>
        <time>2012-01-12T10:13:10Z</time>
      </trkpt>
      <trkpt lat="47.28529" lon="-1.61457">
        <ele>51.5</ele>
        <time>2012-01-12T10:13:12Z</time>
      </trkpt>
      <trkpt lat="47.28533" lon="-1.61461">
        <ele>52</ele>
        <time>2012-01-12T10:13:15Z</time>
      </trkpt>
      <trkpt lat="47.28537" lon="-1.61464">
        <ele>52.5</ele>
        <time>2012-01-12T10:13:18Z</time>
      </trkpt>
      <trkpt lat="47.28539" lon="-1.61467">
        <ele>52.5</ele>
        <time>2012-01-12T10:13:20Z</time>
      </trkpt>
      <trkpt lat="47.28542" lon="-1.6147">
        <ele>52.4</ele>
        <time>2012-01-12T10:13:22Z</time>
      </trkpt>
      <trkpt lat="47.28545" lon="-1.61472">
        <ele>52</ele>
        <time>2012-01-12T10:13:24Z</time>
      </trkpt>
      <trkpt lat="47.28548" lon="-1.61475">
        <ele>52</ele>
        <time>2012-01-12T10:13:26Z</time>
      </trkpt>
      <trkpt lat="47.28551" lon="-1.61479">
        <ele>51.7</ele>
        <time>2012-01-12T10:13:28Z</time>
      </trkpt>
      <trkpt lat="47.28553" lon="-1.61481">
        <ele>51.5</ele>
        <time>2012-01-12T10:13:30Z</time>
      </trkpt>
      <trkpt lat="47.28556" lon="-1.61484">
        <ele>50.7</ele>
        <time>2012-01-12T10:13:32Z</time>
      </trkpt>
      <trkpt lat="47.28558" lon="-1.61486">
        <ele>50.5</ele>
        <time>2012-01-12T10:13:33Z</time>
      </trkpt>
      <trkpt lat="47.28563" lon="-1.61491">
        <ele>50.5</ele>
        <time>2012-01-12T10:13:37Z</time>
      </trkpt>
      <trkpt lat="47.28566" lon="-1.61495">
        <ele>50.9</ele>
        <time>2012-01-12T10:13:40Z</time>
      </trkpt>
      <trkpt lat="47.2857" lon="-1.61498">
        <ele>50.5</ele>
        <time>2012-01-12T10:13:44Z</time>
      </trkpt>
      <trkpt lat="47.28573" lon="-1.61496">
        <ele>50.5</ele>
        <time>2012-01-12T10:13:48Z</time>
      </trkpt>
      <trkpt lat="47.28577" lon="-1.61494">
        <ele>51</ele>
        <time>2012-01-12T10:13:51Z</time>
      </trkpt>
      <trkpt lat="47.2858" lon="-1.61491">
        <ele>50.7</ele>
        <time>2012-01-12T10:13:54Z</time>
      </trkpt>
      <trkpt lat="47.28584" lon="-1.61487">
        <ele>50.5</ele>
        <time>2012-01-12T10:13:57Z</time>
      </trkpt>
      <trkpt lat="47.28587" lon="-1.61484">
        <ele>50.7</ele>
        <time>2012-01-12T10:14:00Z</time>
      </trkpt>
      <trkpt lat="47.28591" lon="-1.61481">
        <ele>50.7</ele>
        <time>2012-01-12T10:14:03Z</time>
      </trkpt>
      <trkpt lat="47.28593" lon="-1.61479">
        <ele>50.7</ele>
        <time>2012-01-12T10:14:05Z</time>
      </trkpt>
      <trkpt lat="47.28596" lon="-1.61477">
        <ele>51</ele>
        <time>2012-01-12T10:14:07Z</time>
      </trkpt>
      <trkpt lat="47.286" lon="-1.61473">
        <ele>51.5</ele>
        <time>2012-01-12T10:14:10Z</time>
      </trkpt>
      <trkpt lat="47.28603" lon="-1.61472">
        <ele>51.7</ele>
        <time>2012-01-12T10:14:12Z</time>
      </trkpt>
      <trkpt lat="47.28606" lon="-1.61469">
        <ele>51.7</ele>
        <time>2012-01-12T10:14:15Z</time>
      </trkpt>
      <trkpt lat="47.2861" lon="-1.61466">
        <ele>52</ele>
        <time>2012-01-12T10:14:18Z</time>
      </trkpt>
      <trkpt lat="47.28614" lon="-1.61463">
        <ele>52.7</ele>
        <time>2012-01-12T10:14:21Z</time>
      </trkpt>
      <trkpt lat="47.28618" lon="-1.61461">
        <ele>52.7</ele>
        <time>2012-01-12T10:14:24Z</time>
      </trkpt>
      <trkpt lat="47.28622" lon="-1.61459">
        <ele>52.4</ele>
        <time>2012-01-12T10:14:27Z</time>
      </trkpt>
      <trkpt lat="47.28625" lon="-1.61456">
        <ele>53</ele>
        <time>2012-01-12T10:14:30Z</time>
      </trkpt>
      <trkpt lat="47.28629" lon="-1.61453">
        <ele>53</ele>
        <time>2012-01-12T10:14:33Z</time>
      </trkpt>
      <trkpt lat="47.2863" lon="-1.61452">
        <ele>53</ele>
        <time>2012-01-12T10:14:34Z</time>
      </trkpt>
      <trkpt lat="47.28635" lon="-1.61447">
        <ele>52.7</ele>
        <time>2012-01-12T10:14:38Z</time>
      </trkpt>
      <trkpt lat="47.28638" lon="-1.61446">
        <ele>52.7</ele>
        <time>2012-01-12T10:14:40Z</time>
      </trkpt>
      <trkpt lat="47.28641" lon="-1.61444">
        <ele>52.5</ele>
        <time>2012-01-12T10:14:42Z</time>
      </trkpt>
      <trkpt lat="47.28644" lon="-1.61442">
        <ele>52.5</ele>
        <time>2012-01-12T10:14:44Z</time>
      </trkpt>
      <trkpt lat="47.28647" lon="-1.6144">
        <ele>53</ele>
        <time>2012-01-12T10:14:46Z</time>
      </trkpt>
      <trkpt lat="47.28651" lon="-1.61437">
        <ele>53.5</ele>
        <time>2012-01-12T10:14:49Z</time>
      </trkpt>
      <trkpt lat="47.28654" lon="-1.61435">
        <ele>53.7</ele>
        <time>2012-01-12T10:14:51Z</time>
      </trkpt>
      <trkpt lat="47.28656" lon="-1.61433">
        <ele>54.2</ele>
        <time>2012-01-12T10:14:53Z</time>
      </trkpt>
      <trkpt lat="47.2866" lon="-1.61431">
        <ele>54.5</ele>
        <time>2012-01-12T10:14:55Z</time>
      </trkpt>
      <trkpt lat="47.28662" lon="-1.61429">
        <ele>54.2</ele>
        <time>2012-01-12T10:14:57Z</time>
      </trkpt>
      <trkpt lat="47.28665" lon="-1.61426">
        <ele>54</ele>
        <time>2012-01-12T10:14:59Z</time>
      </trkpt>
      <trkpt lat="47.28668" lon="-1.61425">
        <ele>54</ele>
        <time>2012-01-12T10:15:01Z</time>
      </trkpt>
      <trkpt lat="47.28671" lon="-1.61423">
        <ele>54.2</ele>
        <time>2012-01-12T10:15:03Z</time>
      </trkpt>
      <trkpt lat="47.28674" lon="-1.61421">
        <ele>53.7</ele>
        <time>2012-01-12T10:15:05Z</time>
      </trkpt>
      <trkpt lat="47.28678" lon="-1.61419">
        <ele>53.9</ele>
        <time>2012-01-12T10:15:07Z</time>
      </trkpt>
      <trkpt lat="47.28681" lon="-1.61417">
        <ele>54</ele>
        <time>2012-01-12T10:15:09Z</time>
      </trkpt>
      <trkpt lat="47.28684" lon="-1.61415">
        <ele>54</ele>
        <time>2012-01-12T10:15:11Z</time>
      </trkpt>
      <trkpt lat="47.28687" lon="-1.61413">
        <ele>54</ele>
        <time>2012-01-12T10:15:13Z</time>
      </trkpt>
      <trkpt lat="47.28691" lon="-1.61414">
        <ele>54.2</ele>
        <time>2012-01-12T10:15:16Z</time>
      </trkpt>
      <trkpt lat="47.28694" lon="-1.61414">
        <ele>54.2</ele>
        <time>2012-01-12T10:15:19Z</time>
      </trkpt>
      <trkpt lat="47.28699" lon="-1.61414">
        <ele>54.9</ele>
        <time>2012-01-12T10:15:29Z</time>
      </trkpt>
      <trkpt lat="47.28699" lon="-1.61407">
        <ele>54</ele>
        <time>2012-01-12T10:17:15Z</time>
      </trkpt>
      <trkpt lat="47.28699" lon="-1.61407">
        <ele>53.9</ele>
        <time>2012-01-12T10:17:16Z</time>
      </trkpt>
      <trkpt lat="47.28706" lon="-1.61408">
        <ele>53.7</ele>
        <time>2012-01-12T10:18:18Z</time>
      </trkpt>
      <trkpt lat="47.28707" lon="-1.6141">
        <ele>53.7</ele>
        <time>2012-01-12T10:18:19Z</time>
      </trkpt>
      <trkpt lat="47.28711" lon="-1.61418">
        <ele>53.5</ele>
        <time>2012-01-12T10:18:24Z</time>
      </trkpt>
      <trkpt lat="47.28713" lon="-1.61423">
        <ele>53</ele>
        <time>2012-01-12T10:18:27Z</time>
      </trkpt>
      <trkpt lat="47.28716" lon="-1.61427">
        <ele>53.4</ele>
        <time>2012-01-12T10:18:30Z</time>
      </trkpt>
      <trkpt lat="47.28719" lon="-1.61432">
        <ele>52.7</ele>
        <time>2012-01-12T10:18:33Z</time>
      </trkpt>
      <trkpt lat="47.28721" lon="-1.61437">
        <ele>52.7</ele>
        <time>2012-01-12T10:18:36Z</time>
      </trkpt>
      <trkpt lat="47.28724" lon="-1.61442">
        <ele>52.7</ele>
        <time>2012-01-12T10:18:39Z</time>
      </trkpt>
      <trkpt lat="47.28725" lon="-1.61445">
        <ele>52.5</ele>
        <time>2012-01-12T10:18:41Z</time>
      </trkpt>
      <trkpt lat="47.28728" lon="-1.61449">
        <ele>52.5</ele>
        <time>2012-01-12T10:18:43Z</time>
      </trkpt>
      <trkpt lat="47.28731" lon="-1.61453">
        <ele>52.2</ele>
        <time>2012-01-12T10:18:46Z</time>
      </trkpt>
      <trkpt lat="47.28733" lon="-1.61458">
        <ele>51.5</ele>
        <time>2012-01-12T10:18:49Z</time>
      </trkpt>
      <trkpt lat="47.28735" lon="-1.61461">
        <ele>51.7</ele>
        <time>2012-01-12T10:18:51Z</time>
      </trkpt>
      <trkpt lat="47.28738" lon="-1.61466">
        <ele>51.4</ele>
        <time>2012-01-12T10:18:54Z</time>
      </trkpt>
      <trkpt lat="47.2874" lon="-1.6147">
        <ele>50.7</ele>
        <time>2012-01-12T10:18:57Z</time>
      </trkpt>
      <trkpt lat="47.28742" lon="-1.61475">
        <ele>50</ele>
        <time>2012-01-12T10:19:00Z</time>
      </trkpt>
      <trkpt lat="47.28745" lon="-1.61478">
        <ele>49.4</ele>
        <time>2012-01-12T10:19:03Z</time>
      </trkpt>
      <trkpt lat="47.28748" lon="-1.61482">
        <ele>49</ele>
        <time>2012-01-12T10:19:06Z</time>
      </trkpt>
      <trkpt lat="47.2875" lon="-1.61486">
        <ele>48.7</ele>
        <time>2012-01-12T10:19:09Z</time>
      </trkpt>
      <trkpt lat="47.28753" lon="-1.61488">
        <ele>48.5</ele>
        <time>2012-01-12T10:19:11Z</time>
      </trkpt>
      <trkpt lat="47.28756" lon="-1.61492">
        <ele>48.5</ele>
        <time>2012-01-12T10:19:14Z</time>
      </trkpt>
      <trkpt lat="47.28758" lon="-1.61496">
        <ele>48.5</ele>
        <time>2012-01-12T10:19:16Z</time>
      </trkpt>
      <trkpt lat="47.28761" lon="-1.61499">
        <ele>48.7</ele>
        <time>2012-01-12T10:19:18Z</time>
      </trkpt>
      <trkpt lat="47.28763" lon="-1.61502">
        <ele>48.4</ele>
        <time>2012-01-12T10:19:20Z</time>
      </trkpt>
      <trkpt lat="47.28764" lon="-1.61504">
        <ele>48.2</ele>
        <time>2012-01-12T10:19:21Z</time>
      </trkpt>
      <trkpt lat="47.28768" lon="-1.61509">
        <ele>47.5</ele>
        <time>2012-01-12T10:19:24Z</time>
      </trkpt>
      <trkpt lat="47.28772" lon="-1.61512">
        <ele>47.4</ele>
        <time>2012-01-12T10:19:27Z</time>
      </trkpt>
      <trkpt lat="47.28775" lon="-1.61516">
        <ele>47</ele>
        <time>2012-01-12T10:19:29Z</time>
      </trkpt>
      <trkpt lat="47.28777" lon="-1.61519">
        <ele>46.5</ele>
        <time>2012-01-12T10:19:31Z</time>
      </trkpt>
      <trkpt lat="47.28779" lon="-1.61522">
        <ele>46</ele>
        <time>2012-01-12T10:19:33Z</time>
      </trkpt>
      <trkpt lat="47.28782" lon="-1.61525">
        <ele>46</ele>
        <time>2012-01-12T10:19:35Z</time>
      </trkpt>
      <trkpt lat="47.28785" lon="-1.61528">
        <ele>46</ele>
        <time>2012-01-12T10:19:38Z</time>
      </trkpt>
      <trkpt lat="47.28788" lon="-1.61531">
        <ele>45.5</ele>
        <time>2012-01-12T10:19:41Z</time>
      </trkpt>
      <trkpt lat="47.28791" lon="-1.61534">
        <ele>45</ele>
        <time>2012-01-12T10:19:43Z</time>
      </trkpt>
      <trkpt lat="47.28794" lon="-1.61538">
        <ele>45.2</ele>
        <time>2012-01-12T10:19:46Z</time>
      </trkpt>
      <trkpt lat="47.28797" lon="-1.61542">
        <ele>44.7</ele>
        <time>2012-01-12T10:19:49Z</time>
      </trkpt>
      <trkpt lat="47.288" lon="-1.61544">
        <ele>44.4</ele>
        <time>2012-01-12T10:19:51Z</time>
      </trkpt>
      <trkpt lat="47.28803" lon="-1.61546">
        <ele>44.2</ele>
        <time>2012-01-12T10:19:53Z</time>
      </trkpt>
      <trkpt lat="47.28805" lon="-1.61549">
        <ele>44.2</ele>
        <time>2012-01-12T10:19:55Z</time>
      </trkpt>
      <trkpt lat="47.28808" lon="-1.61552">
        <ele>44.2</ele>
        <time>2012-01-12T10:19:57Z</time>
      </trkpt>
      <trkpt lat="47.28812" lon="-1.61556">
        <ele>44</ele>
        <time>2012-01-12T10:20:00Z</time>
      </trkpt>
      <trkpt lat="47.28815" lon="-1.61558">
        <ele>44</ele>
        <time>2012-01-12T10:20:02Z</time>
      </trkpt>
      <trkpt lat="47.28818" lon="-1.61561">
        <ele>43.7</ele>
        <time>2012-01-12T10:20:04Z</time>
      </trkpt>
      <trkpt lat="47.28821" lon="-1.61563">
        <ele>43.2</ele>
        <time>2012-01-12T10:20:06Z</time>
      </trkpt>
      <trkpt lat="47.28825" lon="-1.61566">
        <ele>43.5</ele>
        <time>2012-01-12T10:20:09Z</time>
      </trkpt>
      <trkpt lat="47.28828" lon="-1.6157">
        <ele>42.9</ele>
        <time>2012-01-12T10:20:12Z</time>
      </trkpt>
      <trkpt lat="47.28831" lon="-1.61574">
        <ele>42.7</ele>
        <time>2012-01-12T10:20:15Z</time>
      </trkpt>
      <trkpt lat="47.28834" lon="-1.61576">
        <ele>42.4</ele>
        <time>2012-01-12T10:20:17Z</time>
      </trkpt>
      <trkpt lat="47.28837" lon="-1.61578">
        <ele>42</ele>
        <time>2012-01-12T10:20:19Z</time>
      </trkpt>
      <trkpt lat="47.2884" lon="-1.61582">
        <ele>42.4</ele>
        <time>2012-01-12T10:20:22Z</time>
      </trkpt>
      <trkpt lat="47.28841" lon="-1.61583">
        <ele>42</ele>
        <time>2012-01-12T10:20:23Z</time>
      </trkpt>
      <trkpt lat="47.28845" lon="-1.61587">
        <ele>41.5</ele>
        <time>2012-01-12T10:20:26Z</time>
      </trkpt>
      <trkpt lat="47.28849" lon="-1.6159">
        <ele>41.2</ele>
        <time>2012-01-12T10:20:29Z</time>
      </trkpt>
      <trkpt lat="47.28852" lon="-1.61594">
        <ele>41</ele>
        <time>2012-01-12T10:20:32Z</time>
      </trkpt>
      <trkpt lat="47.28854" lon="-1.61597">
        <ele>41.2</ele>
        <time>2012-01-12T10:20:34Z</time>
      </trkpt>
      <trkpt lat="47.28857" lon="-1.61603">
        <ele>41</ele>
        <time>2012-01-12T10:20:37Z</time>
      </trkpt>
      <trkpt lat="47.28858" lon="-1.61607">
        <ele>41.2</ele>
        <time>2012-01-12T10:20:39Z</time>
      </trkpt>
      <trkpt lat="47.28859" lon="-1.61611">
        <ele>41.5</ele>
        <time>2012-01-12T10:20:41Z</time>
      </trkpt>
      <trkpt lat="47.28861" lon="-1.61617">
        <ele>41.4</ele>
        <time>2012-01-12T10:20:44Z</time>
      </trkpt>
      <trkpt lat="47.28864" lon="-1.61622">
        <ele>41.2</ele>
        <time>2012-01-12T10:20:47Z</time>
      </trkpt>
      <trkpt lat="47.28866" lon="-1.61627">
        <ele>41.4</ele>
        <time>2012-01-12T10:20:50Z</time>
      </trkpt>
      <trkpt lat="47.28868" lon="-1.61631">
        <ele>41.2</ele>
        <time>2012-01-12T10:20:52Z</time>
      </trkpt>
      <trkpt lat="47.2887" lon="-1.61635">
        <ele>41</ele>
        <time>2012-01-12T10:20:54Z</time>
      </trkpt>
      <trkpt lat="47.28872" lon="-1.61639">
        <ele>41.2</ele>
        <time>2012-01-12T10:20:56Z</time>
      </trkpt>
      <trkpt lat="47.28874" lon="-1.61642">
        <ele>41.5</ele>
        <time>2012-01-12T10:20:58Z</time>
      </trkpt>
      <trkpt lat="47.28876" lon="-1.61646">
        <ele>41.7</ele>
        <time>2012-01-12T10:21:00Z</time>
      </trkpt>
      <trkpt lat="47.28878" lon="-1.6165">
        <ele>41.4</ele>
        <time>2012-01-12T10:21:02Z</time>
      </trkpt>
      <trkpt lat="47.2888" lon="-1.61653">
        <ele>41.2</ele>
        <time>2012-01-12T10:21:04Z</time>
      </trkpt>
      <trkpt lat="47.28883" lon="-1.61658">
        <ele>42.2</ele>
        <time>2012-01-12T10:21:07Z</time>
      </trkpt>
      <trkpt lat="47.28885" lon="-1.61661">
        <ele>42.7</ele>
        <time>2012-01-12T10:21:09Z</time>
      </trkpt>
      <trkpt lat="47.28888" lon="-1.61666">
        <ele>43.2</ele>
        <time>2012-01-12T10:21:12Z</time>
      </trkpt>
      <trkpt lat="47.2889" lon="-1.6167">
        <ele>43.5</ele>
        <time>2012-01-12T10:21:14Z</time>
      </trkpt>
      <trkpt lat="47.28892" lon="-1.61673">
        <ele>43.9</ele>
        <time>2012-01-12T10:21:16Z</time>
      </trkpt>
      <trkpt lat="47.28894" lon="-1.61676">
        <ele>44.4</ele>
        <time>2012-01-12T10:21:18Z</time>
      </trkpt>
      <trkpt lat="47.28898" lon="-1.6168">
        <ele>44.2</ele>
        <time>2012-01-12T10:21:21Z</time>
      </trkpt>
      <trkpt lat="47.289" lon="-1.61685">
        <ele>44.2</ele>
        <time>2012-01-12T10:21:24Z</time>
      </trkpt>
      <trkpt lat="47.28901" lon="-1.61686">
        <ele>44.5</ele>
        <time>2012-01-12T10:21:25Z</time>
      </trkpt>
      <trkpt lat="47.28907" lon="-1.61692">
        <ele>45.4</ele>
        <time>2012-01-12T10:21:30Z</time>
      </trkpt>
      <trkpt lat="47.28909" lon="-1.61696">
        <ele>45.2</ele>
        <time>2012-01-12T10:21:32Z</time>
      </trkpt>
      <trkpt lat="47.28911" lon="-1.61699">
        <ele>45</ele>
        <time>2012-01-12T10:21:34Z</time>
      </trkpt>
      <trkpt lat="47.28914" lon="-1.61703">
        <ele>44.9</ele>
        <time>2012-01-12T10:21:37Z</time>
      </trkpt>
      <trkpt lat="47.28917" lon="-1.61707">
        <ele>45.4</ele>
        <time>2012-01-12T10:21:40Z</time>
      </trkpt>
      <trkpt lat="47.2892" lon="-1.61712">
        <ele>46.4</ele>
        <time>2012-01-12T10:21:43Z</time>
      </trkpt>
      <trkpt lat="47.28923" lon="-1.61716">
        <ele>46.9</ele>
        <time>2012-01-12T10:21:46Z</time>
      </trkpt>
      <trkpt lat="47.28926" lon="-1.6172">
        <ele>47.2</ele>
        <time>2012-01-12T10:21:49Z</time>
      </trkpt>
      <trkpt lat="47.28929" lon="-1.61724">
        <ele>47.5</ele>
        <time>2012-01-12T10:21:52Z</time>
      </trkpt>
      <trkpt lat="47.28932" lon="-1.61729">
        <ele>47.2</ele>
        <time>2012-01-12T10:21:55Z</time>
      </trkpt>
      <trkpt lat="47.28935" lon="-1.61733">
        <ele>47</ele>
        <time>2012-01-12T10:21:58Z</time>
      </trkpt>
      <trkpt lat="47.28937" lon="-1.61738">
        <ele>46.9</ele>
        <time>2012-01-12T10:22:01Z</time>
      </trkpt>
      <trkpt lat="47.28941" lon="-1.61742">
        <ele>47.9</ele>
        <time>2012-01-12T10:22:04Z</time>
      </trkpt>
      <trkpt lat="47.28943" lon="-1.61746">
        <ele>47.2</ele>
        <time>2012-01-12T10:22:07Z</time>
      </trkpt>
      <trkpt lat="47.28946" lon="-1.6175">
        <ele>47.7</ele>
        <time>2012-01-12T10:22:10Z</time>
      </trkpt>
      <trkpt lat="47.28949" lon="-1.61753">
        <ele>48</ele>
        <time>2012-01-12T10:22:13Z</time>
      </trkpt>
      <trkpt lat="47.28952" lon="-1.61758">
        <ele>48.4</ele>
        <time>2012-01-12T10:22:16Z</time>
      </trkpt>
      <trkpt lat="47.28954" lon="-1.61762">
        <ele>49</ele>
        <time>2012-01-12T10:22:19Z</time>
      </trkpt>
      <trkpt lat="47.28957" lon="-1.61766">
        <ele>49.4</ele>
        <time>2012-01-12T10:22:22Z</time>
      </trkpt>
      <trkpt lat="47.28959" lon="-1.6177">
        <ele>49.7</ele>
        <time>2012-01-12T10:22:24Z</time>
      </trkpt>
      <trkpt lat="47.28961" lon="-1.61775">
        <ele>50</ele>
        <time>2012-01-12T10:22:27Z</time>
      </trkpt>
      <trkpt lat="47.28962" lon="-1.61776">
        <ele>50</ele>
        <time>2012-01-12T10:22:28Z</time>
      </trkpt>
      <trkpt lat="47.28967" lon="-1.61783">
        <ele>50.4</ele>
        <time>2012-01-12T10:22:33Z</time>
      </trkpt>
      <trkpt lat="47.28969" lon="-1.61787">
        <ele>51.2</ele>
        <time>2012-01-12T10:22:36Z</time>
      </trkpt>
      <trkpt lat="47.28972" lon="-1.61791">
        <ele>51.2</ele>
        <time>2012-01-12T10:22:39Z</time>
      </trkpt>
      <trkpt lat="47.28975" lon="-1.61795">
        <ele>51.5</ele>
        <time>2012-01-12T10:22:42Z</time>
      </trkpt>
      <trkpt lat="47.28977" lon="-1.618">
        <ele>51.7</ele>
        <time>2012-01-12T10:22:45Z</time>
      </trkpt>
      <trkpt lat="47.28979" lon="-1.61805">
        <ele>51.2</ele>
        <time>2012-01-12T10:22:48Z</time>
      </trkpt>
      <trkpt lat="47.28982" lon="-1.61811">
        <ele>51.2</ele>
        <time>2012-01-12T10:22:51Z</time>
      </trkpt>
      <trkpt lat="47.28985" lon="-1.61815">
        <ele>51.5</ele>
        <time>2012-01-12T10:22:54Z</time>
      </trkpt>
      <trkpt lat="47.28988" lon="-1.6182">
        <ele>51.7</ele>
        <time>2012-01-12T10:22:57Z</time>
      </trkpt>
      <trkpt lat="47.28989" lon="-1.61824">
        <ele>51.9</ele>
        <time>2012-01-12T10:22:59Z</time>
      </trkpt>
      <trkpt lat="47.28992" lon="-1.61827">
        <ele>52</ele>
        <time>2012-01-12T10:23:01Z</time>
      </trkpt>
      <trkpt lat="47.28994" lon="-1.61832">
        <ele>52.2</ele>
        <time>2012-01-12T10:23:04Z</time>
      </trkpt>
      <trkpt lat="47.28997" lon="-1.61837">
        <ele>52</ele>
        <time>2012-01-12T10:23:07Z</time>
      </trkpt>
      <trkpt lat="47.28999" lon="-1.61842">
        <ele>52.5</ele>
        <time>2012-01-12T10:23:10Z</time>
      </trkpt>
      <trkpt lat="47.29001" lon="-1.61847">
        <ele>53</ele>
        <time>2012-01-12T10:23:13Z</time>
      </trkpt>
      <trkpt lat="47.29004" lon="-1.61851">
        <ele>52.9</ele>
        <time>2012-01-12T10:23:16Z</time>
      </trkpt>
      <trkpt lat="47.29007" lon="-1.61855">
        <ele>52.5</ele>
        <time>2012-01-12T10:23:20Z</time>
      </trkpt>
      <trkpt lat="47.29009" lon="-1.6186">
        <ele>52.4</ele>
        <time>2012-01-12T10:23:23Z</time>
      </trkpt>
      <trkpt lat="47.29011" lon="-1.61865">
        <ele>52.9</ele>
        <time>2012-01-12T10:23:26Z</time>
      </trkpt>
      <trkpt lat="47.29014" lon="-1.61869">
        <ele>52.5</ele>
        <time>2012-01-12T10:23:29Z</time>
      </trkpt>
      <trkpt lat="47.29014" lon="-1.61871">
        <ele>52.2</ele>
        <time>2012-01-12T10:23:30Z</time>
      </trkpt>
      <trkpt lat="47.29018" lon="-1.61879">
        <ele>52</ele>
        <time>2012-01-12T10:23:34Z</time>
      </trkpt>
      <trkpt lat="47.2902" lon="-1.61882">
        <ele>52</ele>
        <time>2012-01-12T10:23:36Z</time>
      </trkpt>
      <trkpt lat="47.29022" lon="-1.61885">
        <ele>52.2</ele>
        <time>2012-01-12T10:23:38Z</time>
      </trkpt>
      <trkpt lat="47.29024" lon="-1.61889">
        <ele>52.2</ele>
        <time>2012-01-12T10:23:40Z</time>
      </trkpt>
      <trkpt lat="47.29026" lon="-1.61893">
        <ele>52.2</ele>
        <time>2012-01-12T10:23:42Z</time>
      </trkpt>
      <trkpt lat="47.29029" lon="-1.61896">
        <ele>52.2</ele>
        <time>2012-01-12T10:23:44Z</time>
      </trkpt>
      <trkpt lat="47.29031" lon="-1.61899">
        <ele>52.2</ele>
        <time>2012-01-12T10:23:46Z</time>
      </trkpt>
      <trkpt lat="47.29033" lon="-1.61903">
        <ele>52</ele>
        <time>2012-01-12T10:23:48Z</time>
      </trkpt>
      <trkpt lat="47.29035" lon="-1.61908">
        <ele>51.2</ele>
        <time>2012-01-12T10:23:51Z</time>
      </trkpt>
      <trkpt lat="47.29038" lon="-1.61914">
        <ele>50.9</ele>
        <time>2012-01-12T10:23:54Z</time>
      </trkpt>
      <trkpt lat="47.2904" lon="-1.61917">
        <ele>51</ele>
        <time>2012-01-12T10:23:57Z</time>
      </trkpt>
      <trkpt lat="47.29043" lon="-1.61921">
        <ele>51</ele>
        <time>2012-01-12T10:24:00Z</time>
      </trkpt>
      <trkpt lat="47.29045" lon="-1.61926">
        <ele>50.5</ele>
        <time>2012-01-12T10:24:03Z</time>
      </trkpt>
      <trkpt lat="47.29048" lon="-1.61931">
        <ele>50.4</ele>
        <time>2012-01-12T10:24:06Z</time>
      </trkpt>
      <trkpt lat="47.2905" lon="-1.61936">
        <ele>50.5</ele>
        <time>2012-01-12T10:24:09Z</time>
      </trkpt>
      <trkpt lat="47.29051" lon="-1.61942">
        <ele>50.7</ele>
        <time>2012-01-12T10:24:12Z</time>
      </trkpt>
      <trkpt lat="47.29049" lon="-1.61947">
        <ele>49.5</ele>
        <time>2012-01-12T10:24:18Z</time>
      </trkpt>
      <trkpt lat="47.29046" lon="-1.61951">
        <ele>49</ele>
        <time>2012-01-12T10:24:23Z</time>
      </trkpt>
      <trkpt lat="47.29044" lon="-1.61955">
        <ele>49</ele>
        <time>2012-01-12T10:24:27Z</time>
      </trkpt>
      <trkpt lat="47.29041" lon="-1.61959">
        <ele>49.2</ele>
        <time>2012-01-12T10:24:30Z</time>
      </trkpt>
      <trkpt lat="47.29039" lon="-1.6196">
        <ele>49.2</ele>
        <time>2012-01-12T10:24:31Z</time>
      </trkpt>
      <trkpt lat="47.29034" lon="-1.61966">
        <ele>48.9</ele>
        <time>2012-01-12T10:24:36Z</time>
      </trkpt>
      <trkpt lat="47.29031" lon="-1.61969">
        <ele>48.5</ele>
        <time>2012-01-12T10:24:39Z</time>
      </trkpt>
      <trkpt lat="47.29027" lon="-1.61973">
        <ele>48.5</ele>
        <time>2012-01-12T10:24:43Z</time>
      </trkpt>
      <trkpt lat="47.29024" lon="-1.61976">
        <ele>48.5</ele>
        <time>2012-01-12T10:24:46Z</time>
      </trkpt>
      <trkpt lat="47.29021" lon="-1.61979">
        <ele>48</ele>
        <time>2012-01-12T10:24:49Z</time>
      </trkpt>
      <trkpt lat="47.29017" lon="-1.61982">
        <ele>47.4</ele>
        <time>2012-01-12T10:24:52Z</time>
      </trkpt>
      <trkpt lat="47.29014" lon="-1.61985">
        <ele>47.5</ele>
        <time>2012-01-12T10:24:55Z</time>
      </trkpt>
      <trkpt lat="47.2901" lon="-1.61987">
        <ele>47.5</ele>
        <time>2012-01-12T10:24:58Z</time>
      </trkpt>
      <trkpt lat="47.29007" lon="-1.61989">
        <ele>47</ele>
        <time>2012-01-12T10:25:01Z</time>
      </trkpt>
      <trkpt lat="47.29003" lon="-1.61991">
        <ele>46.7</ele>
        <time>2012-01-12T10:25:04Z</time>
      </trkpt>
      <trkpt lat="47.28999" lon="-1.61993">
        <ele>46.7</ele>
        <time>2012-01-12T10:25:07Z</time>
      </trkpt>
      <trkpt lat="47.28995" lon="-1.61995">
        <ele>46.5</ele>
        <time>2012-01-12T10:25:10Z</time>
      </trkpt>
      <trkpt lat="47.28991" lon="-1.61997">
        <ele>46.5</ele>
        <time>2012-01-12T10:25:13Z</time>
      </trkpt>
      <trkpt lat="47.28987" lon="-1.61998">
        <ele>46.5</ele>
        <time>2012-01-12T10:25:16Z</time>
      </trkpt>
      <trkpt lat="47.28983" lon="-1.62001">
        <ele>46</ele>
        <time>2012-01-12T10:25:19Z</time>
      </trkpt>
      <trkpt lat="47.2898" lon="-1.62003">
        <ele>45.2</ele>
        <time>2012-01-12T10:25:22Z</time>
      </trkpt>
      <trkpt lat="47.28976" lon="-1.62004">
        <ele>45</ele>
        <time>2012-01-12T10:25:25Z</time>
      </trkpt>
      <trkpt lat="47.28972" lon="-1.62005">
        <ele>44.7</ele>
        <time>2012-01-12T10:25:28Z</time>
      </trkpt>
      <trkpt lat="47.28968" lon="-1.62007">
        <ele>43.7</ele>
        <time>2012-01-12T10:25:31Z</time>
      </trkpt>
      <trkpt lat="47.28967" lon="-1.62007">
        <ele>43.5</ele>
        <time>2012-01-12T10:25:32Z</time>
      </trkpt>
      <trkpt lat="47.2896" lon="-1.62008">
        <ele>43.5</ele>
        <time>2012-01-12T10:25:37Z</time>
      </trkpt>
      <trkpt lat="47.28956" lon="-1.62009">
        <ele>43.2</ele>
        <time>2012-01-12T10:25:39Z</time>
      </trkpt>
      <trkpt lat="47.28952" lon="-1.62011">
        <ele>43</ele>
        <time>2012-01-12T10:25:42Z</time>
      </trkpt>
      <trkpt lat="47.28948" lon="-1.62011">
        <ele>42.5</ele>
        <time>2012-01-12T10:25:45Z</time>
      </trkpt>
      <trkpt lat="47.28944" lon="-1.62012">
        <ele>41.5</ele>
        <time>2012-01-12T10:25:48Z</time>
      </trkpt>
      <trkpt lat="47.28941" lon="-1.62013">
        <ele>41.2</ele>
        <time>2012-01-12T10:25:50Z</time>
      </trkpt>
      <trkpt lat="47.28937" lon="-1.62014">
        <ele>41.2</ele>
        <time>2012-01-12T10:25:52Z</time>
      </trkpt>
      <trkpt lat="47.28934" lon="-1.62014">
        <ele>41.5</ele>
        <time>2012-01-12T10:25:54Z</time>
      </trkpt>
      <trkpt lat="47.2893" lon="-1.62015">
        <ele>41</ele>
        <time>2012-01-12T10:25:57Z</time>
      </trkpt>
      <trkpt lat="47.28927" lon="-1.62014">
        <ele>40.5</ele>
        <time>2012-01-12T10:26:00Z</time>
      </trkpt>
      <trkpt lat="47.28924" lon="-1.62015">
        <ele>40.2</ele>
        <time>2012-01-12T10:26:02Z</time>
      </trkpt>
      <trkpt lat="47.2892" lon="-1.62016">
        <ele>40.2</ele>
        <time>2012-01-12T10:26:05Z</time>
      </trkpt>
      <trkpt lat="47.28915" lon="-1.62017">
        <ele>39.9</ele>
        <time>2012-01-12T10:26:08Z</time>
      </trkpt>
      <trkpt lat="47.28911" lon="-1.62018">
        <ele>39</ele>
        <time>2012-01-12T10:26:11Z</time>
      </trkpt>
      <trkpt lat="47.28907" lon="-1.6202">
        <ele>38.5</ele>
        <time>2012-01-12T10:26:14Z</time>
      </trkpt>
      <trkpt lat="47.28903" lon="-1.62023">
        <ele>38.4</ele>
        <time>2012-01-12T10:26:17Z</time>
      </trkpt>
      <trkpt lat="47.28899" lon="-1.62025">
        <ele>38</ele>
        <time>2012-01-12T10:26:20Z</time>
      </trkpt>
      <trkpt lat="47.28896" lon="-1.62028">
        <ele>37.5</ele>
        <time>2012-01-12T10:26:23Z</time>
      </trkpt>
      <trkpt lat="47.28892" lon="-1.6203">
        <ele>36.5</ele>
        <time>2012-01-12T10:26:26Z</time>
      </trkpt>
      <trkpt lat="47.28888" lon="-1.62032">
        <ele>36.5</ele>
        <time>2012-01-12T10:26:29Z</time>
      </trkpt>
      <trkpt lat="47.28884" lon="-1.62034">
        <ele>35.7</ele>
        <time>2012-01-12T10:26:32Z</time>
      </trkpt>
      <trkpt lat="47.28883" lon="-1.62036">
        <ele>35.9</ele>
        <time>2012-01-12T10:26:33Z</time>
      </trkpt>
      <trkpt lat="47.28877" lon="-1.62041">
        <ele>36.2</ele>
        <time>2012-01-12T10:26:38Z</time>
      </trkpt>
      <trkpt lat="47.28874" lon="-1.62044">
        <ele>35.7</ele>
        <time>2012-01-12T10:26:41Z</time>
      </trkpt>
      <trkpt lat="47.2887" lon="-1.62047">
        <ele>35</ele>
        <time>2012-01-12T10:26:44Z</time>
      </trkpt>
      <trkpt lat="47.28867" lon="-1.62049">
        <ele>34.5</ele>
        <time>2012-01-12T10:26:47Z</time>
      </trkpt>
      <trkpt lat="47.28864" lon="-1.6205">
        <ele>34.4</ele>
        <time>2012-01-12T10:26:49Z</time>
      </trkpt>
      <trkpt lat="47.28861" lon="-1.62051">
        <ele>34.5</ele>
        <time>2012-01-12T10:26:51Z</time>
      </trkpt>
      <trkpt lat="47.28857" lon="-1.62054">
        <ele>34.2</ele>
        <time>2012-01-12T10:26:54Z</time>
      </trkpt>
      <trkpt lat="47.28853" lon="-1.62056">
        <ele>33.7</ele>
        <time>2012-01-12T10:26:57Z</time>
      </trkpt>
      <trkpt lat="47.2885" lon="-1.62057">
        <ele>33.5</ele>
        <time>2012-01-12T10:27:00Z</time>
      </trkpt>
      <trkpt lat="47.28847" lon="-1.62059">
        <ele>33.5</ele>
        <time>2012-01-12T10:27:02Z</time>
      </trkpt>
      <trkpt lat="47.28843" lon="-1.62061">
        <ele>33.4</ele>
        <time>2012-01-12T10:27:05Z</time>
      </trkpt>
      <trkpt lat="47.28839" lon="-1.62064">
        <ele>33</ele>
        <time>2012-01-12T10:27:08Z</time>
      </trkpt>
      <trkpt lat="47.28836" lon="-1.62067">
        <ele>33</ele>
        <time>2012-01-12T10:27:10Z</time>
      </trkpt>
      <trkpt lat="47.28833" lon="-1.62071">
        <ele>33.4</ele>
        <time>2012-01-12T10:27:13Z</time>
      </trkpt>
      <trkpt lat="47.2883" lon="-1.62075">
        <ele>33.9</ele>
        <time>2012-01-12T10:27:16Z</time>
      </trkpt>
      <trkpt lat="47.28828" lon="-1.62079">
        <ele>33.4</ele>
        <time>2012-01-12T10:27:19Z</time>
      </trkpt>
      <trkpt lat="47.28825" lon="-1.62083">
        <ele>33.2</ele>
        <time>2012-01-12T10:27:22Z</time>
      </trkpt>
      <trkpt lat="47.28823" lon="-1.62088">
        <ele>33</ele>
        <time>2012-01-12T10:27:25Z</time>
      </trkpt>
      <trkpt lat="47.28822" lon="-1.62094">
        <ele>33.2</ele>
        <time>2012-01-12T10:27:29Z</time>
      </trkpt>
      <trkpt lat="47.2882" lon="-1.62098">
        <ele>33.2</ele>
        <time>2012-01-12T10:27:31Z</time>
      </trkpt>
      <trkpt lat="47.28819" lon="-1.62104">
        <ele>33.4</ele>
        <time>2012-01-12T10:27:34Z</time>
      </trkpt>
      <trkpt lat="47.28818" lon="-1.62106">
        <ele>33.4</ele>
        <time>2012-01-12T10:27:35Z</time>
      </trkpt>
      <trkpt lat="47.28816" lon="-1.62112">
        <ele>33.2</ele>
        <time>2012-01-12T10:27:38Z</time>
      </trkpt>
      <trkpt lat="47.28815" lon="-1.62116">
        <ele>33.2</ele>
        <time>2012-01-12T10:27:40Z</time>
      </trkpt>
      <trkpt lat="47.28813" lon="-1.62121">
        <ele>33.2</ele>
        <time>2012-01-12T10:27:42Z</time>
      </trkpt>
      <trkpt lat="47.28811" lon="-1.62126">
        <ele>33.5</ele>
        <time>2012-01-12T10:27:45Z</time>
      </trkpt>
      <trkpt lat="47.28809" lon="-1.6213">
        <ele>33.5</ele>
        <time>2012-01-12T10:27:47Z</time>
      </trkpt>
      <trkpt lat="47.28808" lon="-1.62134">
        <ele>33.7</ele>
        <time>2012-01-12T10:27:49Z</time>
      </trkpt>
      <trkpt lat="47.28806" lon="-1.6214">
        <ele>34.4</ele>
        <time>2012-01-12T10:27:52Z</time>
      </trkpt>
      <trkpt lat="47.28805" lon="-1.62146">
        <ele>34</ele>
        <time>2012-01-12T10:27:55Z</time>
      </trkpt>
      <trkpt lat="47.28803" lon="-1.6215">
        <ele>34</ele>
        <time>2012-01-12T10:27:57Z</time>
      </trkpt>
      <trkpt lat="47.28802" lon="-1.62154">
        <ele>34.2</ele>
        <time>2012-01-12T10:27:59Z</time>
      </trkpt>
      <trkpt lat="47.28801" lon="-1.62159">
        <ele>34.9</ele>
        <time>2012-01-12T10:28:01Z</time>
      </trkpt>
      <trkpt lat="47.28799" lon="-1.62164">
        <ele>34.5</ele>
        <time>2012-01-12T10:28:04Z</time>
      </trkpt>
      <trkpt lat="47.28797" lon="-1.6217">
        <ele>34.2</ele>
        <time>2012-01-12T10:28:07Z</time>
      </trkpt>
      <trkpt lat="47.28795" lon="-1.62174">
        <ele>34.4</ele>
        <time>2012-01-12T10:28:09Z</time>
      </trkpt>
      <trkpt lat="47.28794" lon="-1.62179">
        <ele>34.2</ele>
        <time>2012-01-12T10:28:11Z</time>
      </trkpt>
      <trkpt lat="47.28793" lon="-1.62185">
        <ele>34.7</ele>
        <time>2012-01-12T10:28:14Z</time>
      </trkpt>
      <trkpt lat="47.28791" lon="-1.62191">
        <ele>35.5</ele>
        <time>2012-01-12T10:28:17Z</time>
      </trkpt>
      <trkpt lat="47.2879" lon="-1.62196">
        <ele>36.2</ele>
        <time>2012-01-12T10:28:20Z</time>
      </trkpt>
      <trkpt lat="47.28789" lon="-1.62202">
        <ele>37.2</ele>
        <time>2012-01-12T10:28:23Z</time>
      </trkpt>
      <trkpt lat="47.28788" lon="-1.62208">
        <ele>38</ele>
        <time>2012-01-12T10:28:26Z</time>
      </trkpt>
      <trkpt lat="47.28787" lon="-1.62213">
        <ele>38.2</ele>
        <time>2012-01-12T10:28:29Z</time>
      </trkpt>
      <trkpt lat="47.28786" lon="-1.62218">
        <ele>38.7</ele>
        <time>2012-01-12T10:28:32Z</time>
      </trkpt>
      <trkpt lat="47.28786" lon="-1.62223">
        <ele>38.7</ele>
        <time>2012-01-12T10:28:35Z</time>
      </trkpt>
      <trkpt lat="47.28786" lon="-1.62225">
        <ele>38.7</ele>
        <time>2012-01-12T10:28:36Z</time>
      </trkpt>
      <trkpt lat="47.28789" lon="-1.62235">
        <ele>39.9</ele>
        <time>2012-01-12T10:28:43Z</time>
      </trkpt>
      <trkpt lat="47.28789" lon="-1.6224">
        <ele>39.7</ele>
        <time>2012-01-12T10:28:46Z</time>
      </trkpt>
      <trkpt lat="47.28789" lon="-1.62246">
        <ele>39.5</ele>
        <time>2012-01-12T10:28:49Z</time>
      </trkpt>
      <trkpt lat="47.28789" lon="-1.62251">
        <ele>40.4</ele>
        <time>2012-01-12T10:28:52Z</time>
      </trkpt>
      <trkpt lat="47.28789" lon="-1.62257">
        <ele>40.2</ele>
        <time>2012-01-12T10:28:55Z</time>
      </trkpt>
      <trkpt lat="47.28789" lon="-1.62263">
        <ele>41</ele>
        <time>2012-01-12T10:28:58Z</time>
      </trkpt>
      <trkpt lat="47.28789" lon="-1.62268">
        <ele>41.2</ele>
        <time>2012-01-12T10:29:00Z</time>
      </trkpt>
      <trkpt lat="47.28789" lon="-1.62274">
        <ele>41.2</ele>
        <time>2012-01-12T10:29:03Z</time>
      </trkpt>
      <trkpt lat="47.28789" lon="-1.6228">
        <ele>41.2</ele>
        <time>2012-01-12T10:29:06Z</time>
      </trkpt>
      <trkpt lat="47.28789" lon="-1.62286">
        <ele>41.7</ele>
        <time>2012-01-12T10:29:09Z</time>
      </trkpt>
      <trkpt lat="47.28789" lon="-1.62291">
        <ele>41</ele>
        <time>2012-01-12T10:29:12Z</time>
      </trkpt>
      <trkpt lat="47.28787" lon="-1.62297">
        <ele>42.2</ele>
        <time>2012-01-12T10:29:15Z</time>
      </trkpt>
      <trkpt lat="47.28786" lon="-1.62303">
        <ele>42</ele>
        <time>2012-01-12T10:29:18Z</time>
      </trkpt>
      <trkpt lat="47.28784" lon="-1.62309">
        <ele>42.4</ele>
        <time>2012-01-12T10:29:21Z</time>
      </trkpt>
      <trkpt lat="47.28782" lon="-1.62314">
        <ele>42.7</ele>
        <time>2012-01-12T10:29:24Z</time>
      </trkpt>
      <trkpt lat="47.2878" lon="-1.62318">
        <ele>43</ele>
        <time>2012-01-12T10:29:27Z</time>
      </trkpt>
      <trkpt lat="47.28777" lon="-1.62322">
        <ele>43.5</ele>
        <time>2012-01-12T10:29:30Z</time>
      </trkpt>
      <trkpt lat="47.28775" lon="-1.62326">
        <ele>43.7</ele>
        <time>2012-01-12T10:29:32Z</time>
      </trkpt>
      <trkpt lat="47.28773" lon="-1.62331">
        <ele>43.9</ele>
        <time>2012-01-12T10:29:35Z</time>
      </trkpt>
      <trkpt lat="47.2877" lon="-1.62336">
        <ele>44.2</ele>
        <time>2012-01-12T10:29:38Z</time>
      </trkpt>
      <trkpt lat="47.28769" lon="-1.62337">
        <ele>44.2</ele>
        <time>2012-01-12T10:29:39Z</time>
      </trkpt>
      <trkpt lat="47.28764" lon="-1.62344">
        <ele>44.4</ele>
        <time>2012-01-12T10:29:44Z</time>
      </trkpt>
      <trkpt lat="47.28761" lon="-1.62348">
        <ele>44.5</ele>
        <time>2012-01-12T10:29:47Z</time>
      </trkpt>
      <trkpt lat="47.28758" lon="-1.62353">
        <ele>45</ele>
        <time>2012-01-12T10:29:50Z</time>
      </trkpt>
      <trkpt lat="47.28755" lon="-1.62357">
        <ele>45.2</ele>
        <time>2012-01-12T10:29:53Z</time>
      </trkpt>
      <trkpt lat="47.28752" lon="-1.62361">
        <ele>44.7</ele>
        <time>2012-01-12T10:29:55Z</time>
      </trkpt>
      <trkpt lat="47.2875" lon="-1.62364">
        <ele>44.5</ele>
        <time>2012-01-12T10:29:57Z</time>
      </trkpt>
      <trkpt lat="47.28747" lon="-1.62367">
        <ele>44.9</ele>
        <time>2012-01-12T10:30:00Z</time>
      </trkpt>
      <trkpt lat="47.28744" lon="-1.62371">
        <ele>44.5</ele>
        <time>2012-01-12T10:30:03Z</time>
      </trkpt>
      <trkpt lat="47.28741" lon="-1.62375">
        <ele>44.4</ele>
        <time>2012-01-12T10:30:06Z</time>
      </trkpt>
      <trkpt lat="47.28738" lon="-1.62379">
        <ele>44.2</ele>
        <time>2012-01-12T10:30:09Z</time>
      </trkpt>
      <trkpt lat="47.28735" lon="-1.62383">
        <ele>45</ele>
        <time>2012-01-12T10:30:12Z</time>
      </trkpt>
      <trkpt lat="47.28731" lon="-1.62387">
        <ele>44.7</ele>
        <time>2012-01-12T10:30:15Z</time>
      </trkpt>
      <trkpt lat="47.28728" lon="-1.62391">
        <ele>44.5</ele>
        <time>2012-01-12T10:30:18Z</time>
      </trkpt>
      <trkpt lat="47.28725" lon="-1.62396">
        <ele>44.2</ele>
        <time>2012-01-12T10:30:21Z</time>
      </trkpt>
      <trkpt lat="47.28723" lon="-1.62399">
        <ele>44.5</ele>
        <time>2012-01-12T10:30:23Z</time>
      </trkpt>
      <trkpt lat="47.2872" lon="-1.62402">
        <ele>44.7</ele>
        <time>2012-01-12T10:30:25Z</time>
      </trkpt>
      <trkpt lat="47.28718" lon="-1.62406">
        <ele>44.9</ele>
        <time>2012-01-12T10:30:27Z</time>
      </trkpt>
      <trkpt lat="47.28716" lon="-1.62411">
        <ele>44.7</ele>
        <time>2012-01-12T10:30:30Z</time>
      </trkpt>
      <trkpt lat="47.28713" lon="-1.62415">
        <ele>44.9</ele>
        <time>2012-01-12T10:30:33Z</time>
      </trkpt>
      <trkpt lat="47.2871" lon="-1.62419">
        <ele>45</ele>
        <time>2012-01-12T10:30:36Z</time>
      </trkpt>
      <trkpt lat="47.28708" lon="-1.62424">
        <ele>44.7</ele>
        <time>2012-01-12T10:30:39Z</time>
      </trkpt>
      <trkpt lat="47.28707" lon="-1.62425">
        <ele>44.7</ele>
        <time>2012-01-12T10:30:40Z</time>
      </trkpt>
      <trkpt lat="47.28702" lon="-1.62432">
        <ele>44.9</ele>
        <time>2012-01-12T10:30:45Z</time>
      </trkpt>
      <trkpt lat="47.287" lon="-1.62437">
        <ele>45</ele>
        <time>2012-01-12T10:30:48Z</time>
      </trkpt>
      <trkpt lat="47.28697" lon="-1.62442">
        <ele>45</ele>
        <time>2012-01-12T10:30:51Z</time>
      </trkpt>
      <trkpt lat="47.28694" lon="-1.62445">
        <ele>45</ele>
        <time>2012-01-12T10:30:54Z</time>
      </trkpt>
      <trkpt lat="47.28691" lon="-1.6245">
        <ele>44.7</ele>
        <time>2012-01-12T10:30:57Z</time>
      </trkpt>
      <trkpt lat="47.28689" lon="-1.62454">
        <ele>45</ele>
        <time>2012-01-12T10:30:59Z</time>
      </trkpt>
      <trkpt lat="47.28687" lon="-1.62458">
        <ele>45</ele>
        <time>2012-01-12T10:31:02Z</time>
      </trkpt>
      <trkpt lat="47.28684" lon="-1.62463">
        <ele>45</ele>
        <time>2012-01-12T10:31:05Z</time>
      </trkpt>
      <trkpt lat="47.28681" lon="-1.62465">
        <ele>45.2</ele>
        <time>2012-01-12T10:31:07Z</time>
      </trkpt>
      <trkpt lat="47.28679" lon="-1.62469">
        <ele>45.7</ele>
        <time>2012-01-12T10:31:09Z</time>
      </trkpt>
      <trkpt lat="47.28678" lon="-1.62473">
        <ele>46</ele>
        <time>2012-01-12T10:31:11Z</time>
      </trkpt>
      <trkpt lat="47.28675" lon="-1.62478">
        <ele>46</ele>
        <time>2012-01-12T10:31:14Z</time>
      </trkpt>
      <trkpt lat="47.28672" lon="-1.62482">
        <ele>45.7</ele>
        <time>2012-01-12T10:31:17Z</time>
      </trkpt>
      <trkpt lat="47.2867" lon="-1.62486">
        <ele>46</ele>
        <time>2012-01-12T10:31:20Z</time>
      </trkpt>
      <trkpt lat="47.28667" lon="-1.62489">
        <ele>46.2</ele>
        <time>2012-01-12T10:31:22Z</time>
      </trkpt>
      <trkpt lat="47.28665" lon="-1.62493">
        <ele>46.4</ele>
        <time>2012-01-12T10:31:24Z</time>
      </trkpt>
      <trkpt lat="47.28662" lon="-1.62497">
        <ele>46.2</ele>
        <time>2012-01-12T10:31:27Z</time>
      </trkpt>
      <trkpt lat="47.28659" lon="-1.625">
        <ele>46</ele>
        <time>2012-01-12T10:31:30Z</time>
      </trkpt>
      <trkpt lat="47.28655" lon="-1.62504">
        <ele>46</ele>
        <time>2012-01-12T10:31:33Z</time>
      </trkpt>
      <trkpt lat="47.28653" lon="-1.62506">
        <ele>45.7</ele>
        <time>2012-01-12T10:31:35Z</time>
      </trkpt>
      <trkpt lat="47.2865" lon="-1.62509">
        <ele>46.2</ele>
        <time>2012-01-12T10:31:37Z</time>
      </trkpt>
      <trkpt lat="47.28647" lon="-1.62513">
        <ele>46.2</ele>
        <time>2012-01-12T10:31:41Z</time>
      </trkpt>
      <trkpt lat="47.28647" lon="-1.62514">
        <ele>46</ele>
        <time>2012-01-12T10:31:42Z</time>
      </trkpt>
      <trkpt lat="47.28642" lon="-1.62521">
        <ele>45.9</ele>
        <time>2012-01-12T10:31:49Z</time>
      </trkpt>
      <trkpt lat="47.28639" lon="-1.62525">
        <ele>46</ele>
        <time>2012-01-12T10:31:52Z</time>
      </trkpt>
      <trkpt lat="47.28635" lon="-1.62528">
        <ele>46.4</ele>
        <time>2012-01-12T10:31:55Z</time>
      </trkpt>
      <trkpt lat="47.28633" lon="-1.62533">
        <ele>46</ele>
        <time>2012-01-12T10:32:00Z</time>
      </trkpt>
      <trkpt lat="47.28629" lon="-1.62535">
        <ele>44.7</ele>
        <time>2012-01-12T10:32:05Z</time>
      </trkpt>
      <trkpt lat="47.28626" lon="-1.62534">
        <ele>45.2</ele>
        <time>2012-01-12T10:32:09Z</time>
      </trkpt>
      <trkpt lat="47.28622" lon="-1.62534">
        <ele>45.5</ele>
        <time>2012-01-12T10:32:12Z</time>
      </trkpt>
      <trkpt lat="47.28619" lon="-1.62534">
        <ele>45.5</ele>
        <time>2012-01-12T10:32:15Z</time>
      </trkpt>
      <trkpt lat="47.28615" lon="-1.62533">
        <ele>44.9</ele>
        <time>2012-01-12T10:32:18Z</time>
      </trkpt>
      <trkpt lat="47.28612" lon="-1.62532">
        <ele>44.4</ele>
        <time>2012-01-12T10:32:21Z</time>
      </trkpt>
      <trkpt lat="47.28608" lon="-1.62531">
        <ele>44.2</ele>
        <time>2012-01-12T10:32:24Z</time>
      </trkpt>
      <trkpt lat="47.28604" lon="-1.6253">
        <ele>44.2</ele>
        <time>2012-01-12T10:32:27Z</time>
      </trkpt>
      <trkpt lat="47.28601" lon="-1.62529">
        <ele>44</ele>
        <time>2012-01-12T10:32:30Z</time>
      </trkpt>
      <trkpt lat="47.28597" lon="-1.62528">
        <ele>44.2</ele>
        <time>2012-01-12T10:32:33Z</time>
      </trkpt>
      <trkpt lat="47.28593" lon="-1.62527">
        <ele>43.5</ele>
        <time>2012-01-12T10:32:36Z</time>
      </trkpt>
      <trkpt lat="47.2859" lon="-1.62526">
        <ele>43.5</ele>
        <time>2012-01-12T10:32:38Z</time>
      </trkpt>
      <trkpt lat="47.28587" lon="-1.62525">
        <ele>43.5</ele>
        <time>2012-01-12T10:32:40Z</time>
      </trkpt>
      <trkpt lat="47.28584" lon="-1.62523">
        <ele>43.5</ele>
        <time>2012-01-12T10:32:42Z</time>
      </trkpt>
      <trkpt lat="47.28583" lon="-1.62523">
        <ele>43.2</ele>
        <time>2012-01-12T10:32:43Z</time>
      </trkpt>
      <trkpt lat="47.28576" lon="-1.62519">
        <ele>42.7</ele>
        <time>2012-01-12T10:32:48Z</time>
      </trkpt>
      <trkpt lat="47.28572" lon="-1.62518">
        <ele>43</ele>
        <time>2012-01-12T10:32:51Z</time>
      </trkpt>
      <trkpt lat="47.28569" lon="-1.62517">
        <ele>42.7</ele>
        <time>2012-01-12T10:32:53Z</time>
      </trkpt>
      <trkpt lat="47.28566" lon="-1.62516">
        <ele>42</ele>
        <time>2012-01-12T10:32:55Z</time>
      </trkpt>
      <trkpt lat="47.28562" lon="-1.62516">
        <ele>42</ele>
        <time>2012-01-12T10:32:57Z</time>
      </trkpt>
      <trkpt lat="47.28559" lon="-1.62514">
        <ele>41.9</ele>
        <time>2012-01-12T10:32:59Z</time>
      </trkpt>
      <trkpt lat="47.28556" lon="-1.62513">
        <ele>41.9</ele>
        <time>2012-01-12T10:33:01Z</time>
      </trkpt>
      <trkpt lat="47.28554" lon="-1.62512">
        <ele>41.7</ele>
        <time>2012-01-12T10:33:03Z</time>
      </trkpt>
      <trkpt lat="47.2855" lon="-1.62511">
        <ele>41.5</ele>
        <time>2012-01-12T10:33:05Z</time>
      </trkpt>
      <trkpt lat="47.28546" lon="-1.62509">
        <ele>41</ele>
        <time>2012-01-12T10:33:08Z</time>
      </trkpt>
      <trkpt lat="47.28542" lon="-1.62508">
        <ele>40.7</ele>
        <time>2012-01-12T10:33:11Z</time>
      </trkpt>
      <trkpt lat="47.28538" lon="-1.62506">
        <ele>40.5</ele>
        <time>2012-01-12T10:33:14Z</time>
      </trkpt>
      <trkpt lat="47.28534" lon="-1.62506">
        <ele>40.5</ele>
        <time>2012-01-12T10:33:17Z</time>
      </trkpt>
      <trkpt lat="47.2853" lon="-1.62505">
        <ele>40.5</ele>
        <time>2012-01-12T10:33:20Z</time>
      </trkpt>
      <trkpt lat="47.28526" lon="-1.62504">
        <ele>40.5</ele>
        <time>2012-01-12T10:33:23Z</time>
      </trkpt>
      <trkpt lat="47.28522" lon="-1.62503">
        <ele>40</ele>
        <time>2012-01-12T10:33:26Z</time>
      </trkpt>
      <trkpt lat="47.28518" lon="-1.62502">
        <ele>39.7</ele>
        <time>2012-01-12T10:33:29Z</time>
      </trkpt>
      <trkpt lat="47.28515" lon="-1.62501">
        <ele>39.5</ele>
        <time>2012-01-12T10:33:31Z</time>
      </trkpt>
      <trkpt lat="47.28512" lon="-1.62501">
        <ele>39.2</ele>
        <time>2012-01-12T10:33:33Z</time>
      </trkpt>
      <trkpt lat="47.28509" lon="-1.625">
        <ele>39</ele>
        <time>2012-01-12T10:33:35Z</time>
      </trkpt>
      <trkpt lat="47.28506" lon="-1.625">
        <ele>39</ele>
        <time>2012-01-12T10:33:37Z</time>
      </trkpt>
      <trkpt lat="47.28503" lon="-1.62499">
        <ele>38.7</ele>
        <time>2012-01-12T10:33:39Z</time>
      </trkpt>
      <trkpt lat="47.285" lon="-1.62499">
        <ele>38.4</ele>
        <time>2012-01-12T10:33:41Z</time>
      </trkpt>
      <trkpt lat="47.28496" lon="-1.62498">
        <ele>38</ele>
        <time>2012-01-12T10:33:43Z</time>
      </trkpt>
      <trkpt lat="47.28495" lon="-1.62497">
        <ele>38.2</ele>
        <time>2012-01-12T10:33:44Z</time>
      </trkpt>
      <trkpt lat="47.28489" lon="-1.62496">
        <ele>37.7</ele>
        <time>2012-01-12T10:33:48Z</time>
      </trkpt>
      <trkpt lat="47.28486" lon="-1.62495">
        <ele>37.5</ele>
        <time>2012-01-12T10:33:50Z</time>
      </trkpt>
      <trkpt lat="47.28481" lon="-1.62494">
        <ele>37</ele>
        <time>2012-01-12T10:33:53Z</time>
      </trkpt>
      <trkpt lat="47.28478" lon="-1.62493">
        <ele>37.5</ele>
        <time>2012-01-12T10:33:55Z</time>
      </trkpt>
      <trkpt lat="47.28475" lon="-1.62492">
        <ele>37.7</ele>
        <time>2012-01-12T10:33:57Z</time>
      </trkpt>
      <trkpt lat="47.28472" lon="-1.6249">
        <ele>38</ele>
        <time>2012-01-12T10:33:59Z</time>
      </trkpt>
      <trkpt lat="47.28468" lon="-1.62489">
        <ele>37.4</ele>
        <time>2012-01-12T10:34:02Z</time>
      </trkpt>
      <trkpt lat="47.28465" lon="-1.62488">
        <ele>37.5</ele>
        <time>2012-01-12T10:34:04Z</time>
      </trkpt>
      <trkpt lat="47.2846" lon="-1.62487">
        <ele>37</ele>
        <time>2012-01-12T10:34:07Z</time>
      </trkpt>
      <trkpt lat="47.28456" lon="-1.62486">
        <ele>36.7</ele>
        <time>2012-01-12T10:34:10Z</time>
      </trkpt>
      <trkpt lat="47.28452" lon="-1.62484">
        <ele>36.7</ele>
        <time>2012-01-12T10:34:13Z</time>
      </trkpt>
      <trkpt lat="47.28448" lon="-1.62483">
        <ele>36.5</ele>
        <time>2012-01-12T10:34:16Z</time>
      </trkpt>
      <trkpt lat="47.28444" lon="-1.62482">
        <ele>36.7</ele>
        <time>2012-01-12T10:34:19Z</time>
      </trkpt>
      <trkpt lat="47.28441" lon="-1.62481">
        <ele>37</ele>
        <time>2012-01-12T10:34:22Z</time>
      </trkpt>
      <trkpt lat="47.28437" lon="-1.62481">
        <ele>37</ele>
        <time>2012-01-12T10:34:24Z</time>
      </trkpt>
      <trkpt lat="47.28433" lon="-1.62481">
        <ele>37.4</ele>
        <time>2012-01-12T10:34:27Z</time>
      </trkpt>
      <trkpt lat="47.28429" lon="-1.62481">
        <ele>37.2</ele>
        <time>2012-01-12T10:34:30Z</time>
      </trkpt>
      <trkpt lat="47.28426" lon="-1.62482">
        <ele>37</ele>
        <time>2012-01-12T10:34:32Z</time>
      </trkpt>
      <trkpt lat="47.28422" lon="-1.62482">
        <ele>36.7</ele>
        <time>2012-01-12T10:34:35Z</time>
      </trkpt>
      <trkpt lat="47.28419" lon="-1.62483">
        <ele>36.7</ele>
        <time>2012-01-12T10:34:37Z</time>
      </trkpt>
      <trkpt lat="47.28414" lon="-1.62485">
        <ele>36.5</ele>
        <time>2012-01-12T10:34:40Z</time>
      </trkpt>
      <trkpt lat="47.2841" lon="-1.62486">
        <ele>36.9</ele>
        <time>2012-01-12T10:34:43Z</time>
      </trkpt>
      <trkpt lat="47.28407" lon="-1.62487">
        <ele>37</ele>
        <time>2012-01-12T10:34:45Z</time>
      </trkpt>
      <trkpt lat="47.28405" lon="-1.62487">
        <ele>37.2</ele>
        <time>2012-01-12T10:34:46Z</time>
      </trkpt>
      <trkpt lat="47.284" lon="-1.62489">
        <ele>36</ele>
        <time>2012-01-12T10:34:50Z</time>
      </trkpt>
      <trkpt lat="47.28396" lon="-1.6249">
        <ele>36.2</ele>
        <time>2012-01-12T10:34:52Z</time>
      </trkpt>
      <trkpt lat="47.28393" lon="-1.62492">
        <ele>36</ele>
        <time>2012-01-12T10:34:54Z</time>
      </trkpt>
      <trkpt lat="47.2839" lon="-1.62493">
        <ele>35.9</ele>
        <time>2012-01-12T10:34:56Z</time>
      </trkpt>
      <trkpt lat="47.28387" lon="-1.62494">
        <ele>36.2</ele>
        <time>2012-01-12T10:34:58Z</time>
      </trkpt>
      <trkpt lat="47.28384" lon="-1.62495">
        <ele>36.4</ele>
        <time>2012-01-12T10:35:00Z</time>
      </trkpt>
      <trkpt lat="47.28381" lon="-1.62496">
        <ele>36.2</ele>
        <time>2012-01-12T10:35:02Z</time>
      </trkpt>
      <trkpt lat="47.28378" lon="-1.62497">
        <ele>35.7</ele>
        <time>2012-01-12T10:35:04Z</time>
      </trkpt>
      <trkpt lat="47.28375" lon="-1.62499">
        <ele>35.4</ele>
        <time>2012-01-12T10:35:06Z</time>
      </trkpt>
      <trkpt lat="47.28372" lon="-1.625">
        <ele>34.7</ele>
        <time>2012-01-12T10:35:08Z</time>
      </trkpt>
      <trkpt lat="47.28368" lon="-1.62501">
        <ele>34.9</ele>
        <time>2012-01-12T10:35:10Z</time>
      </trkpt>
      <trkpt lat="47.28365" lon="-1.62502">
        <ele>35.2</ele>
        <time>2012-01-12T10:35:12Z</time>
      </trkpt>
      <trkpt lat="47.28361" lon="-1.62502">
        <ele>34.9</ele>
        <time>2012-01-12T10:35:14Z</time>
      </trkpt>
      <trkpt lat="47.28358" lon="-1.62503">
        <ele>34.7</ele>
        <time>2012-01-12T10:35:16Z</time>
      </trkpt>
      <trkpt lat="47.28355" lon="-1.62503">
        <ele>34.2</ele>
        <time>2012-01-12T10:35:18Z</time>
      </trkpt>
      <trkpt lat="47.28351" lon="-1.62504">
        <ele>33.7</ele>
        <time>2012-01-12T10:35:21Z</time>
      </trkpt>
      <trkpt lat="47.28348" lon="-1.62504">
        <ele>34</ele>
        <time>2012-01-12T10:35:23Z</time>
      </trkpt>
      <trkpt lat="47.28344" lon="-1.62505">
        <ele>34.5</ele>
        <time>2012-01-12T10:35:25Z</time>
      </trkpt>
      <trkpt lat="47.2834" lon="-1.62507">
        <ele>34.9</ele>
        <time>2012-01-12T10:35:28Z</time>
      </trkpt>
      <trkpt lat="47.28337" lon="-1.6251">
        <ele>34.2</ele>
        <time>2012-01-12T10:35:31Z</time>
      </trkpt>
      <trkpt lat="47.28334" lon="-1.6251">
        <ele>33.9</ele>
        <time>2012-01-12T10:35:33Z</time>
      </trkpt>
      <trkpt lat="47.28329" lon="-1.62511">
        <ele>33.7</ele>
        <time>2012-01-12T10:35:36Z</time>
      </trkpt>
      <trkpt lat="47.28325" lon="-1.62512">
        <ele>33.4</ele>
        <time>2012-01-12T10:35:39Z</time>
      </trkpt>
      <trkpt lat="47.28322" lon="-1.62514">
        <ele>32.9</ele>
        <time>2012-01-12T10:35:42Z</time>
      </trkpt>
      <trkpt lat="47.28318" lon="-1.62516">
        <ele>32.7</ele>
        <time>2012-01-12T10:35:45Z</time>
      </trkpt>
      <trkpt lat="47.28314" lon="-1.62516">
        <ele>32.7</ele>
        <time>2012-01-12T10:35:48Z</time>
      </trkpt>
      <trkpt lat="47.28313" lon="-1.62517">
        <ele>32.7</ele>
        <time>2012-01-12T10:35:49Z</time>
      </trkpt>
      <trkpt lat="47.28308" lon="-1.62518">
        <ele>32.5</ele>
        <time>2012-01-12T10:35:53Z</time>
      </trkpt>
      <trkpt lat="47.28303" lon="-1.6252">
        <ele>32.5</ele>
        <time>2012-01-12T10:35:56Z</time>
      </trkpt>
      <trkpt lat="47.283" lon="-1.62521">
        <ele>32.5</ele>
        <time>2012-01-12T10:35:58Z</time>
      </trkpt>
      <trkpt lat="47.28297" lon="-1.62523">
        <ele>32.5</ele>
        <time>2012-01-12T10:36:00Z</time>
      </trkpt>
      <trkpt lat="47.28294" lon="-1.62525">
        <ele>32.4</ele>
        <time>2012-01-12T10:36:02Z</time>
      </trkpt>
      <trkpt lat="47.28291" lon="-1.62528">
        <ele>32.2</ele>
        <time>2012-01-12T10:36:05Z</time>
      </trkpt>
      <trkpt lat="47.28287" lon="-1.62531">
        <ele>31.8</ele>
        <time>2012-01-12T10:36:08Z</time>
      </trkpt>
      <trkpt lat="47.28283" lon="-1.62533">
        <ele>32</ele>
        <time>2012-01-12T10:36:12Z</time>
      </trkpt>
      <trkpt lat="47.28279" lon="-1.62533">
        <ele>32.4</ele>
        <time>2012-01-12T10:36:15Z</time>
      </trkpt>
      <trkpt lat="47.28275" lon="-1.62533">
        <ele>32</ele>
        <time>2012-01-12T10:36:18Z</time>
      </trkpt>
      <trkpt lat="47.28271" lon="-1.62535">
        <ele>31.7</ele>
        <time>2012-01-12T10:36:21Z</time>
      </trkpt>
      <trkpt lat="47.28267" lon="-1.62537">
        <ele>31.7</ele>
        <time>2012-01-12T10:36:24Z</time>
      </trkpt>
      <trkpt lat="47.28263" lon="-1.62538">
        <ele>31.7</ele>
        <time>2012-01-12T10:36:27Z</time>
      </trkpt>
      <trkpt lat="47.28259" lon="-1.6254">
        <ele>31.6</ele>
        <time>2012-01-12T10:36:30Z</time>
      </trkpt>
      <trkpt lat="47.28256" lon="-1.62542">
        <ele>31.1</ele>
        <time>2012-01-12T10:36:33Z</time>
      </trkpt>
      <trkpt lat="47.28252" lon="-1.62543">
        <ele>30.8</ele>
        <time>2012-01-12T10:36:36Z</time>
      </trkpt>
      <trkpt lat="47.28248" lon="-1.62545">
        <ele>31.1</ele>
        <time>2012-01-12T10:36:39Z</time>
      </trkpt>
      <trkpt lat="47.28244" lon="-1.62547">
        <ele>30.5</ele>
        <time>2012-01-12T10:36:42Z</time>
      </trkpt>
      <trkpt lat="47.2824" lon="-1.6255">
        <ele>30.7</ele>
        <time>2012-01-12T10:36:45Z</time>
      </trkpt>
      <trkpt lat="47.28237" lon="-1.62552">
        <ele>31.1</ele>
        <time>2012-01-12T10:36:48Z</time>
      </trkpt>
      <trkpt lat="47.28233" lon="-1.62556">
        <ele>31.2</ele>
        <time>2012-01-12T10:36:51Z</time>
      </trkpt>
      <trkpt lat="47.28232" lon="-1.62557">
        <ele>31.1</ele>
        <time>2012-01-12T10:36:52Z</time>
      </trkpt>
      <trkpt lat="47.28228" lon="-1.6256">
        <ele>30.8</ele>
        <time>2012-01-12T10:36:55Z</time>
      </trkpt>
      <trkpt lat="47.28224" lon="-1.62563">
        <ele>30.2</ele>
        <time>2012-01-12T10:36:58Z</time>
      </trkpt>
      <trkpt lat="47.28219" lon="-1.62564">
        <ele>30.1</ele>
        <time>2012-01-12T10:37:01Z</time>
      </trkpt>
      <trkpt lat="47.28216" lon="-1.62565">
        <ele>30.6</ele>
        <time>2012-01-12T10:37:03Z</time>
      </trkpt>
      <trkpt lat="47.28213" lon="-1.62566">
        <ele>30.6</ele>
        <time>2012-01-12T10:37:05Z</time>
      </trkpt>
      <trkpt lat="47.28209" lon="-1.62567">
        <ele>30.5</ele>
        <time>2012-01-12T10:37:08Z</time>
      </trkpt>
      <trkpt lat="47.28205" lon="-1.62567">
        <ele>30.7</ele>
        <time>2012-01-12T10:37:11Z</time>
      </trkpt>
      <trkpt lat="47.28201" lon="-1.62569">
        <ele>30.5</ele>
        <time>2012-01-12T10:37:14Z</time>
      </trkpt>
      <trkpt lat="47.28196" lon="-1.62569">
        <ele>31</ele>
        <time>2012-01-12T10:37:19Z</time>
      </trkpt>
      <trkpt lat="47.28193" lon="-1.62566">
        <ele>30.7</ele>
        <time>2012-01-12T10:37:23Z</time>
      </trkpt>
      <trkpt lat="47.28189" lon="-1.62565">
        <ele>30.6</ele>
        <time>2012-01-12T10:37:26Z</time>
      </trkpt>
      <trkpt lat="47.28185" lon="-1.62563">
        <ele>31</ele>
        <time>2012-01-12T10:37:30Z</time>
      </trkpt>
      <trkpt lat="47.28181" lon="-1.62563">
        <ele>31.2</ele>
        <time>2012-01-12T10:37:33Z</time>
      </trkpt>
      <trkpt lat="47.28178" lon="-1.62561">
        <ele>31</ele>
        <time>2012-01-12T10:37:36Z</time>
      </trkpt>
      <trkpt lat="47.28174" lon="-1.62559">
        <ele>31.2</ele>
        <time>2012-01-12T10:37:39Z</time>
      </trkpt>
      <trkpt lat="47.2817" lon="-1.62557">
        <ele>31.7</ele>
        <time>2012-01-12T10:37:42Z</time>
      </trkpt>
      <trkpt lat="47.28166" lon="-1.62556">
        <ele>32.5</ele>
        <time>2012-01-12T10:37:45Z</time>
      </trkpt>
      <trkpt lat="47.28163" lon="-1.62554">
        <ele>32.5</ele>
        <time>2012-01-12T10:37:47Z</time>
      </trkpt>
      <trkpt lat="47.28159" lon="-1.62552">
        <ele>32.7</ele>
        <time>2012-01-12T10:37:51Z</time>
      </trkpt>
      <trkpt lat="47.28155" lon="-1.6255">
        <ele>32.7</ele>
        <time>2012-01-12T10:37:54Z</time>
      </trkpt>
      <trkpt lat="47.28154" lon="-1.62549">
        <ele>32.7</ele>
        <time>2012-01-12T10:37:55Z</time>
      </trkpt>
      <trkpt lat="47.28148" lon="-1.62547">
        <ele>33.2</ele>
        <time>2012-01-12T10:38:00Z</time>
      </trkpt>
      <trkpt lat="47.28144" lon="-1.62545">
        <ele>33.4</ele>
        <time>2012-01-12T10:38:03Z</time>
      </trkpt>
      <trkpt lat="47.2814" lon="-1.62544">
        <ele>33.7</ele>
        <time>2012-01-12T10:38:06Z</time>
      </trkpt>
      <trkpt lat="47.28136" lon="-1.62543">
        <ele>34</ele>
        <time>2012-01-12T10:38:09Z</time>
      </trkpt>
      <trkpt lat="47.28133" lon="-1.62541">
        <ele>34</ele>
        <time>2012-01-12T10:38:12Z</time>
      </trkpt>
      <trkpt lat="47.2813" lon="-1.6254">
        <ele>34.2</ele>
        <time>2012-01-12T10:38:14Z</time>
      </trkpt>
      <trkpt lat="47.28127" lon="-1.62539">
        <ele>34.5</ele>
        <time>2012-01-12T10:38:16Z</time>
      </trkpt>
      <trkpt lat="47.28124" lon="-1.62537">
        <ele>34.7</ele>
        <time>2012-01-12T10:38:18Z</time>
      </trkpt>
      <trkpt lat="47.28119" lon="-1.62536">
        <ele>35.7</ele>
        <time>2012-01-12T10:38:21Z</time>
      </trkpt>
      <trkpt lat="47.28115" lon="-1.62535">
        <ele>35.9</ele>
        <time>2012-01-12T10:38:24Z</time>
      </trkpt>
      <trkpt lat="47.28111" lon="-1.62534">
        <ele>36.2</ele>
        <time>2012-01-12T10:38:27Z</time>
      </trkpt>
      <trkpt lat="47.28107" lon="-1.62533">
        <ele>36.2</ele>
        <time>2012-01-12T10:38:30Z</time>
      </trkpt>
      <trkpt lat="47.28103" lon="-1.62533">
        <ele>36.5</ele>
        <time>2012-01-12T10:38:33Z</time>
      </trkpt>
      <trkpt lat="47.281" lon="-1.62532">
        <ele>36.7</ele>
        <time>2012-01-12T10:38:35Z</time>
      </trkpt>
      <trkpt lat="47.28097" lon="-1.62531">
        <ele>36.7</ele>
        <time>2012-01-12T10:38:37Z</time>
      </trkpt>
      <trkpt lat="47.28093" lon="-1.6253">
        <ele>37</ele>
        <time>2012-01-12T10:38:39Z</time>
      </trkpt>
      <trkpt lat="47.28089" lon="-1.62528">
        <ele>37.5</ele>
        <time>2012-01-12T10:38:42Z</time>
      </trkpt>
      <trkpt lat="47.28085" lon="-1.62527">
        <ele>38</ele>
        <time>2012-01-12T10:38:45Z</time>
      </trkpt>
      <trkpt lat="47.28081" lon="-1.62525">
        <ele>38</ele>
        <time>2012-01-12T10:38:48Z</time>
      </trkpt>
      <trkpt lat="47.28077" lon="-1.62525">
        <ele>38.7</ele>
        <time>2012-01-12T10:38:51Z</time>
      </trkpt>
      <trkpt lat="47.28073" lon="-1.62523">
        <ele>38.7</ele>
        <time>2012-01-12T10:38:54Z</time>
      </trkpt>
      <trkpt lat="47.28069" lon="-1.62523">
        <ele>39</ele>
        <time>2012-01-12T10:38:57Z</time>
      </trkpt>
      <trkpt lat="47.28068" lon="-1.62523">
        <ele>39.2</ele>
        <time>2012-01-12T10:38:58Z</time>
      </trkpt>
      <trkpt lat="47.28061" lon="-1.62522">
        <ele>39.9</ele>
        <time>2012-01-12T10:39:02Z</time>
      </trkpt>
      <trkpt lat="47.28058" lon="-1.62522">
        <ele>39.7</ele>
        <time>2012-01-12T10:39:04Z</time>
      </trkpt>
      <trkpt lat="47.28055" lon="-1.62521">
        <ele>39.7</ele>
        <time>2012-01-12T10:39:06Z</time>
      </trkpt>
      <trkpt lat="47.28051" lon="-1.62521">
        <ele>40</ele>
        <time>2012-01-12T10:39:09Z</time>
      </trkpt>
      <trkpt lat="47.28047" lon="-1.6252">
        <ele>40</ele>
        <time>2012-01-12T10:39:12Z</time>
      </trkpt>
      <trkpt lat="47.28043" lon="-1.62519">
        <ele>40.5</ele>
        <time>2012-01-12T10:39:15Z</time>
      </trkpt>
      <trkpt lat="47.28039" lon="-1.62518">
        <ele>40.5</ele>
        <time>2012-01-12T10:39:18Z</time>
      </trkpt>
      <trkpt lat="47.28036" lon="-1.62518">
        <ele>40.7</ele>
        <time>2012-01-12T10:39:20Z</time>
      </trkpt>
      <trkpt lat="47.28033" lon="-1.62518">
        <ele>40.7</ele>
        <time>2012-01-12T10:39:22Z</time>
      </trkpt>
      <trkpt lat="47.2803" lon="-1.62518">
        <ele>40.7</ele>
        <time>2012-01-12T10:39:24Z</time>
      </trkpt>
      <trkpt lat="47.28026" lon="-1.62517">
        <ele>40.5</ele>
        <time>2012-01-12T10:39:26Z</time>
      </trkpt>
      <trkpt lat="47.28022" lon="-1.62517">
        <ele>40.7</ele>
        <time>2012-01-12T10:39:29Z</time>
      </trkpt>
      <trkpt lat="47.28018" lon="-1.62516">
        <ele>41.2</ele>
        <time>2012-01-12T10:39:32Z</time>
      </trkpt>
      <trkpt lat="47.28014" lon="-1.62515">
        <ele>41.2</ele>
        <time>2012-01-12T10:39:35Z</time>
      </trkpt>
      <trkpt lat="47.2801" lon="-1.62515">
        <ele>41.2</ele>
        <time>2012-01-12T10:39:38Z</time>
      </trkpt>
      <trkpt lat="47.28007" lon="-1.62514">
        <ele>41.2</ele>
        <time>2012-01-12T10:39:40Z</time>
      </trkpt>
      <trkpt lat="47.28003" lon="-1.62513">
        <ele>41.2</ele>
        <time>2012-01-12T10:39:42Z</time>
      </trkpt>
      <trkpt lat="47.28" lon="-1.62512">
        <ele>41.5</ele>
        <time>2012-01-12T10:39:44Z</time>
      </trkpt>
      <trkpt lat="47.27997" lon="-1.6251">
        <ele>41.2</ele>
        <time>2012-01-12T10:39:46Z</time>
      </trkpt>
      <trkpt lat="47.27994" lon="-1.62509">
        <ele>41</ele>
        <time>2012-01-12T10:39:48Z</time>
      </trkpt>
      <trkpt lat="47.27991" lon="-1.62507">
        <ele>40.9</ele>
        <time>2012-01-12T10:39:50Z</time>
      </trkpt>
      <trkpt lat="47.27988" lon="-1.62505">
        <ele>41</ele>
        <time>2012-01-12T10:39:52Z</time>
      </trkpt>
      <trkpt lat="47.27985" lon="-1.62504">
        <ele>40.7</ele>
        <time>2012-01-12T10:39:54Z</time>
      </trkpt>
      <trkpt lat="47.27981" lon="-1.62503">
        <ele>40.4</ele>
        <time>2012-01-12T10:39:57Z</time>
      </trkpt>
      <trkpt lat="47.27977" lon="-1.62501">
        <ele>40.4</ele>
        <time>2012-01-12T10:40:00Z</time>
      </trkpt>
      <trkpt lat="47.27976" lon="-1.625">
        <ele>40.2</ele>
        <time>2012-01-12T10:40:01Z</time>
      </trkpt>
      <trkpt lat="47.27972" lon="-1.62492">
        <ele>40.4</ele>
        <time>2012-01-12T10:40:06Z</time>
      </trkpt>
      <trkpt lat="47.2797" lon="-1.62487">
        <ele>39.9</ele>
        <time>2012-01-12T10:40:09Z</time>
      </trkpt>
      <trkpt lat="47.27967" lon="-1.62482">
        <ele>39.7</ele>
        <time>2012-01-12T10:40:12Z</time>
      </trkpt>
      <trkpt lat="47.27965" lon="-1.62478">
        <ele>39.4</ele>
        <time>2012-01-12T10:40:15Z</time>
      </trkpt>
      <trkpt lat="47.27963" lon="-1.62473">
        <ele>39</ele>
        <time>2012-01-12T10:40:18Z</time>
      </trkpt>
      <trkpt lat="47.2796" lon="-1.62468">
        <ele>38.7</ele>
        <time>2012-01-12T10:40:21Z</time>
      </trkpt>
      <trkpt lat="47.27958" lon="-1.62464">
        <ele>38.7</ele>
        <time>2012-01-12T10:40:23Z</time>
      </trkpt>
      <trkpt lat="47.27955" lon="-1.6246">
        <ele>38.7</ele>
        <time>2012-01-12T10:40:25Z</time>
      </trkpt>
      <trkpt lat="47.27953" lon="-1.62456">
        <ele>38.7</ele>
        <time>2012-01-12T10:40:27Z</time>
      </trkpt>
      <trkpt lat="47.2795" lon="-1.62454">
        <ele>38.5</ele>
        <time>2012-01-12T10:40:29Z</time>
      </trkpt>
      <trkpt lat="47.27947" lon="-1.62452">
        <ele>38.2</ele>
        <time>2012-01-12T10:40:31Z</time>
      </trkpt>
      <trkpt lat="47.27944" lon="-1.62449">
        <ele>37.7</ele>
        <time>2012-01-12T10:40:33Z</time>
      </trkpt>
      <trkpt lat="47.27941" lon="-1.62448">
        <ele>37.4</ele>
        <time>2012-01-12T10:40:35Z</time>
      </trkpt>
      <trkpt lat="47.27938" lon="-1.62446">
        <ele>36.7</ele>
        <time>2012-01-12T10:40:37Z</time>
      </trkpt>
      <trkpt lat="47.27934" lon="-1.62445">
        <ele>35.9</ele>
        <time>2012-01-12T10:40:40Z</time>
      </trkpt>
      <trkpt lat="47.27931" lon="-1.62444">
        <ele>35.2</ele>
        <time>2012-01-12T10:40:43Z</time>
      </trkpt>
      <trkpt lat="47.27927" lon="-1.62444">
        <ele>34.7</ele>
        <time>2012-01-12T10:40:46Z</time>
      </trkpt>
      <trkpt lat="47.27923" lon="-1.62443">
        <ele>34.5</ele>
        <time>2012-01-12T10:40:50Z</time>
      </trkpt>
      <trkpt lat="47.27919" lon="-1.62442">
        <ele>33.5</ele>
        <time>2012-01-12T10:40:54Z</time>
      </trkpt>
      <trkpt lat="47.27915" lon="-1.62441">
        <ele>33.2</ele>
        <time>2012-01-12T10:40:57Z</time>
      </trkpt>
      <trkpt lat="47.2791" lon="-1.6244">
        <ele>32</ele>
        <time>2012-01-12T10:41:00Z</time>
      </trkpt>
      <trkpt lat="47.27906" lon="-1.62439">
        <ele>32</ele>
        <time>2012-01-12T10:41:03Z</time>
      </trkpt>
      <trkpt lat="47.27905" lon="-1.62438">
        <ele>32</ele>
        <time>2012-01-12T10:41:04Z</time>
      </trkpt>
      <trkpt lat="47.279" lon="-1.62436">
        <ele>32.7</ele>
        <time>2012-01-12T10:41:07Z</time>
      </trkpt>
      <trkpt lat="47.27897" lon="-1.62434">
        <ele>32.2</ele>
        <time>2012-01-12T10:41:09Z</time>
      </trkpt>
      <trkpt lat="47.27894" lon="-1.62433">
        <ele>32</ele>
        <time>2012-01-12T10:41:11Z</time>
      </trkpt>
      <trkpt lat="47.27891" lon="-1.6243">
        <ele>32.2</ele>
        <time>2012-01-12T10:41:13Z</time>
      </trkpt>
      <trkpt lat="47.27888" lon="-1.62428">
        <ele>31.7</ele>
        <time>2012-01-12T10:41:15Z</time>
      </trkpt>
      <trkpt lat="47.27884" lon="-1.62426">
        <ele>31.6</ele>
        <time>2012-01-12T10:41:18Z</time>
      </trkpt>
      <trkpt lat="47.2788" lon="-1.62423">
        <ele>31.1</ele>
        <time>2012-01-12T10:41:21Z</time>
      </trkpt>
      <trkpt lat="47.27877" lon="-1.6242">
        <ele>30.8</ele>
        <time>2012-01-12T10:41:24Z</time>
      </trkpt>
      <trkpt lat="47.27873" lon="-1.62418">
        <ele>31.5</ele>
        <time>2012-01-12T10:41:29Z</time>
      </trkpt>
      <trkpt lat="47.27871" lon="-1.62424">
        <ele>30.5</ele>
        <time>2012-01-12T10:42:10Z</time>
      </trkpt>
      <trkpt lat="47.27871" lon="-1.62424">
        <ele>30.3</ele>
        <time>2012-01-12T10:42:11Z</time>
      </trkpt>
      <trkpt lat="47.2787" lon="-1.62427">
        <ele>30.7</ele>
        <time>2012-01-12T10:42:59Z</time>
      </trkpt>
      <trkpt lat="47.27866" lon="-1.62425">
        <ele>30.7</ele>
        <time>2012-01-12T10:43:03Z</time>
      </trkpt>
      <trkpt lat="47.27862" lon="-1.62424">
        <ele>31</ele>
        <time>2012-01-12T10:43:06Z</time>
      </trkpt>
      <trkpt lat="47.27858" lon="-1.62423">
        <ele>31.2</ele>
        <time>2012-01-12T10:43:09Z</time>
      </trkpt>
      <trkpt lat="47.27855" lon="-1.62422">
        <ele>31.7</ele>
        <time>2012-01-12T10:43:11Z</time>
      </trkpt>
      <trkpt lat="47.27851" lon="-1.6242">
        <ele>32</ele>
        <time>2012-01-12T10:43:14Z</time>
      </trkpt>
      <trkpt lat="47.27849" lon="-1.6242">
        <ele>32.2</ele>
        <time>2012-01-12T10:43:15Z</time>
      </trkpt>
      <trkpt lat="47.27844" lon="-1.62417">
        <ele>32.5</ele>
        <time>2012-01-12T10:43:19Z</time>
      </trkpt>
      <trkpt lat="47.2784" lon="-1.62415">
        <ele>32.4</ele>
        <time>2012-01-12T10:43:22Z</time>
      </trkpt>
      <trkpt lat="47.27837" lon="-1.62414">
        <ele>32.2</ele>
        <time>2012-01-12T10:43:24Z</time>
      </trkpt>
      <trkpt lat="47.27834" lon="-1.62413">
        <ele>32.2</ele>
        <time>2012-01-12T10:43:26Z</time>
      </trkpt>
      <trkpt lat="47.2783" lon="-1.62412">
        <ele>32.4</ele>
        <time>2012-01-12T10:43:28Z</time>
      </trkpt>
      <trkpt lat="47.27827" lon="-1.62411">
        <ele>32.7</ele>
        <time>2012-01-12T10:43:30Z</time>
      </trkpt>
      <trkpt lat="47.27823" lon="-1.6241">
        <ele>32.7</ele>
        <time>2012-01-12T10:43:32Z</time>
      </trkpt>
      <trkpt lat="47.2782" lon="-1.62409">
        <ele>32.7</ele>
        <time>2012-01-12T10:43:34Z</time>
      </trkpt>
      <trkpt lat="47.27817" lon="-1.62408">
        <ele>32.7</ele>
        <time>2012-01-12T10:43:36Z</time>
      </trkpt>
      <trkpt lat="47.27813" lon="-1.62407">
        <ele>33.2</ele>
        <time>2012-01-12T10:43:38Z</time>
      </trkpt>
      <trkpt lat="47.2781" lon="-1.62406">
        <ele>33.7</ele>
        <time>2012-01-12T10:43:40Z</time>
      </trkpt>
      <trkpt lat="47.27807" lon="-1.62405">
        <ele>33.7</ele>
        <time>2012-01-12T10:43:42Z</time>
      </trkpt>
      <trkpt lat="47.27804" lon="-1.62404">
        <ele>33.5</ele>
        <time>2012-01-12T10:43:44Z</time>
      </trkpt>
      <trkpt lat="47.27801" lon="-1.62404">
        <ele>33.5</ele>
        <time>2012-01-12T10:43:46Z</time>
      </trkpt>
      <trkpt lat="47.27797" lon="-1.62403">
        <ele>33.7</ele>
        <time>2012-01-12T10:43:48Z</time>
      </trkpt>
      <trkpt lat="47.27794" lon="-1.62403">
        <ele>33.7</ele>
        <time>2012-01-12T10:43:50Z</time>
      </trkpt>
      <trkpt lat="47.2779" lon="-1.62402">
        <ele>34</ele>
        <time>2012-01-12T10:43:53Z</time>
      </trkpt>
      <trkpt lat="47.27787" lon="-1.62402">
        <ele>34.2</ele>
        <time>2012-01-12T10:43:55Z</time>
      </trkpt>
      <trkpt lat="47.27782" lon="-1.62401">
        <ele>34.5</ele>
        <time>2012-01-12T10:43:58Z</time>
      </trkpt>
      <trkpt lat="47.27778" lon="-1.62401">
        <ele>34.4</ele>
        <time>2012-01-12T10:44:01Z</time>
      </trkpt>
      <trkpt lat="47.27774" lon="-1.62401">
        <ele>34.5</ele>
        <time>2012-01-12T10:44:04Z</time>
      </trkpt>
      <trkpt lat="47.2777" lon="-1.62402">
        <ele>34.7</ele>
        <time>2012-01-12T10:44:07Z</time>
      </trkpt>
      <trkpt lat="47.27767" lon="-1.62403">
        <ele>34.9</ele>
        <time>2012-01-12T10:44:09Z</time>
      </trkpt>
      <trkpt lat="47.27764" lon="-1.62403">
        <ele>35</ele>
        <time>2012-01-12T10:44:11Z</time>
      </trkpt>
      <trkpt lat="47.27761" lon="-1.62404">
        <ele>35</ele>
        <time>2012-01-12T10:44:13Z</time>
      </trkpt>
      <trkpt lat="47.27757" lon="-1.62405">
        <ele>35</ele>
        <time>2012-01-12T10:44:16Z</time>
      </trkpt>
      <trkpt lat="47.27755" lon="-1.62405">
        <ele>35.2</ele>
        <time>2012-01-12T10:44:17Z</time>
      </trkpt>
      <trkpt lat="47.2775" lon="-1.62406">
        <ele>35.5</ele>
        <time>2012-01-12T10:44:21Z</time>
      </trkpt>
      <trkpt lat="47.27747" lon="-1.62408">
        <ele>35.7</ele>
        <time>2012-01-12T10:44:23Z</time>
      </trkpt>
      <trkpt lat="47.27744" lon="-1.62409">
        <ele>35.7</ele>
        <time>2012-01-12T10:44:25Z</time>
      </trkpt>
      <trkpt lat="47.2774" lon="-1.62411">
        <ele>36.2</ele>
        <time>2012-01-12T10:44:27Z</time>
      </trkpt>
      <trkpt lat="47.27737" lon="-1.62412">
        <ele>36</ele>
        <time>2012-01-12T10:44:29Z</time>
      </trkpt>
      <trkpt lat="47.27734" lon="-1.62414">
        <ele>35.9</ele>
        <time>2012-01-12T10:44:31Z</time>
      </trkpt>
      <trkpt lat="47.2773" lon="-1.62415">
        <ele>36.5</ele>
        <time>2012-01-12T10:44:33Z</time>
      </trkpt>
      <trkpt lat="47.27727" lon="-1.62417">
        <ele>36.9</ele>
        <time>2012-01-12T10:44:35Z</time>
      </trkpt>
      <trkpt lat="47.27723" lon="-1.62418">
        <ele>37</ele>
        <time>2012-01-12T10:44:37Z</time>
      </trkpt>
      <trkpt lat="47.2772" lon="-1.6242">
        <ele>36.2</ele>
        <time>2012-01-12T10:44:39Z</time>
      </trkpt>
      <trkpt lat="47.27717" lon="-1.62421">
        <ele>35.7</ele>
        <time>2012-01-12T10:44:41Z</time>
      </trkpt>
      <trkpt lat="47.27714" lon="-1.62424">
        <ele>35.7</ele>
        <time>2012-01-12T10:44:43Z</time>
      </trkpt>
      <trkpt lat="47.27711" lon="-1.62425">
        <ele>35.7</ele>
        <time>2012-01-12T10:44:45Z</time>
      </trkpt>
      <trkpt lat="47.27707" lon="-1.62426">
        <ele>35.7</ele>
        <time>2012-01-12T10:44:47Z</time>
      </trkpt>
      <trkpt lat="47.27704" lon="-1.62427">
        <ele>35.5</ele>
        <time>2012-01-12T10:44:49Z</time>
      </trkpt>
      <trkpt lat="47.277" lon="-1.62429">
        <ele>35.7</ele>
        <time>2012-01-12T10:44:52Z</time>
      </trkpt>
      <trkpt lat="47.27697" lon="-1.6243">
        <ele>35.7</ele>
        <time>2012-01-12T10:44:54Z</time>
      </trkpt>
      <trkpt lat="47.27693" lon="-1.62431">
        <ele>35.7</ele>
        <time>2012-01-12T10:44:56Z</time>
      </trkpt>
      <trkpt lat="47.2769" lon="-1.62433">
        <ele>35.2</ele>
        <time>2012-01-12T10:44:58Z</time>
      </trkpt>
      <trkpt lat="47.27687" lon="-1.62435">
        <ele>34.7</ele>
        <time>2012-01-12T10:45:00Z</time>
      </trkpt>
      <trkpt lat="47.27684" lon="-1.62438">
        <ele>34.5</ele>
        <time>2012-01-12T10:45:02Z</time>
      </trkpt>
      <trkpt lat="47.27681" lon="-1.6244">
        <ele>34.5</ele>
        <time>2012-01-12T10:45:04Z</time>
      </trkpt>
      <trkpt lat="47.27678" lon="-1.62442">
        <ele>34.5</ele>
        <time>2012-01-12T10:45:07Z</time>
      </trkpt>
      <trkpt lat="47.27675" lon="-1.62444">
        <ele>34.2</ele>
        <time>2012-01-12T10:45:09Z</time>
      </trkpt>
      <trkpt lat="47.27671" lon="-1.62447">
        <ele>34.2</ele>
        <time>2012-01-12T10:45:11Z</time>
      </trkpt>
      <trkpt lat="47.27668" lon="-1.62449">
        <ele>34.2</ele>
        <time>2012-01-12T10:45:13Z</time>
      </trkpt>
      <trkpt lat="47.27666" lon="-1.6245">
        <ele>34</ele>
        <time>2012-01-12T10:45:15Z</time>
      </trkpt>
      <trkpt lat="47.27663" lon="-1.62452">
        <ele>33.9</ele>
        <time>2012-01-12T10:45:17Z</time>
      </trkpt>
      <trkpt lat="47.27661" lon="-1.62452">
        <ele>33.7</ele>
        <time>2012-01-12T10:45:18Z</time>
      </trkpt>
      <trkpt lat="47.27656" lon="-1.62454">
        <ele>33.7</ele>
        <time>2012-01-12T10:45:21Z</time>
      </trkpt>
      <trkpt lat="47.27653" lon="-1.62456">
        <ele>33.2</ele>
        <time>2012-01-12T10:45:23Z</time>
      </trkpt>
      <trkpt lat="47.2765" lon="-1.62457">
        <ele>32.4</ele>
        <time>2012-01-12T10:45:25Z</time>
      </trkpt>
      <trkpt lat="47.27646" lon="-1.62459">
        <ele>32</ele>
        <time>2012-01-12T10:45:28Z</time>
      </trkpt>
      <trkpt lat="47.27642" lon="-1.62461">
        <ele>31.7</ele>
        <time>2012-01-12T10:45:31Z</time>
      </trkpt>
      <trkpt lat="47.2764" lon="-1.62463">
        <ele>31.6</ele>
        <time>2012-01-12T10:45:33Z</time>
      </trkpt>
      <trkpt lat="47.27637" lon="-1.62464">
        <ele>31.6</ele>
        <time>2012-01-12T10:45:35Z</time>
      </trkpt>
      <trkpt lat="47.27634" lon="-1.62466">
        <ele>31.5</ele>
        <time>2012-01-12T10:45:37Z</time>
      </trkpt>
      <trkpt lat="47.27631" lon="-1.62469">
        <ele>31.2</ele>
        <time>2012-01-12T10:45:39Z</time>
      </trkpt>
      <trkpt lat="47.27628" lon="-1.62471">
        <ele>30.8</ele>
        <time>2012-01-12T10:45:41Z</time>
      </trkpt>
      <trkpt lat="47.27624" lon="-1.62473">
        <ele>30.7</ele>
        <time>2012-01-12T10:45:43Z</time>
      </trkpt>
      <trkpt lat="47.27621" lon="-1.62476">
        <ele>30.3</ele>
        <time>2012-01-12T10:45:45Z</time>
      </trkpt>
      <trkpt lat="47.27617" lon="-1.62477">
        <ele>30.2</ele>
        <time>2012-01-12T10:45:47Z</time>
      </trkpt>
      <trkpt lat="47.27614" lon="-1.62479">
        <ele>30.2</ele>
        <time>2012-01-12T10:45:49Z</time>
      </trkpt>
      <trkpt lat="47.27611" lon="-1.62481">
        <ele>30.3</ele>
        <time>2012-01-12T10:45:51Z</time>
      </trkpt>
      <trkpt lat="47.27608" lon="-1.62484">
        <ele>29.3</ele>
        <time>2012-01-12T10:45:53Z</time>
      </trkpt>
      <trkpt lat="47.27604" lon="-1.62487">
        <ele>29.2</ele>
        <time>2012-01-12T10:45:55Z</time>
      </trkpt>
      <trkpt lat="47.27601" lon="-1.62489">
        <ele>29.2</ele>
        <time>2012-01-12T10:45:57Z</time>
      </trkpt>
      <trkpt lat="47.27597" lon="-1.6249">
        <ele>28.8</ele>
        <time>2012-01-12T10:45:59Z</time>
      </trkpt>
      <trkpt lat="47.27594" lon="-1.62493">
        <ele>28.7</ele>
        <time>2012-01-12T10:46:01Z</time>
      </trkpt>
      <trkpt lat="47.2759" lon="-1.62495">
        <ele>28.7</ele>
        <time>2012-01-12T10:46:03Z</time>
      </trkpt>
      <trkpt lat="47.27586" lon="-1.62496">
        <ele>28.7</ele>
        <time>2012-01-12T10:46:05Z</time>
      </trkpt>
      <trkpt lat="47.27583" lon="-1.62498">
        <ele>28.7</ele>
        <time>2012-01-12T10:46:07Z</time>
      </trkpt>
      <trkpt lat="47.27579" lon="-1.625">
        <ele>28.2</ele>
        <time>2012-01-12T10:46:09Z</time>
      </trkpt>
      <trkpt lat="47.27576" lon="-1.62501">
        <ele>27.8</ele>
        <time>2012-01-12T10:46:11Z</time>
      </trkpt>
      <trkpt lat="47.27572" lon="-1.62503">
        <ele>27.5</ele>
        <time>2012-01-12T10:46:13Z</time>
      </trkpt>
      <trkpt lat="47.27568" lon="-1.62505">
        <ele>27.1</ele>
        <time>2012-01-12T10:46:15Z</time>
      </trkpt>
      <trkpt lat="47.27564" lon="-1.62506">
        <ele>27.2</ele>
        <time>2012-01-12T10:46:17Z</time>
      </trkpt>
      <trkpt lat="47.27561" lon="-1.62507">
        <ele>27.5</ele>
        <time>2012-01-12T10:46:19Z</time>
      </trkpt>
      <trkpt lat="47.27559" lon="-1.62508">
        <ele>27.3</ele>
        <time>2012-01-12T10:46:20Z</time>
      </trkpt>
      <trkpt lat="47.27554" lon="-1.62509">
        <ele>27.3</ele>
        <time>2012-01-12T10:46:23Z</time>
      </trkpt>
      <trkpt lat="47.27551" lon="-1.62509">
        <ele>27.2</ele>
        <time>2012-01-12T10:46:25Z</time>
      </trkpt>
      <trkpt lat="47.27547" lon="-1.6251">
        <ele>27</ele>
        <time>2012-01-12T10:46:27Z</time>
      </trkpt>
      <trkpt lat="47.27544" lon="-1.62511">
        <ele>26.7</ele>
        <time>2012-01-12T10:46:29Z</time>
      </trkpt>
      <trkpt lat="47.2754" lon="-1.62511">
        <ele>26.8</ele>
        <time>2012-01-12T10:46:32Z</time>
      </trkpt>
      <trkpt lat="47.27536" lon="-1.6251">
        <ele>26.1</ele>
        <time>2012-01-12T10:46:35Z</time>
      </trkpt>
      <trkpt lat="47.27533" lon="-1.6251">
        <ele>26</ele>
        <time>2012-01-12T10:46:37Z</time>
      </trkpt>
      <trkpt lat="47.27529" lon="-1.6251">
        <ele>26</ele>
        <time>2012-01-12T10:46:39Z</time>
      </trkpt>
      <trkpt lat="47.27526" lon="-1.6251">
        <ele>26.3</ele>
        <time>2012-01-12T10:46:41Z</time>
      </trkpt>
      <trkpt lat="47.27523" lon="-1.62509">
        <ele>26.2</ele>
        <time>2012-01-12T10:46:43Z</time>
      </trkpt>
      <trkpt lat="47.2752" lon="-1.62508">
        <ele>25.8</ele>
        <time>2012-01-12T10:46:45Z</time>
      </trkpt>
      <trkpt lat="47.27517" lon="-1.62507">
        <ele>26.1</ele>
        <time>2012-01-12T10:46:47Z</time>
      </trkpt>
      <trkpt lat="47.27513" lon="-1.62506">
        <ele>26.2</ele>
        <time>2012-01-12T10:46:49Z</time>
      </trkpt>
      <trkpt lat="47.27509" lon="-1.62504">
        <ele>26.5</ele>
        <time>2012-01-12T10:46:51Z</time>
      </trkpt>
      <trkpt lat="47.27506" lon="-1.62502">
        <ele>25.7</ele>
        <time>2012-01-12T10:46:53Z</time>
      </trkpt>
      <trkpt lat="47.27503" lon="-1.62501">
        <ele>25.2</ele>
        <time>2012-01-12T10:46:55Z</time>
      </trkpt>
      <trkpt lat="47.275" lon="-1.62499">
        <ele>25.3</ele>
        <time>2012-01-12T10:46:57Z</time>
      </trkpt>
      <trkpt lat="47.27497" lon="-1.62498">
        <ele>25.3</ele>
        <time>2012-01-12T10:46:59Z</time>
      </trkpt>
      <trkpt lat="47.27493" lon="-1.62496">
        <ele>25.3</ele>
        <time>2012-01-12T10:47:01Z</time>
      </trkpt>
      <trkpt lat="47.2749" lon="-1.62494">
        <ele>25.7</ele>
        <time>2012-01-12T10:47:03Z</time>
      </trkpt>
      <trkpt lat="47.27487" lon="-1.62492">
        <ele>25.6</ele>
        <time>2012-01-12T10:47:05Z</time>
      </trkpt>
      <trkpt lat="47.27484" lon="-1.6249">
        <ele>25.2</ele>
        <time>2012-01-12T10:47:07Z</time>
      </trkpt>
      <trkpt lat="47.2748" lon="-1.62488">
        <ele>25.5</ele>
        <time>2012-01-12T10:47:10Z</time>
      </trkpt>
      <trkpt lat="47.27477" lon="-1.62486">
        <ele>25.6</ele>
        <time>2012-01-12T10:47:12Z</time>
      </trkpt>
      <trkpt lat="47.27474" lon="-1.62485">
        <ele>25.6</ele>
        <time>2012-01-12T10:47:14Z</time>
      </trkpt>
      <trkpt lat="47.27471" lon="-1.62483">
        <ele>25.1</ele>
        <time>2012-01-12T10:47:16Z</time>
      </trkpt>
      <trkpt lat="47.27467" lon="-1.62481">
        <ele>25.6</ele>
        <time>2012-01-12T10:47:19Z</time>
      </trkpt>
      <trkpt lat="47.27464" lon="-1.62479">
        <ele>25.7</ele>
        <time>2012-01-12T10:47:21Z</time>
      </trkpt>
      <trkpt lat="47.27463" lon="-1.62479">
        <ele>25.7</ele>
        <time>2012-01-12T10:47:22Z</time>
      </trkpt>
      <trkpt lat="47.27458" lon="-1.62476">
        <ele>25.2</ele>
        <time>2012-01-12T10:47:25Z</time>
      </trkpt>
      <trkpt lat="47.27455" lon="-1.62476">
        <ele>24.8</ele>
        <time>2012-01-12T10:47:27Z</time>
      </trkpt>
      <trkpt lat="47.27452" lon="-1.62475">
        <ele>25.8</ele>
        <time>2012-01-12T10:47:29Z</time>
      </trkpt>
      <trkpt lat="47.27449" lon="-1.62473">
        <ele>26.1</ele>
        <time>2012-01-12T10:47:31Z</time>
      </trkpt>
      <trkpt lat="47.27446" lon="-1.62472">
        <ele>26</ele>
        <time>2012-01-12T10:47:33Z</time>
      </trkpt>
      <trkpt lat="47.27442" lon="-1.62471">
        <ele>26.1</ele>
        <time>2012-01-12T10:47:35Z</time>
      </trkpt>
      <trkpt lat="47.27439" lon="-1.62469">
        <ele>25.8</ele>
        <time>2012-01-12T10:47:37Z</time>
      </trkpt>
      <trkpt lat="47.27436" lon="-1.62467">
        <ele>25.5</ele>
        <time>2012-01-12T10:47:39Z</time>
      </trkpt>
      <trkpt lat="47.27432" lon="-1.62465">
        <ele>24.8</ele>
        <time>2012-01-12T10:47:41Z</time>
      </trkpt>
      <trkpt lat="47.27429" lon="-1.62464">
        <ele>24.6</ele>
        <time>2012-01-12T10:47:43Z</time>
      </trkpt>
      <trkpt lat="47.27425" lon="-1.62462">
        <ele>25</ele>
        <time>2012-01-12T10:47:45Z</time>
      </trkpt>
      <trkpt lat="47.27422" lon="-1.62459">
        <ele>25.2</ele>
        <time>2012-01-12T10:47:47Z</time>
      </trkpt>
      <trkpt lat="47.27418" lon="-1.62457">
        <ele>25.7</ele>
        <time>2012-01-12T10:47:50Z</time>
      </trkpt>
      <trkpt lat="47.27415" lon="-1.62455">
        <ele>26.3</ele>
        <time>2012-01-12T10:47:52Z</time>
      </trkpt>
      <trkpt lat="47.27411" lon="-1.62454">
        <ele>26.1</ele>
        <time>2012-01-12T10:47:54Z</time>
      </trkpt>
      <trkpt lat="47.27408" lon="-1.62452">
        <ele>25.7</ele>
        <time>2012-01-12T10:47:56Z</time>
      </trkpt>
      <trkpt lat="47.27405" lon="-1.6245">
        <ele>25.6</ele>
        <time>2012-01-12T10:47:58Z</time>
      </trkpt>
      <trkpt lat="47.27402" lon="-1.62449">
        <ele>25.2</ele>
        <time>2012-01-12T10:48:00Z</time>
      </trkpt>
      <trkpt lat="47.27399" lon="-1.62448">
        <ele>25.2</ele>
        <time>2012-01-12T10:48:02Z</time>
      </trkpt>
      <trkpt lat="47.27395" lon="-1.62447">
        <ele>24.8</ele>
        <time>2012-01-12T10:48:04Z</time>
      </trkpt>
      <trkpt lat="47.27391" lon="-1.62446">
        <ele>25.3</ele>
        <time>2012-01-12T10:48:07Z</time>
      </trkpt>
      <trkpt lat="47.27388" lon="-1.62444">
        <ele>25.7</ele>
        <time>2012-01-12T10:48:09Z</time>
      </trkpt>
      <trkpt lat="47.27385" lon="-1.62442">
        <ele>25.8</ele>
        <time>2012-01-12T10:48:11Z</time>
      </trkpt>
      <trkpt lat="47.27382" lon="-1.6244">
        <ele>25.8</ele>
        <time>2012-01-12T10:48:13Z</time>
      </trkpt>
      <trkpt lat="47.27378" lon="-1.62438">
        <ele>25.8</ele>
        <time>2012-01-12T10:48:15Z</time>
      </trkpt>
      <trkpt lat="47.27375" lon="-1.62436">
        <ele>25.7</ele>
        <time>2012-01-12T10:48:17Z</time>
      </trkpt>
      <trkpt lat="47.27372" lon="-1.62435">
        <ele>25.7</ele>
        <time>2012-01-12T10:48:19Z</time>
      </trkpt>
      <trkpt lat="47.27369" lon="-1.62435">
        <ele>25.5</ele>
        <time>2012-01-12T10:48:21Z</time>
      </trkpt>
      <trkpt lat="47.27366" lon="-1.62433">
        <ele>25.3</ele>
        <time>2012-01-12T10:48:23Z</time>
      </trkpt>
      <trkpt lat="47.27364" lon="-1.62433">
        <ele>25.3</ele>
        <time>2012-01-12T10:48:24Z</time>
      </trkpt>
      <trkpt lat="47.27359" lon="-1.62431">
        <ele>25.2</ele>
        <time>2012-01-12T10:48:27Z</time>
      </trkpt>
      <trkpt lat="47.27356" lon="-1.6243">
        <ele>25.2</ele>
        <time>2012-01-12T10:48:29Z</time>
      </trkpt>
      <trkpt lat="47.27353" lon="-1.62429">
        <ele>25.5</ele>
        <time>2012-01-12T10:48:31Z</time>
      </trkpt>
      <trkpt lat="47.2735" lon="-1.62427">
        <ele>25.7</ele>
        <time>2012-01-12T10:48:33Z</time>
      </trkpt>
      <trkpt lat="47.27347" lon="-1.62425">
        <ele>26.2</ele>
        <time>2012-01-12T10:48:35Z</time>
      </trkpt>
      <trkpt lat="47.27344" lon="-1.62424">
        <ele>26.7</ele>
        <time>2012-01-12T10:48:37Z</time>
      </trkpt>
      <trkpt lat="47.27341" lon="-1.62422">
        <ele>27</ele>
        <time>2012-01-12T10:48:39Z</time>
      </trkpt>
      <trkpt lat="47.27338" lon="-1.6242">
        <ele>26.7</ele>
        <time>2012-01-12T10:48:41Z</time>
      </trkpt>
      <trkpt lat="47.27335" lon="-1.62417">
        <ele>26.6</ele>
        <time>2012-01-12T10:48:43Z</time>
      </trkpt>
      <trkpt lat="47.27332" lon="-1.62415">
        <ele>26.8</ele>
        <time>2012-01-12T10:48:45Z</time>
      </trkpt>
      <trkpt lat="47.27329" lon="-1.62413">
        <ele>27.2</ele>
        <time>2012-01-12T10:48:47Z</time>
      </trkpt>
      <trkpt lat="47.27326" lon="-1.6241">
        <ele>27.3</ele>
        <time>2012-01-12T10:48:49Z</time>
      </trkpt>
      <trkpt lat="47.27323" lon="-1.62408">
        <ele>27.2</ele>
        <time>2012-01-12T10:48:51Z</time>
      </trkpt>
      <trkpt lat="47.2732" lon="-1.62406">
        <ele>27.2</ele>
        <time>2012-01-12T10:48:53Z</time>
      </trkpt>
      <trkpt lat="47.27317" lon="-1.62403">
        <ele>27.3</ele>
        <time>2012-01-12T10:48:55Z</time>
      </trkpt>
      <trkpt lat="47.27315" lon="-1.62401">
        <ele>27.3</ele>
        <time>2012-01-12T10:48:57Z</time>
      </trkpt>
      <trkpt lat="47.27312" lon="-1.62398">
        <ele>27.2</ele>
        <time>2012-01-12T10:48:59Z</time>
      </trkpt>
      <trkpt lat="47.27309" lon="-1.62396">
        <ele>27.3</ele>
        <time>2012-01-12T10:49:01Z</time>
      </trkpt>
      <trkpt lat="47.27307" lon="-1.62393">
        <ele>27.3</ele>
        <time>2012-01-12T10:49:03Z</time>
      </trkpt>
      <trkpt lat="47.27304" lon="-1.62391">
        <ele>27.3</ele>
        <time>2012-01-12T10:49:05Z</time>
      </trkpt>
      <trkpt lat="47.27301" lon="-1.62388">
        <ele>27.7</ele>
        <time>2012-01-12T10:49:07Z</time>
      </trkpt>
      <trkpt lat="47.27299" lon="-1.62386">
        <ele>28.1</ele>
        <time>2012-01-12T10:49:09Z</time>
      </trkpt>
      <trkpt lat="47.27296" lon="-1.62384">
        <ele>28.1</ele>
        <time>2012-01-12T10:49:11Z</time>
      </trkpt>
      <trkpt lat="47.27293" lon="-1.6238">
        <ele>28.1</ele>
        <time>2012-01-12T10:49:14Z</time>
      </trkpt>
      <trkpt lat="47.2729" lon="-1.62378">
        <ele>28.2</ele>
        <time>2012-01-12T10:49:16Z</time>
      </trkpt>
      <trkpt lat="47.27286" lon="-1.62376">
        <ele>28.6</ele>
        <time>2012-01-12T10:49:19Z</time>
      </trkpt>
      <trkpt lat="47.27282" lon="-1.62373">
        <ele>28.7</ele>
        <time>2012-01-12T10:49:22Z</time>
      </trkpt>
      <trkpt lat="47.27278" lon="-1.62371">
        <ele>29.1</ele>
        <time>2012-01-12T10:49:25Z</time>
      </trkpt>
      <trkpt lat="47.27276" lon="-1.6237">
        <ele>29</ele>
        <time>2012-01-12T10:49:26Z</time>
      </trkpt>
      <trkpt lat="47.27272" lon="-1.62368">
        <ele>29</ele>
        <time>2012-01-12T10:49:29Z</time>
      </trkpt>
      <trkpt lat="47.27269" lon="-1.62366">
        <ele>29</ele>
        <time>2012-01-12T10:49:31Z</time>
      </trkpt>
      <trkpt lat="47.27265" lon="-1.62364">
        <ele>28.7</ele>
        <time>2012-01-12T10:49:34Z</time>
      </trkpt>
      <trkpt lat="47.27262" lon="-1.62362">
        <ele>28.5</ele>
        <time>2012-01-12T10:49:36Z</time>
      </trkpt>
      <trkpt lat="47.27259" lon="-1.62361">
        <ele>28.7</ele>
        <time>2012-01-12T10:49:38Z</time>
      </trkpt>
      <trkpt lat="47.27256" lon="-1.6236">
        <ele>29.2</ele>
        <time>2012-01-12T10:49:40Z</time>
      </trkpt>
      <trkpt lat="47.27252" lon="-1.62357">
        <ele>29.6</ele>
        <time>2012-01-12T10:49:43Z</time>
      </trkpt>
      <trkpt lat="47.27249" lon="-1.62356">
        <ele>29.7</ele>
        <time>2012-01-12T10:49:45Z</time>
      </trkpt>
      <trkpt lat="47.27245" lon="-1.62354">
        <ele>30</ele>
        <time>2012-01-12T10:49:47Z</time>
      </trkpt>
      <trkpt lat="47.27242" lon="-1.62353">
        <ele>29.7</ele>
        <time>2012-01-12T10:49:49Z</time>
      </trkpt>
      <trkpt lat="47.27239" lon="-1.62352">
        <ele>29.2</ele>
        <time>2012-01-12T10:49:51Z</time>
      </trkpt>
      <trkpt lat="47.27236" lon="-1.62351">
        <ele>28.8</ele>
        <time>2012-01-12T10:49:53Z</time>
      </trkpt>
      <trkpt lat="47.27233" lon="-1.6235">
        <ele>29.1</ele>
        <time>2012-01-12T10:49:55Z</time>
      </trkpt>
      <trkpt lat="47.2723" lon="-1.62349">
        <ele>29.1</ele>
        <time>2012-01-12T10:49:57Z</time>
      </trkpt>
      <trkpt lat="47.27227" lon="-1.62348">
        <ele>29.5</ele>
        <time>2012-01-12T10:49:59Z</time>
      </trkpt>
      <trkpt lat="47.27224" lon="-1.62346">
        <ele>29.5</ele>
        <time>2012-01-12T10:50:01Z</time>
      </trkpt>
      <trkpt lat="47.27221" lon="-1.62346">
        <ele>29.2</ele>
        <time>2012-01-12T10:50:03Z</time>
      </trkpt>
      <trkpt lat="47.27216" lon="-1.62345">
        <ele>30</ele>
        <time>2012-01-12T10:50:06Z</time>
      </trkpt>
      <trkpt lat="47.27213" lon="-1.62343">
        <ele>29.7</ele>
        <time>2012-01-12T10:50:09Z</time>
      </trkpt>
      <trkpt lat="47.27209" lon="-1.62341">
        <ele>29.7</ele>
        <time>2012-01-12T10:50:12Z</time>
      </trkpt>
      <trkpt lat="47.27205" lon="-1.6234">
        <ele>30.1</ele>
        <time>2012-01-12T10:50:15Z</time>
      </trkpt>
      <trkpt lat="47.27201" lon="-1.62338">
        <ele>30.5</ele>
        <time>2012-01-12T10:50:18Z</time>
      </trkpt>
      <trkpt lat="47.27198" lon="-1.62336">
        <ele>30.7</ele>
        <time>2012-01-12T10:50:20Z</time>
      </trkpt>
      <trkpt lat="47.27195" lon="-1.62334">
        <ele>30.8</ele>
        <time>2012-01-12T10:50:22Z</time>
      </trkpt>
      <trkpt lat="47.27191" lon="-1.62331">
        <ele>31.2</ele>
        <time>2012-01-12T10:50:25Z</time>
      </trkpt>
      <trkpt lat="47.27189" lon="-1.62329">
        <ele>31</ele>
        <time>2012-01-12T10:50:27Z</time>
      </trkpt>
      <trkpt lat="47.27187" lon="-1.62328">
        <ele>30.8</ele>
        <time>2012-01-12T10:50:28Z</time>
      </trkpt>
      <trkpt lat="47.27182" lon="-1.62323">
        <ele>31.1</ele>
        <time>2012-01-12T10:50:32Z</time>
      </trkpt>
      <trkpt lat="47.27179" lon="-1.6232">
        <ele>31.2</ele>
        <time>2012-01-12T10:50:34Z</time>
      </trkpt>
      <trkpt lat="47.27176" lon="-1.62318">
        <ele>31.3</ele>
        <time>2012-01-12T10:50:36Z</time>
      </trkpt>
      <trkpt lat="47.27173" lon="-1.62317">
        <ele>31.3</ele>
        <time>2012-01-12T10:50:38Z</time>
      </trkpt>
      <trkpt lat="47.27169" lon="-1.62317">
        <ele>31.2</ele>
        <time>2012-01-12T10:50:40Z</time>
      </trkpt>
      <trkpt lat="47.27165" lon="-1.62316">
        <ele>31.2</ele>
        <time>2012-01-12T10:50:43Z</time>
      </trkpt>
      <trkpt lat="47.27162" lon="-1.62314">
        <ele>31.3</ele>
        <time>2012-01-12T10:50:45Z</time>
      </trkpt>
      <trkpt lat="47.27159" lon="-1.62311">
        <ele>31.7</ele>
        <time>2012-01-12T10:50:47Z</time>
      </trkpt>
      <trkpt lat="47.27156" lon="-1.6231">
        <ele>31.6</ele>
        <time>2012-01-12T10:50:49Z</time>
      </trkpt>
      <trkpt lat="47.27153" lon="-1.62306">
        <ele>31.3</ele>
        <time>2012-01-12T10:50:51Z</time>
      </trkpt>
      <trkpt lat="47.27149" lon="-1.62304">
        <ele>31.7</ele>
        <time>2012-01-12T10:50:53Z</time>
      </trkpt>
      <trkpt lat="47.27146" lon="-1.62301">
        <ele>31.7</ele>
        <time>2012-01-12T10:50:55Z</time>
      </trkpt>
      <trkpt lat="47.27142" lon="-1.623">
        <ele>32</ele>
        <time>2012-01-12T10:50:58Z</time>
      </trkpt>
      <trkpt lat="47.27139" lon="-1.62299">
        <ele>32.5</ele>
        <time>2012-01-12T10:51:00Z</time>
      </trkpt>
      <trkpt lat="47.27135" lon="-1.623">
        <ele>32.7</ele>
        <time>2012-01-12T10:51:03Z</time>
      </trkpt>
      <trkpt lat="47.27132" lon="-1.62305">
        <ele>33.2</ele>
        <time>2012-01-12T10:51:06Z</time>
      </trkpt>
      <trkpt lat="47.2713" lon="-1.62309">
        <ele>33.5</ele>
        <time>2012-01-12T10:51:08Z</time>
      </trkpt>
      <trkpt lat="47.27128" lon="-1.62313">
        <ele>33.7</ele>
        <time>2012-01-12T10:51:10Z</time>
      </trkpt>
      <trkpt lat="47.27126" lon="-1.62318">
        <ele>33.7</ele>
        <time>2012-01-12T10:51:12Z</time>
      </trkpt>
      <trkpt lat="47.27124" lon="-1.62322">
        <ele>33.7</ele>
        <time>2012-01-12T10:51:14Z</time>
      </trkpt>
      <trkpt lat="47.27122" lon="-1.62328">
        <ele>33.5</ele>
        <time>2012-01-12T10:51:16Z</time>
      </trkpt>
      <trkpt lat="47.2712" lon="-1.62333">
        <ele>33.5</ele>
        <time>2012-01-12T10:51:18Z</time>
      </trkpt>
      <trkpt lat="47.27117" lon="-1.62335">
        <ele>33.7</ele>
        <time>2012-01-12T10:51:20Z</time>
      </trkpt>
      <trkpt lat="47.27113" lon="-1.62339">
        <ele>34</ele>
        <time>2012-01-12T10:51:23Z</time>
      </trkpt>
      <trkpt lat="47.2711" lon="-1.62341">
        <ele>34.2</ele>
        <time>2012-01-12T10:51:25Z</time>
      </trkpt>
      <trkpt lat="47.27107" lon="-1.62343">
        <ele>34</ele>
        <time>2012-01-12T10:51:28Z</time>
      </trkpt>
      <trkpt lat="47.27106" lon="-1.62344">
        <ele>34</ele>
        <time>2012-01-12T10:51:29Z</time>
      </trkpt>
      <trkpt lat="47.27101" lon="-1.62348">
        <ele>34.4</ele>
        <time>2012-01-12T10:51:33Z</time>
      </trkpt>
      <trkpt lat="47.27099" lon="-1.62352">
        <ele>34.5</ele>
        <time>2012-01-12T10:51:35Z</time>
      </trkpt>
      <trkpt lat="47.27097" lon="-1.62356">
        <ele>34.2</ele>
        <time>2012-01-12T10:51:37Z</time>
      </trkpt>
      <trkpt lat="47.27095" lon="-1.62359">
        <ele>34</ele>
        <time>2012-01-12T10:51:39Z</time>
      </trkpt>
      <trkpt lat="47.27092" lon="-1.62363">
        <ele>34.2</ele>
        <time>2012-01-12T10:51:41Z</time>
      </trkpt>
      <trkpt lat="47.2709" lon="-1.62366">
        <ele>34</ele>
        <time>2012-01-12T10:51:43Z</time>
      </trkpt>
      <trkpt lat="47.27088" lon="-1.6237">
        <ele>33.7</ele>
        <time>2012-01-12T10:51:45Z</time>
      </trkpt>
      <trkpt lat="47.27086" lon="-1.62373">
        <ele>34.5</ele>
        <time>2012-01-12T10:51:47Z</time>
      </trkpt>
      <trkpt lat="47.27083" lon="-1.62378">
        <ele>34.7</ele>
        <time>2012-01-12T10:51:49Z</time>
      </trkpt>
      <trkpt lat="47.27081" lon="-1.62382">
        <ele>34.7</ele>
        <time>2012-01-12T10:51:51Z</time>
      </trkpt>
      <trkpt lat="47.27079" lon="-1.62385">
        <ele>34.9</ele>
        <time>2012-01-12T10:51:53Z</time>
      </trkpt>
      <trkpt lat="47.27076" lon="-1.62389">
        <ele>35</ele>
        <time>2012-01-12T10:51:55Z</time>
      </trkpt>
      <trkpt lat="47.27074" lon="-1.62392">
        <ele>34.7</ele>
        <time>2012-01-12T10:51:57Z</time>
      </trkpt>
      <trkpt lat="47.27071" lon="-1.62396">
        <ele>34.7</ele>
        <time>2012-01-12T10:51:59Z</time>
      </trkpt>
      <trkpt lat="47.27068" lon="-1.62398">
        <ele>34.7</ele>
        <time>2012-01-12T10:52:01Z</time>
      </trkpt>
      <trkpt lat="47.27065" lon="-1.62401">
        <ele>35</ele>
        <time>2012-01-12T10:52:04Z</time>
      </trkpt>
      <trkpt lat="47.2706" lon="-1.62401">
        <ele>34.2</ele>
        <time>2012-01-12T10:52:07Z</time>
      </trkpt>
      <trkpt lat="47.27057" lon="-1.624">
        <ele>33.7</ele>
        <time>2012-01-12T10:52:09Z</time>
      </trkpt>
      <trkpt lat="47.27054" lon="-1.62398">
        <ele>33.5</ele>
        <time>2012-01-12T10:52:11Z</time>
      </trkpt>
      <trkpt lat="47.27052" lon="-1.62394">
        <ele>33</ele>
        <time>2012-01-12T10:52:13Z</time>
      </trkpt>
      <trkpt lat="47.27049" lon="-1.62391">
        <ele>32.7</ele>
        <time>2012-01-12T10:52:15Z</time>
      </trkpt>
      <trkpt lat="47.27046" lon="-1.62389">
        <ele>32.7</ele>
        <time>2012-01-12T10:52:18Z</time>
      </trkpt>
      <trkpt lat="47.27042" lon="-1.62389">
        <ele>32.7</ele>
        <time>2012-01-12T10:52:21Z</time>
      </trkpt>
      <trkpt lat="47.27038" lon="-1.62389">
        <ele>33</ele>
        <time>2012-01-12T10:52:25Z</time>
      </trkpt>
      <trkpt lat="47.27038" lon="-1.62389">
        <ele>32.2</ele>
        <time>2012-01-12T10:52:33Z</time>
      </trkpt>
      <trkpt lat="47.27038" lon="-1.62389">
        <ele>32.2</ele>
        <time>2012-01-12T10:52:34Z</time>
      </trkpt>
    </trkseg>
  </trk>
</gpx>